[[{"header":{"parameterUnit":"m.s-1","parameterCategory":1,"la1":30.6,"la2":29.2853,"lo1":-89.7004,"lo2":-87.6739,"dy":0.0162,"dx":0.0183,"nx":112,"ny":82,"refTime":"2023-08-21T18:00:00:Z","depth":0,"parameterNumber":2,"parameterNumberName":"U-component_of_WINDS"},"data":[0.0,0.0,0.0,0.0,0.0,0.0,0.0,0.0,0.0,0.0,0.0,0.0,0.0,0.0,0.0,0.0,0.0,0.0,0.0,0.0,0.0,0.0,0.0,0.0,0.0,0.0,0.0,0.0,0.0,0.0,0.0,0.0,0.0,0.0,0.0,0.0,0.0,0.0,0.0,0.0,0.0,0.0,0.0,0.0,0.0,0.0,0.0,0.0,0.0,0.0,0.0,0.0,0.0,0.0,0.0,0.0,0.0,0.0,0.0,0.0,0.0,0.0,0.0,0.0,0.0,0.0,0.0,0.0,0.0,0.0,0.0,0.0,0.0,0.0,0.0,0.0,0.0,0.0,0.0,0.0,0.0,0.0,0.0,0.0,0.0,0.0,0.0,0.0,0.0,0.0,-3.2733,-3.6491,-3.8633,-3.9286,-3.8014,-3.6821,-3.5126,-3.2718,0.0,0.0,0.0,0.0,0.0,0.0,0.0,0.0,0.0,0.0,0.0,0.0,0.0,0.0,0.0,0.0,0.0,0.0,0.0,0.0,0.0,0.0,0.0,0.0,0.0,0.0,0.0,0.0,0.0,0.0,0.0,0.0,0.0,0.0,0.0,0.0,0.0,0.0,0.0,0.0,0.0,0.0,0.0,0.0,0.0,0.0,0.0,0.0,0.0,0.0,0.0,0.0,0.0,0.0,0.0,0.0,0.0,0.0,0.0,0.0,0.0,0.0,0.0,0.0,0.0,0.0,0.0,0.0,0.0,0.0,0.0,0.0,0.0,0.0,0.0,0.0,0.0,0.0,0.0,0.0,0.0,0.0,0.0,0.0,0.0,0.0,0.0,0.0,0.0,0.0,0.0,0.0,0.0,0.0,0.0,0.0,0.0,0.0,0.0,0.0,0.0,0.0,0.0,0.0,-3.2487,-3.6389,-3.7719,-3.8221,-3.7989,-3.4513,-3.22,-3.1851,0.0,0.0,0.0,0.0,0.0,0.0,0.0,0.0,0.0,0.0,0.0,0.0,0.0,0.0,0.0,0.0,0.0,0.0,0.0,0.0,0.0,0.0,0.0,0.0,0.0,0.0,0.0,0.0,0.0,0.0,0.0,0.0,0.0,0.0,0.0,0.0,0.0,0.0,0.0,0.0,0.0,0.0,0.0,0.0,0.0,0.0,0.0,0.0,0.0,0.0,0.0,0.0,0.0,0.0,0.0,0.0,0.0,0.0,0.0,0.0,0.0,0.0,0.0,0.0,0.0,0.0,0.0,0.0,0.0,0.0,0.0,0.0,0.0,0.0,0.0,0.0,0.0,0.0,0.0,0.0,0.0,0.0,0.0,0.0,0.0,0.0,0.0,0.0,0.0,0.0,0.0,0.0,0.0,0.0,0.0,0.0,0.0,0.0,0.0,0.0,0.0,0.0,0.0,-3.2835,-3.4595,-3.604,-3.6888,-3.7183,-3.6766,-3.361,-3.1532,-3.1356,-2.9152,0.0,0.0,0.0,0.0,0.0,0.0,0.0,0.0,0.0,0.0,0.0,0.0,0.0,0.0,0.0,0.0,0.0,0.0,0.0,0.0,0.0,0.0,0.0,0.0,0.0,0.0,0.0,0.0,0.0,0.0,0.0,0.0,0.0,0.0,0.0,0.0,0.0,0.0,0.0,0.0,0.0,0.0,0.0,0.0,0.0,0.0,0.0,0.0,0.0,0.0,0.0,0.0,0.0,0.0,0.0,0.0,0.0,0.0,0.0,0.0,0.0,0.0,0.0,0.0,0.0,0.0,0.0,0.0,0.0,0.0,0.0,0.0,0.0,0.0,0.0,0.0,0.0,0.0,0.0,0.0,0.0,0.0,0.0,0.0,0.0,0.0,0.0,0.0,0.0,0.0,0.0,0.0,0.0,0.0,0.0,0.0,0.0,0.0,0.0,0.0,0.0,0.0,-3.4291,-3.5486,-3.5454,-3.5851,-3.58,-3.5045,-3.2368,-3.068,-3.056,-2.745,0.0,0.0,0.0,0.0,0.0,0.0,0.0,0.0,0.0,0.0,0.0,0.0,0.0,0.0,0.0,0.0,0.0,0.0,0.0,0.0,0.0,0.0,0.0,0.0,0.0,0.0,0.0,0.0,0.0,0.0,0.0,0.0,0.0,0.0,0.0,0.0,0.0,0.0,0.0,0.0,0.0,0.0,0.0,0.0,0.0,0.0,0.0,0.0,0.0,0.0,0.0,0.0,0.0,0.0,0.0,0.0,0.0,0.0,0.0,0.0,0.0,0.0,0.0,0.0,0.0,0.0,0.0,0.0,0.0,0.0,0.0,0.0,0.0,0.0,0.0,0.0,0.0,0.0,0.0,0.0,0.0,0.0,0.0,0.0,0.0,0.0,0.0,0.0,0.0,0.0,0.0,0.0,0.0,0.0,0.0,0.0,0.0,0.0,0.0,0.0,0.0,0.0,-3.1469,-3.2681,-3.4579,-3.427,-3.3633,-3.2975,-2.9816,-2.8288,-2.9276,-2.607,0.0,0.0,0.0,0.0,0.0,0.0,0.0,0.0,0.0,0.0,0.0,0.0,0.0,0.0,0.0,0.0,0.0,0.0,0.0,0.0,0.0,0.0,0.0,0.0,0.0,0.0,0.0,0.0,0.0,0.0,0.0,0.0,0.0,0.0,0.0,0.0,0.0,0.0,0.0,0.0,0.0,0.0,0.0,0.0,0.0,0.0,0.0,0.0,0.0,0.0,0.0,0.0,0.0,0.0,0.0,0.0,0.0,0.0,0.0,0.0,0.0,0.0,0.0,0.0,0.0,0.0,0.0,0.0,0.0,0.0,0.0,0.0,0.0,0.0,0.0,0.0,0.0,0.0,0.0,0.0,0.0,0.0,0.0,0.0,0.0,0.0,0.0,0.0,0.0,0.0,0.0,0.0,0.0,0.0,0.0,0.0,0.0,0.0,0.0,0.0,0.0,0.0,-3.1362,-3.2173,-3.3771,-3.3356,-3.2846,-3.2604,-2.9539,-2.7806,-2.8303,0.0,0.0,0.0,0.0,0.0,0.0,0.0,0.0,0.0,0.0,0.0,0.0,0.0,0.0,0.0,0.0,0.0,0.0,0.0,0.0,0.0,0.0,0.0,0.0,0.0,0.0,0.0,0.0,0.0,0.0,0.0,0.0,0.0,0.0,0.0,0.0,0.0,0.0,0.0,0.0,0.0,0.0,0.0,0.0,0.0,0.0,0.0,0.0,0.0,0.0,0.0,0.0,0.0,0.0,0.0,0.0,0.0,0.0,0.0,0.0,0.0,0.0,0.0,0.0,0.0,0.0,0.0,0.0,0.0,0.0,0.0,0.0,0.0,0.0,0.0,0.0,0.0,0.0,0.0,0.0,0.0,0.0,0.0,0.0,0.0,0.0,0.0,0.0,0.0,0.0,0.0,0.0,0.0,0.0,0.0,0.0,0.0,0.0,0.0,0.0,0.0,0.0,-3.1178,-3.0912,-3.1152,-3.2706,-3.2467,-3.2019,-3.1629,-2.8727,-2.719,-2.771,0.0,0.0,0.0,0.0,0.0,0.0,0.0,0.0,0.0,0.0,0.0,0.0,0.0,0.0,0.0,0.0,0.0,0.0,0.0,0.0,0.0,0.0,0.0,0.0,0.0,0.0,0.0,0.0,0.0,0.0,0.0,0.0,0.0,0.0,0.0,0.0,0.0,0.0,0.0,0.0,0.0,0.0,0.0,0.0,0.0,0.0,0.0,0.0,0.0,0.0,0.0,0.0,0.0,0.0,0.0,0.0,0.0,0.0,0.0,0.0,0.0,0.0,0.0,0.0,0.0,0.0,0.0,0.0,0.0,0.0,0.0,0.0,0.0,0.0,0.0,0.0,0.0,0.0,0.0,0.0,0.0,0.0,0.0,0.0,0.0,0.0,0.0,0.0,0.0,0.0,0.0,0.0,0.0,0.0,0.0,0.0,0.0,0.0,0.0,0.0,0.0,0.0,-3.0853,-2.9682,-2.9355,-3.1301,-3.1511,-3.0972,-2.9741,-2.7141,-2.6183,0.0,0.0,0.0,0.0,0.0,0.0,0.0,0.0,0.0,0.0,0.0,0.0,0.0,0.0,0.0,0.0,0.0,0.0,0.0,0.0,0.0,0.0,0.0,0.0,0.0,0.0,0.0,0.0,0.0,0.0,0.0,0.0,0.0,0.0,0.0,0.0,0.0,0.0,0.0,0.0,0.0,0.0,0.0,0.0,0.0,0.0,0.0,0.0,0.0,0.0,0.0,0.0,0.0,0.0,0.0,0.0,0.0,0.0,0.0,0.0,0.0,0.0,0.0,0.0,0.0,0.0,0.0,0.0,0.0,0.0,0.0,0.0,0.0,0.0,0.0,0.0,0.0,0.0,0.0,0.0,0.0,0.0,0.0,0.0,0.0,0.0,0.0,0.0,0.0,0.0,0.0,0.0,0.0,0.0,0.0,0.0,0.0,0.0,0.0,0.0,0.0,0.0,0.0,-3.1353,-2.9931,-2.9535,-3.1929,-3.178,-3.1152,-3.0313,-2.7022,-2.5921,-2.8035,0.0,0.0,0.0,0.0,0.0,0.0,0.0,0.0,0.0,0.0,0.0,0.0,0.0,0.0,0.0,0.0,0.0,0.0,0.0,0.0,0.0,0.0,0.0,0.0,0.0,0.0,0.0,0.0,0.0,0.0,0.0,0.0,0.0,0.0,0.0,0.0,0.0,0.0,0.0,0.0,0.0,0.0,0.0,0.0,0.0,0.0,0.0,0.0,0.0,0.0,0.0,0.0,0.0,0.0,0.0,0.0,0.0,0.0,0.0,0.0,0.0,0.0,0.0,0.0,0.0,0.0,0.0,0.0,0.0,0.0,0.0,0.0,0.0,0.0,0.0,0.0,0.0,0.0,0.0,0.0,0.0,0.0,0.0,0.0,0.0,0.0,0.0,0.0,0.0,0.0,0.0,0.0,0.0,0.0,0.0,0.0,0.0,0.0,0.0,0.0,0.0,0.0,-3.1548,-3.0208,-2.9804,-3.1869,-3.1456,-3.0748,-3.01,-2.672,-2.5268,-2.6664,0.0,0.0,0.0,0.0,0.0,0.0,0.0,0.0,0.0,0.0,0.0,0.0,0.0,0.0,0.0,0.0,0.0,0.0,0.0,0.0,0.0,0.0,0.0,0.0,0.0,0.0,0.0,0.0,0.0,0.0,0.0,0.0,0.0,0.0,0.0,0.0,0.0,0.0,0.0,0.0,0.0,0.0,0.0,0.0,0.0,0.0,0.0,0.0,0.0,0.0,0.0,0.0,0.0,0.0,0.0,0.0,0.0,0.0,0.0,0.0,0.0,0.0,0.0,0.0,0.0,0.0,0.0,0.0,0.0,0.0,0.0,0.0,0.0,0.0,0.0,0.0,0.0,0.0,0.0,0.0,0.0,0.0,0.0,0.0,0.0,0.0,0.0,0.0,0.0,0.0,0.0,0.0,0.0,0.0,0.0,0.0,0.0,0.0,0.0,0.0,0.0,0.0,-3.1384,-3.0287,-2.979,-3.1129,-3.0628,-2.9919,-2.9229,-2.6246,-2.4394,-2.4395,0.0,0.0,0.0,0.0,0.0,0.0,0.0,0.0,0.0,0.0,0.0,0.0,0.0,0.0,0.0,0.0,0.0,0.0,0.0,0.0,0.0,0.0,0.0,0.0,0.0,0.0,0.0,0.0,0.0,0.0,0.0,0.0,0.0,0.0,0.0,0.0,0.0,0.0,0.0,0.0,0.0,0.0,0.0,0.0,0.0,0.0,0.0,0.0,0.0,0.0,0.0,0.0,0.0,0.0,0.0,0.0,0.0,0.0,0.0,0.0,-2.5138,-2.4091,0.0,0.0,0.0,0.0,0.0,0.0,0.0,0.0,0.0,0.0,0.0,0.0,0.0,0.0,0.0,0.0,0.0,0.0,0.0,0.0,0.0,0.0,0.0,0.0,0.0,0.0,0.0,0.0,0.0,0.0,0.0,0.0,0.0,0.0,0.0,0.0,0.0,0.0,0.0,0.0,-3.0191,-2.8512,-2.7709,-2.9366,-2.938,-2.9004,-2.833,-2.5891,-2.4625,-2.5137,-2.2724,0.0,0.0,0.0,0.0,0.0,0.0,0.0,0.0,0.0,0.0,0.0,0.0,0.0,0.0,0.0,0.0,0.0,0.0,0.0,0.0,0.0,0.0,0.0,0.0,0.0,0.0,0.0,0.0,0.0,0.0,0.0,0.0,0.0,0.0,0.0,0.0,0.0,0.0,0.0,0.0,0.0,0.0,0.0,0.0,0.0,0.0,0.0,0.0,0.0,0.0,0.0,0.0,0.0,0.0,0.0,0.0,0.0,0.0,0.0,-2.6143,-2.5194,0.0,0.0,0.0,0.0,0.0,0.0,0.0,0.0,0.0,0.0,0.0,0.0,0.0,0.0,0.0,0.0,0.0,0.0,0.0,0.0,0.0,0.0,0.0,0.0,0.0,0.0,0.0,0.0,0.0,0.0,0.0,0.0,0.0,0.0,0.0,0.0,0.0,0.0,0.0,0.0,-2.983,-2.8185,-2.7347,-2.8837,-2.862,-2.8228,-2.7867,-2.5616,-2.4227,-2.4283,-2.2881,0.0,0.0,0.0,0.0,0.0,0.0,0.0,0.0,0.0,0.0,0.0,0.0,0.0,0.0,0.0,0.0,0.0,0.0,0.0,0.0,0.0,0.0,0.0,0.0,0.0,0.0,0.0,0.0,0.0,0.0,0.0,0.0,0.0,0.0,0.0,0.0,0.0,0.0,0.0,0.0,0.0,0.0,0.0,0.0,0.0,0.0,0.0,0.0,0.0,0.0,0.0,0.0,0.0,-2.9756,-2.9925,-2.9499,-2.9499,-2.8794,-2.7546,-2.8119,-2.7119,-2.5167,-2.5851,0.0,0.0,0.0,0.0,0.0,0.0,0.0,0.0,0.0,0.0,0.0,0.0,0.0,0.0,0.0,0.0,0.0,0.0,0.0,0.0,0.0,0.0,0.0,0.0,-2.8288,-2.7318,-2.5384,0.0,0.0,0.0,0.0,0.0,0.0,0.0,0.0,0.0,0.0,0.0,-2.9285,-2.7898,-2.7251,-2.8447,-2.7934,-2.7471,-2.7471,-2.5429,-2.3853,-2.3145,-2.3052,-2.2368,0.0,0.0,0.0,0.0,0.0,0.0,0.0,0.0,0.0,0.0,0.0,0.0,0.0,0.0,0.0,0.0,0.0,0.0,0.0,0.0,0.0,0.0,0.0,0.0,0.0,0.0,0.0,0.0,0.0,0.0,0.0,0.0,-2.3588,-2.396,0.0,0.0,0.0,0.0,0.0,0.0,0.0,0.0,0.0,0.0,0.0,0.0,0.0,-2.9711,-2.9513,-3.0842,-3.1117,-3.0322,-3.1365,-3.1624,-3.1211,-3.1211,-3.1055,-3.0859,-3.0598,0.0,-2.4836,-2.4664,0.0,0.0,0.0,0.0,0.0,0.0,0.0,0.0,0.0,0.0,0.0,0.0,0.0,0.0,0.0,0.0,0.0,0.0,0.0,0.0,0.0,0.0,-2.9189,-2.8371,-2.8497,-2.8385,0.0,-2.7675,-2.8308,-2.8114,-2.7241,0.0,0.0,0.0,0.0,0.0,0.0,0.0,-2.7099,-2.5967,-2.5535,-2.6688,-2.6714,-2.6645,-2.6645,-2.5451,-2.4224,-2.317,-2.1823,-2.1458,-2.2314,-2.1266,0.0,0.0,0.0,0.0,0.0,0.0,0.0,0.0,0.0,0.0,0.0,0.0,0.0,0.0,0.0,0.0,0.0,0.0,0.0,0.0,0.0,0.0,0.0,0.0,0.0,0.0,0.0,0.0,0.0,-2.568,-2.6322,-2.5044,-2.6016,-2.648,0.0,0.0,0.0,0.0,0.0,0.0,0.0,0.0,0.0,-3.037,-3.0918,-3.1214,-3.1225,-3.2018,-3.2213,-3.1859,-3.2542,-3.2773,-3.2578,-3.2578,-3.2578,-3.2559,-3.2148,-3.0663,-2.8461,-2.7491,-2.6959,-2.6668,0.0,0.0,0.0,0.0,-2.5395,-2.5464,-2.6159,-2.5505,-2.464,-2.6317,0.0,0.0,0.0,0.0,0.0,0.0,0.0,-2.9668,0.0,0.0,-3.0884,-2.9779,-2.993,-3.0181,-2.9704,-2.9454,-2.9034,0.0,-2.8524,-2.9246,-2.9958,0.0,0.0,0.0,0.0,-2.6707,-2.7497,-2.6756,-2.6389,-2.6901,-2.6952,-2.6826,-2.6524,-2.546,-2.4575,-2.4073,-2.2221,-2.1247,-2.1506,-2.1515,-2.1648,0.0,0.0,0.0,0.0,0.0,0.0,0.0,0.0,0.0,0.0,0.0,0.0,0.0,0.0,0.0,0.0,0.0,0.0,0.0,0.0,0.0,0.0,0.0,0.0,0.0,0.0,0.0,0.0,-2.7488,-2.8144,-2.5852,-2.7512,-2.8186,0.0,0.0,0.0,0.0,0.0,0.0,-3.0465,-3.0737,-3.148,-3.2893,-3.2968,-3.2998,-3.3144,-3.3574,-3.3789,-3.3789,-3.4101,-3.4258,-3.4258,-3.4141,-3.4023,-3.3906,-3.3359,-3.2695,-3.1836,-2.9954,-2.868,-2.7827,-2.713,-2.6898,-2.6941,-2.6739,-2.6508,-2.6505,-2.7666,-2.7013,-2.592,-2.7632,-2.75,-2.6576,-2.6229,0.0,0.0,0.0,0.0,-3.0961,-3.034,-3.1165,-3.2014,-3.121,-3.1436,-3.1788,-3.1637,-3.1125,-3.0172,0.0,-2.9108,-3.0202,-3.0611,0.0,0.0,0.0,0.0,-2.7361,-2.7971,-2.7748,-2.7494,-2.7494,-2.7369,-2.7102,-2.6549,-2.546,-2.4675,-2.4374,-2.2573,-2.127,-2.0717,-2.1331,-2.1183,-2.0092,0.0,0.0,0.0,0.0,0.0,0.0,0.0,0.0,0.0,0.0,0.0,0.0,0.0,0.0,0.0,0.0,0.0,0.0,0.0,0.0,0.0,0.0,0.0,0.0,0.0,0.0,0.0,0.0,0.0,-2.6486,-2.9105,0.0,0.0,0.0,0.0,-2.9433,-3.0787,-3.1742,-3.2093,-3.3227,-3.4107,-3.4577,-3.5351,-3.5801,-3.582,-3.625,-3.6465,-3.6465,-3.6504,-3.6504,-3.6484,-3.6074,-3.5664,-3.5254,-3.4375,-3.375,-3.3105,-3.0137,-2.905,-2.909,-2.7867,-2.8155,-2.9132,-2.8241,-2.7801,-2.7603,-2.6814,-2.5927,-2.5416,-2.7251,-2.9232,-3.0755,-3.0132,-3.0846,0.0,0.0,-3.1311,-3.1504,-3.0748,-3.1386,-3.219,-3.2139,-3.2566,-3.2842,-3.229,-3.271,-3.2339,0.0,-2.7706,-2.7167,-2.859,0.0,-2.787,-2.8662,-2.8915,-2.8656,-2.75,-2.7781,-2.8072,-2.8072,-2.7595,-2.7102,-2.6549,-2.546,-2.4324,-2.3246,-2.2121,-2.127,-2.0717,-1.971,-2.0137,-2.2121,-2.0555,0.0,0.0,0.0,0.0,0.0,0.0,0.0,0.0,0.0,0.0,0.0,0.0,0.0,0.0,0.0,0.0,0.0,0.0,0.0,0.0,0.0,0.0,0.0,0.0,0.0,0.0,0.0,0.0,-3.1082,-3.2747,0.0,-3.1427,-3.1722,-3.2175,-3.245,-3.3254,-3.4185,-3.541,-3.5898,-3.6465,-3.7168,-3.7226,-3.7246,-3.7246,-3.7129,-3.707,-3.707,-3.707,-3.707,-3.7051,-3.6621,-3.6348,-3.6172,-3.5293,-3.4668,-3.4121,-3.248,-3.1231,-3.0211,-2.9227,-2.8942,-2.905,-2.8677,-2.8416,-2.8114,-2.8022,-2.7461,-2.6769,-2.6892,-2.7847,-2.9048,-2.9534,-3.0373,-3.1327,-3.2187,-3.2215,-3.2047,-3.2206,-3.2491,-3.2767,-3.2767,-3.2918,-3.3061,-3.2817,-3.2726,-3.2298,-3.1235,-3.0161,-2.9618,-3.0314,-2.8759,-2.7965,-2.9669,-2.9101,-2.8447,-2.8348,-2.885,-2.9051,-2.8674,-2.8147,-2.7595,-2.7077,-2.5661,-2.4625,-2.4224,-2.2498,-2.1393,-2.1219,-2.0112,-1.971,-2.0161,-1.9558,-2.0207,0.0,0.0,0.0,0.0,0.0,0.0,0.0,0.0,0.0,0.0,0.0,0.0,0.0,0.0,0.0,0.0,0.0,0.0,0.0,0.0,0.0,0.0,0.0,0.0,0.0,-3.2261,-3.3813,-3.3766,-3.5336,-3.5772,-3.4109,-3.4524,-3.5,-3.5156,-3.582,-3.6719,-3.7871,-3.8086,-3.8437,-3.9004,-3.8594,-3.8359,-3.8359,-3.793,-3.7734,-3.7734,-3.7734,-3.7656,-3.75,-3.7226,-3.6934,-3.6641,-3.5918,-3.5351,-3.4863,-3.4004,-3.2891,-3.1641,-3.0625,-2.9961,-2.959,-2.959,-2.9316,-2.8965,-2.9101,-2.8672,-2.8074,-2.7739,-2.7959,-2.8593,-3.0073,-3.0877,-3.1653,-3.3214,-3.3345,-3.3144,-3.3545,-3.3621,-3.3621,-3.3621,-3.3621,-3.3621,-3.3621,-3.3043,-3.2516,-3.2516,-3.1776,-3.1109,-3.1125,-2.9603,-2.9026,-3.0884,-2.9729,-2.9001,-2.993,-2.9905,-2.9654,-2.9252,-2.8549,-2.7871,-2.7344,-2.6332,-2.53,-2.4274,-2.311,-2.2081,-2.127,-2.0921,-2.0494,-1.9964,-1.9762,-2.0161,-2.1247,0.0,0.0,0.0,0.0,0.0,0.0,0.0,0.0,0.0,0.0,0.0,0.0,0.0,0.0,0.0,0.0,0.0,0.0,0.0,0.0,0.0,0.0,0.0,-3.1475,-3.3838,-3.5256,-3.4342,-3.6836,-3.7741,-3.5317,-3.6821,-3.7832,-3.7422,-3.8555,-3.9258,-3.9258,-3.9687,-3.9922,-3.9922,-3.9473,-3.9238,-3.9219,-3.8828,-3.8613,-3.8613,-3.8613,-3.8379,-3.7969,-3.7949,-3.75,-3.668,-3.623,-3.5801,-3.5351,-3.4453,-3.3828,-3.3301,-3.2031,-3.1269,-3.0918,-3.0898,-3.0586,-3.0137,-2.9726,-2.9297,-2.9031,-2.9835,-2.9828,-2.9926,-3.2012,-3.2723,-3.3026,-3.4318,-3.4705,-3.4705,-3.468,-3.468,-3.468,-3.468,-3.468,-3.468,-3.468,-3.3872,-3.3162,-3.3162,-3.224,-3.1286,-3.0733,-3.0633,-3.0959,-3.2014,-3.0809,0.0,-3.1938,-3.0758,-2.9804,-2.9854,-2.8875,-2.7996,-2.7444,-2.7531,-2.635,-2.3321,-2.3837,-2.3187,-2.0869,-2.1916,-2.2305,-2.1797,-2.1236,-2.0623,-1.9911,0.0,0.0,0.0,0.0,0.0,0.0,0.0,0.0,0.0,0.0,0.0,0.0,0.0,0.0,0.0,0.0,0.0,0.0,0.0,0.0,0.0,-3.1225,-3.3452,-3.361,-3.5475,-3.7034,-3.7695,-3.9082,-3.9671,-3.9012,-3.9456,-3.9766,-3.9648,-4.0254,-4.0625,-4.0625,-4.0742,-4.0684,-4.0351,-4.0234,-4.0019,-3.9707,-3.959,-3.9531,-3.9531,-3.9531,-3.9297,-3.8848,-3.8535,-3.8086,-3.7539,-3.6816,-3.625,-3.5781,-3.4883,-3.4101,-3.332,-3.2363,-3.1719,-3.1309,-3.0996,-3.0586,-3.0137,-2.9726,-2.9492,-2.943,-2.9679,-3.0133,-3.0706,-3.1305,-3.2619,-3.391,-3.3861,-3.4539,-3.5182,-3.4781,-3.468,-3.468,-3.468,-3.468,-3.468,-3.468,-3.4474,-3.4274,-3.4274,-3.3696,-3.2767,-3.1411,-3.0859,-3.0708,-3.1009,-3.0331,0.0,-3.0407,-3.0055,-3.0256,-3.1411,-3.0909,-3.0281,-2.9754,-2.8611,-2.6936,-2.4474,-2.3382,-2.2556,-2.1895,-2.1826,-2.1728,-2.1577,-2.2178,-2.2401,0.0,0.0,0.0,0.0,0.0,0.0,0.0,0.0,0.0,0.0,0.0,0.0,0.0,0.0,0.0,0.0,0.0,0.0,0.0,0.0,0.0,0.0,-3.3165,-3.5989,-3.6681,-3.7492,-3.8516,-3.9629,-4.0371,-4.0801,-4.0801,-4.0801,-4.0801,-4.0801,-4.1035,-4.1172,-4.1172,-4.1172,-4.1055,-4.0801,-4.0625,-4.041,-4.0156,-3.998,-3.9902,-3.9902,-3.9902,-3.9648,-3.9199,-3.8945,-3.8398,-3.7637,-3.7148,-3.6582,-3.5976,-3.5273,-3.459,0.0,0.0,0.0,0.0,0.0,-3.0723,-3.0449,-3.0215,-3.0,-2.9824,-2.9824,-3.0143,-3.0506,-3.11,-3.2215,-3.3226,-3.3277,-3.4291,-3.5158,-3.4691,-3.4963,-3.5403,-3.5403,-3.5403,-3.5403,-3.5403,-3.5228,-3.5031,-3.5031,-3.4424,0.0,-3.2616,-3.1788,-3.1436,-3.1913,-3.111,-3.0633,-3.111,-3.0557,-3.0407,-3.111,-3.0708,-3.0231,-2.9891,-2.9101,0.0,0.0,0.0,-2.3952,-2.3498,-2.2715,0.0,0.0,0.0,-2.2984,-2.2447,-2.3321,0.0,0.0,-2.3094,-2.3412,0.0,0.0,0.0,0.0,0.0,0.0,0.0,0.0,0.0,0.0,0.0,0.0,0.0,0.0,0.0,0.0,-3.5416,-3.8287,-3.9602,-3.9674,-3.9824,-4.0508,-4.0976,-4.123,-4.1172,-4.1172,-4.1172,-4.1172,-4.1172,-4.1172,-4.1172,-4.1172,0.0,0.0,0.0,-4.0586,-4.0586,-4.0234,-4.0039,-4.0039,-4.0039,-3.9766,-3.9277,-3.9277,-3.8613,-3.7441,-3.7344,-3.6875,-3.6113,-3.5547,-3.5019,-3.4434,-3.3262,-3.2266,-3.1465,-3.1094,-3.0937,-3.0898,-3.0898,0.0,0.0,-3.0273,-2.998,-2.9908,-3.1066,-3.1558,-3.1834,-3.2617,-3.3828,-3.4749,-3.4353,-3.5211,-3.6121,-3.5953,-3.6048,-3.6121,-3.5953,-3.5628,-3.5397,-3.5397,-3.4665,-3.4098,-3.4098,-3.3043,-3.2541,-3.3571,-3.239,-3.1738,-3.2692,-3.1512,-3.0482,-3.0105,0.0,0.0,-2.9164,-2.934,-2.8594,-2.66,-2.6544,-2.6113,-2.509,-2.4095,-2.3821,-2.4335,-2.3847,-2.2997,-2.187,-2.2347,-2.2569,-2.2619,-2.429,-2.4598,0.0,0.0,0.0,0.0,0.0,0.0,0.0,0.0,0.0,0.0,0.0,0.0,0.0,0.0,0.0,-3.1876,-3.5058,-3.775,-3.9116,-4.0785,-4.1621,-4.1113,-4.1426,-4.1543,-4.1211,-4.1172,-4.1172,-4.1172,-4.1172,-4.1172,-4.1172,-4.1172,-4.1172,-4.1172,-4.1094,-4.1055,-4.1055,-4.0976,-4.0918,-4.0918,0.0,0.0,-3.9766,-3.9766,-3.9238,-3.8281,-3.7598,-3.7207,-3.6934,-3.5449,-3.4375,-3.3613,-3.3027,-3.2266,-3.1504,-3.1426,-3.1191,-3.0898,-3.0898,-3.084,-3.0762,-3.0762,-3.0449,-3.0135,-3.0399,-3.1314,0.0,-3.1942,-3.2937,-3.3928,-3.3379,-3.4027,-3.4532,-3.3353,-3.3946,-3.4483,-3.3353,-3.3876,-3.4631,-3.4631,-3.4955,-3.5182,-3.5182,-3.3545,-3.229,-3.2516,-3.1888,-3.1311,-3.111,-3.0809,-3.0909,-3.1662,-3.1637,-3.1411,-3.0959,-3.0572,-2.924,-2.665,-2.5669,-2.5099,-2.4865,-2.4639,-2.4588,-2.4689,-2.4588,-2.4406,-2.4148,-2.4249,-2.4299,-2.4299,-2.3766,-2.3691,0.0,0.0,0.0,0.0,0.0,0.0,0.0,0.0,0.0,0.0,0.0,-2.6651,-2.7956,0.0,-3.2976,-3.5435,-3.8388,-4.0658,-4.1361,-4.2375,-4.2754,-4.1894,-4.1992,-4.2031,-4.1816,-4.1797,-4.1797,-4.1797,-4.1797,-4.1699,-4.1504,-4.1484,-4.1387,-4.1172,-4.1172,-4.1172,-4.1172,-4.1172,-4.1172,-4.1172,-4.1172,-4.0723,-3.9902,-3.9902,-3.9297,-3.8223,-3.7578,-3.7187,-3.6894,-3.5586,-3.4668,-3.4023,-3.3594,-3.291,-3.2109,-3.168,-3.1387,-3.1172,-3.0957,-3.0898,-3.0898,-3.0898,-3.0742,-3.0547,-3.0547,-3.1045,-3.1552,-3.103,-3.1918,-3.2879,-3.2403,-3.2989,-3.3545,-3.2814,-3.3037,-3.3155,-3.2431,-3.2855,-3.3353,-3.3353,-3.3982,-3.4501,-3.4501,-3.3925,-3.337,-3.3093,-3.2817,-3.234,-3.1512,-3.1411,-3.1411,-3.1411,-3.1411,-3.1185,-3.0633,-3.008,-2.9051,-2.7394,-2.6239,-2.5636,-2.5636,-2.5109,-2.48,-2.48,-2.48,-2.48,-2.48,-2.48,-2.48,-2.4775,-2.4199,-2.4098,0.0,0.0,0.0,0.0,0.0,0.0,0.0,-2.4723,-2.509,-2.687,-2.7778,-2.8927,-3.1125,-3.3322,-3.5909,-3.9377,-4.0962,-4.218,-4.3061,-4.3145,-4.2818,-4.1971,-4.2298,-4.248,-4.2324,-4.2383,-4.2422,-4.2422,-4.2344,-4.2148,-4.1816,-4.1719,-4.1523,-4.1191,-4.1172,-4.1172,-4.1172,-4.1172,-4.1172,-4.1172,-4.1172,-4.0762,-4.0019,-4.0019,-3.9336,-3.8144,-3.7559,-3.7012,-3.6484,-3.5703,-3.5117,-3.4668,-3.4336,-3.373,-3.2949,-3.207,-3.1719,-3.1601,-3.125,-3.1074,-3.1016,-3.1016,-3.0957,-3.0898,-3.0898,-3.0898,-3.082,-3.043,-3.103,-3.1746,-3.143,-3.1998,-3.2655,-3.2394,-3.2243,-3.209,-3.1746,-3.1856,-3.2037,-3.1949,-3.2662,-3.3287,-3.3287,-3.3812,-3.416,-3.3934,-3.372,-3.3208,-3.2323,-3.1769,-3.1289,-3.0653,-3.0408,-3.0144,-2.9829,-2.9277,-2.8712,-2.8298,-2.7344,-2.6826,-2.6826,-2.5937,-2.5377,-2.531,-2.531,-2.5234,-2.5134,-2.5134,-2.5134,-2.5134,-2.5134,-2.5084,-1.9986,-2.0438,-2.1101,-2.3173,-2.3079,-2.3894,0.0,-2.9777,-3.015,-3.3169,-3.4503,-3.5227,-3.524,-3.4466,-3.5342,-4.014,-3.7787,-3.67,-4.0665,-4.116,-4.0766,-4.0032,-4.1726,-4.2715,-4.1953,-4.2207,-4.2422,-4.2422,-4.207,-4.1855,-4.1797,-4.1445,-4.123,-4.1172,-4.1172,-4.1172,-4.1172,-4.1172,-4.1172,-4.1172,-4.1172,-4.0918,-4.0449,-4.0449,-3.9941,-3.8984,-3.7812,-3.6836,-3.6055,-3.5586,-3.5117,-3.4687,-3.4648,-3.4336,-3.3828,-3.2969,-3.2422,-3.209,-3.2051,-3.1777,-3.1445,-3.1445,-3.1191,-3.0898,-3.0898,-3.0898,-3.0879,-3.082,-3.0623,-3.0403,-3.0344,-3.105,-3.1446,-3.0249,-3.0826,-3.1258,-2.9613,-3.0265,-3.1021,-3.0599,-3.1578,-3.2442,-3.2442,-3.2497,-3.2901,-3.3742,-3.2959,-3.2301,-3.2214,-3.0351,-2.9389,-3.0468,-2.961,-2.923,-2.9752,-2.9277,-2.8863,-2.8787,-2.8273,-2.7921,-2.7921,-2.7795,-2.7519,-2.7017,-2.7017,-2.6801,-2.6323,-2.6323,-2.6323,-2.6323,-2.6323,-2.6047,-2.2194,-2.3407,-2.4437,-2.4358,-2.5754,-2.758,-2.8878,-3.0292,-3.1848,-3.35,-3.4557,-3.6144,-3.9147,-3.6917,-3.633,-4.1551,-3.9391,-3.7605,-3.9294,-4.0191,-4.0305,-3.9364,-4.126,-4.2656,-4.2558,-4.2695,-4.2812,-4.2812,-4.2637,-4.2324,-4.1836,-4.1641,-4.1426,-4.1172,-4.1172,-4.1172,-4.1172,-4.1172,-4.1172,-4.1172,-4.1172,-4.0937,-4.0527,-4.0527,-3.9902,-3.8789,-3.8008,-3.7324,-3.6758,-3.6582,-3.625,-3.582,-3.5566,-3.5215,-3.4746,-3.3867,-3.3105,-3.2539,-3.2539,-3.2246,-3.1855,-3.1601,-3.1406,-3.1211,-3.0957,-3.0898,-3.0898,-3.0898,-3.0762,-3.0605,-3.0605,-3.071,-3.0634,-3.0091,-3.0175,-3.0214,-2.9502,-2.9774,-3.0071,-2.9574,-3.0778,-3.1706,-3.1219,-3.2017,-3.2655,-3.2534,-3.2063,-3.1643,-3.1388,-3.0194,-2.9578,-2.997,-2.9289,-2.9068,-2.9752,-2.9578,-2.9134,-2.8465,-2.8536,-2.8313,-2.7662,-2.7916,-2.7996,-2.777,-2.777,-2.7645,-2.7419,-2.7419,-2.7278,-2.6977,-2.7304,-2.7118,-2.3528,-2.5192,-2.665,-2.5631,-2.7969,-3.0122,-2.8933,-3.1007,-3.3224,-3.3794,-3.4817,-3.6813,-4.0665,-3.8465,-3.7648,-4.2208,-4.0186,-3.8282,-3.9261,-3.9529,-3.9554,-3.9048,-4.0806,-4.2006,-4.1829,-4.2488,-4.2949,-4.3066,-4.2851,-4.2558,-4.2168,-4.1933,-4.1719,-4.1523,-4.1406,-4.1348,-4.1348,-4.123,-4.1172,-4.1172,-4.1172,-4.1016,-4.0703,-4.0586,-4.0,-3.9082,-3.8398,-3.793,-3.7637,-3.7402,-3.7129,-3.6816,-3.6504,-3.6113,-3.5664,-3.5019,-3.4101,-3.3144,-3.3144,-3.2793,-3.2266,-3.1836,-3.1621,-3.1445,-3.1016,-3.0898,-3.0898,-3.0898,-3.0898,-3.0898,-3.0898,-3.0644,-3.0391,-3.0391,-3.0156,-2.9902,-2.9766,-2.9746,-2.9609,-2.918,-3.0043,-3.0648,-3.0011,-3.0895,-3.1465,-3.0723,-3.0615,-3.065,-3.07,-3.0173,-2.9555,-2.8866,-2.8634,-2.8645,-2.9019,-2.905,-2.8659,-2.7747,-2.8026,-2.8028,-2.7537,-2.7895,-2.8176,-2.8323,-2.8323,-2.81,-2.7656,-2.7656,-2.7434,-2.7063,-2.7458,-2.7616,-2.293,-2.4121,-2.5552,-2.6857,-2.812,-2.944,-3.0782,-3.325,-3.5308,-3.5667,-3.7425,-3.8844,-3.8678,-3.8538,-3.9273,-4.1816,-3.8399,-3.6832,-4.0964,-3.9025,-3.767,-3.8883,-4.0296,-4.0545,-3.8813,-4.0948,-4.2617,-4.3047,-4.2305,-4.2187,-4.2988,-4.2246,-4.1973,-4.2383,-4.1992,-4.1777,-4.1777,-4.1387,-4.1172,-4.1172,-4.1172,-4.1172,-4.1133,-4.0723,-4.0508,-4.0391,-3.9121,-3.8555,-3.8476,-3.7637,-3.7285,-3.7266,-3.7266,-3.6992,-3.6641,-3.6601,-3.5508,-3.4023,-3.4023,-3.3476,-3.2715,-3.2285,-3.1855,-3.1445,-3.1016,-3.0898,-3.0898,-3.0898,-3.0898,-3.0898,-3.0898,-3.0879,-3.0859,-3.0859,-3.0859,-3.0723,-3.0273,-3.0176,-3.0059,-2.9629,-2.9274,-2.898,-2.8961,-2.8682,-2.8461,-2.8368,-2.8422,-2.8978,-3.0502,-2.9836,-2.8622,-2.6953,-2.7346,-2.7563,-2.72,-2.7178,-2.7018,-2.6588,-2.6543,-2.7012,-2.802,-2.81,-2.8334,-2.8888,-2.8863,-2.81,-2.6548,-2.6548,-2.6524,-2.6524,-2.6524,-2.7112,-2.4135,-2.5642,-2.7225,-2.8686,-2.9923,-3.0969,-3.165,-3.3832,-3.5503,-3.4965,-3.5303,-3.6142,-3.7648,-3.6144,-3.578,-3.9164,-3.6993,-3.5929,-3.9104,-3.7285,-3.5906,-3.6694,-3.7404,-3.7141,-3.568,-3.9207,-4.1185,-4.0105,-4.1388,-4.2344,-4.2637,-4.2637,-4.2578,-4.2441,-4.2285,-4.1953,-4.1387,-4.125,-4.1172,-4.1172,-4.1172,-4.1172,-4.1152,-4.0723,-4.0527,-4.0488,-3.9766,-3.9277,-3.8965,-3.8672,-3.8398,-3.8125,-3.7832,-3.7637,-3.7441,-3.6875,-3.6113,-3.5273,-3.4687,-3.4121,-3.3476,-3.25,-3.207,-3.1816,-3.1113,-3.0898,-3.0898,-3.0898,-3.0898,-3.0898,-3.0898,-3.0898,-3.0898,-3.0898,-3.0898,-3.0859,-3.0684,-3.0664,-3.0527,-3.0078,-3.0117,-3.0039,-2.9453,-2.9238,-2.8945,-2.8379,-2.8301,-2.8384,-2.8645,-2.8134,-2.7577,-2.7196,-2.7091,-2.7144,-2.7456,-2.7498,-2.6996,-2.5851,-2.649,-2.6588,-2.5964,-2.6625,-2.7128,-2.7289,-2.7329,-2.7035,-2.6514,-2.6514,-2.6291,-2.5932,-2.6314,-2.6885,-2.5752,-2.735,-2.8897,-3.0217,-3.1343,-3.2131,-3.2104,-3.331,-3.419,-3.3009,-3.2511,-3.2671,-3.4227,-3.3146,-3.3088,-3.661,-3.5169,-3.4829,-3.8308,-3.6153,-3.4736,-3.6008,-3.5916,-3.5171,-3.3651,-3.7694,-3.986,-3.8554,-4.1062,-4.2734,-4.2871,-4.3144,-4.3242,-4.3125,-4.2676,-4.2168,-4.1621,-4.1328,-4.1172,-4.1172,-4.1172,-4.1172,-4.1172,-4.0879,-4.0762,-4.0723,-4.0312,-3.9863,-3.9434,-3.9277,-3.8965,-3.8555,-3.8262,-3.8164,-3.8047,-3.7207,-3.6719,-3.6309,-3.5117,-3.4434,-3.3887,-3.2754,-3.2383,-3.2266,-3.1562,-3.1348,-3.1309,-3.1152,-3.1113,-3.1074,-3.0937,-3.0898,-3.0898,-3.0898,-3.0898,-3.0898,-3.0898,-3.0898,-3.0801,-3.0508,-3.0547,-3.0469,-2.9883,-2.9724,-2.9375,-2.8828,-2.8613,-2.832,-2.7787,-2.7422,-2.7219,-2.7041,-2.6771,-2.6671,-2.6783,-2.6764,-2.6259,-2.5129,-2.5585,-2.5657,-2.506,-2.5591,-2.6088,-2.6483,-2.6524,-2.6318,-2.588,-2.588,-2.5686,-2.5338,-2.5686,-2.6281,-2.7648,-2.9199,-3.0402,-3.1477,-3.2358,-3.2826,-3.2211,-3.2038,-3.157,-3.01,-2.9319,-2.8908,-2.8815,-2.9744,-3.1478,-3.4246,-3.3226,-3.3762,-3.8614,-3.5633,-3.3914,-3.6658,-3.5864,-3.4514,-3.2947,-3.6408,-3.8722,-3.8653,-4.1404,-4.332,-4.3789,-4.3808,-4.3984,-4.4394,-4.3183,-4.248,-4.2402,-4.1503,-4.1016,-4.1016,-4.1016,-4.1094,-4.1172,-4.1172,-4.1172,-4.1152,-4.0742,-4.0312,-3.9902,-3.9453,-3.9004,-3.8613,-3.8613,-3.8594,-3.8476,-3.7617,-3.7305,-3.7051,-3.5332,-3.4473,-3.4004,-3.3105,-3.2832,-3.2734,-3.2305,-3.2229,-3.209,-3.166,-3.1562,-3.1465,-3.1055,-3.0937,-3.0918,-3.0918,-3.0898,-3.0898,-3.0898,-3.0898,-3.0898,-3.0898,-3.0527,-3.0234,-3.0195,-2.9863,-2.9646,-2.9551,-2.918,-2.8633,-2.7885,-2.7748,-2.7395,-2.6543,-2.6445,-2.6074,-2.5262,-2.5184,-2.4941,-2.4473,-2.4082,-2.4302,-2.5282,-2.4931,-2.5231,-2.6318,-2.6318,-2.5797,-2.4702,-2.4702,-2.4702,-2.4702,-2.4702,-2.5336,-2.8775,-3.0298,-3.1718,-3.2438,-3.2812,-3.2772,-3.1957,-3.1102,-3.015,-2.892,-2.7703,-2.6951,-2.7305,-2.8716,-3.081,-3.3419,-3.3638,-3.496,-3.9158,-3.5986,-3.3908,-3.5592,-3.4042,-3.3257,-3.4142,-3.6861,-3.927,-4.0813,-4.2569,-4.4023,-4.5117,-4.5176,-4.4941,-4.4414,-4.4082,-4.3281,-4.1973,-3.9794,-3.8724,-3.8724,-3.8724,-3.961,-4.1172,-4.1172,-4.1172,-4.1172,-4.1055,-4.0762,-4.0351,-4.0234,-3.9746,-3.9043,-3.9043,-3.8848,-3.8476,-3.7617,-3.7305,-3.709,-3.5703,-3.5137,-3.4863,-3.3652,-3.3262,-3.3125,-3.2383,-3.2229,-3.2209,-3.2031,-3.2012,-3.1973,-3.1875,-3.1601,-3.1367,-3.1367,-3.1113,-3.0898,-3.0898,-3.0898,-3.0898,-3.0898,-3.0801,-3.0605,-3.0254,-3.0098,-2.9824,-2.918,-2.8984,-2.8848,-2.8633,-2.8047,-2.763,-2.7415,-2.7051,-2.6641,-2.6094,-2.6055,-2.5723,-2.4941,-2.4851,-2.4592,-2.4192,-2.4098,-2.4031,-2.3973,-2.3973,-2.38,-2.3541,-2.3541,-2.3541,-2.3541,-2.3541,-2.4125,-3.0434,-3.1637,-3.2625,-3.3227,-3.2986,-3.2265,-3.081,-2.9793,-2.8672,-2.6865,-2.6095,-2.5834,-2.5991,-2.6892,-2.8462,-3.1308,-3.1473,-3.2661,-3.6406,-3.4388,-3.2969,-3.4017,-3.2914,-3.2463,-3.3414,-3.5806,-3.7879,-3.9549,-4.2008,-4.3582,-4.4027,-4.3213,-4.2324,-4.1609,-4.116,-4.0268,-3.8831,-3.7372,-3.6598,-3.6522,-3.6522,-3.7179,-3.831,-3.831,-3.831,-3.831,-3.831,-3.8092,-3.7691,-3.8473,-3.8424,-3.7877,-3.8615,-3.8789,-3.8496,-3.7812,-3.7461,-3.7168,-3.6269,-3.582,-3.5488,-3.4355,-3.3867,-3.3613,-3.3144,-3.2871,-3.2676,-3.25,-3.2441,-3.2402,-3.2268,-3.1992,-3.1758,-3.1562,-3.1328,-3.1113,-3.0937,-3.0898,-3.0898,-3.0898,-3.0898,-3.082,-3.0547,-3.0508,-3.0332,-2.9863,-2.9453,-2.9199,-2.9199,-2.8476,-2.7924,-2.7728,-2.7441,-2.7129,-2.6699,-2.666,-2.6367,-2.5684,-2.5469,-2.5059,-2.4375,-2.416,-2.3867,-2.3437,-2.3418,-2.332,-2.3101,-2.3101,-2.3101,-2.3101,-2.3101,-2.343,-3.2278,-3.2906,-3.3227,-3.3761,-3.2959,-3.1489,-2.9449,-2.8475,-2.7215,-2.463,-2.4563,-2.5037,-2.5048,-2.4933,-2.5913,-2.8958,-2.8698,-2.9226,-3.2639,-3.2222,-3.1813,-3.2629,-3.2438,-3.2361,-3.2748,-3.4612,-3.625,-3.7399,-4.0474,-4.2185,-4.1782,-3.9909,-3.8638,-3.8003,-3.7052,-3.6011,-3.4848,-3.4734,-3.4522,-3.4246,-3.4246,-3.4408,-3.4732,-3.4732,-3.4732,-3.4732,-3.4732,-3.4631,-3.4635,-3.5826,-3.6421,-3.6728,-3.7985,-3.853,-3.8613,-3.8164,-3.7734,-3.7324,-3.6894,-3.6465,-3.5957,-3.5,-3.4492,-3.4219,-3.4043,-3.3769,-3.3418,-3.2988,-3.2871,-3.2793,-3.2422,-3.2285,-3.2148,-3.1699,-3.1562,-3.1406,-3.0976,-3.0898,-3.0918,-3.0957,-3.0937,-3.0898,-3.0898,-3.0898,-3.0859,-3.082,-3.0137,-2.9629,-2.9626,-2.8828,-2.8144,-2.7845,-2.7806,-2.7578,-2.7129,-2.7109,-2.6914,-2.6504,-2.6055,-2.5625,-2.5223,-2.4727,-2.4297,-2.3887,-2.3867,-2.3691,-2.3257,-2.3257,-2.3257,-2.3257,-2.3257,-2.3237,-3.3374,-3.3694,-3.3761,-3.3855,-3.2812,-3.1182,-2.9057,-2.7615,-2.618,-2.3906,-2.3652,-2.3975,-2.4554,-2.4948,-2.6139,-2.8848,-2.9063,-2.9879,-3.2651,-3.2619,-3.2589,-3.3187,-3.3213,-3.4053,-3.6163,-3.675,-3.7934,-4.0271,-3.9113,-3.8926,-4.0376,-3.9739,-3.9001,-3.8276,-3.7184,-3.5569,-3.3309,-3.2662,-3.2206,-3.197,-3.197,-3.294,-3.4732,-3.4732,-3.4732,-3.4732,-3.4732,0.0,-3.7135,-3.5629,-3.6895,-3.9567,-3.8072,-3.816,-3.9043,-3.8613,-3.8184,-3.7754,-3.7344,-3.6914,-3.6348,-3.5098,-3.4902,-3.4961,-3.3867,-3.373,-3.3867,-3.3437,-3.332,-3.3301,-3.3223,-3.2949,-3.2578,-3.2148,-3.1777,-3.1406,-3.0976,-3.0898,-3.0996,-3.1348,-3.1133,-3.0898,-3.0898,-3.0898,-3.0762,-3.0371,-3.0176,-2.9961,-2.9609,-2.8828,-2.8262,-2.8184,-2.8184,-2.8008,-2.7578,-2.7559,-2.7363,-2.6934,-2.6504,-2.6074,-2.5596,-2.5195,-2.4746,-2.4316,-2.4316,-2.4277,-2.4153,-2.4153,-2.4153,-2.4153,-2.4153,-2.4004,-3.4148,-3.4122,-3.3921,-3.4068,-3.2532,-3.0396,-2.8122,-2.652,-2.4929,-2.2619,-2.2593,-2.3113,-2.3486,-2.4331,-2.5638,-2.7395,-2.7679,-2.8805,-3.1786,-3.1652,-3.173,-3.3227,-3.3414,-3.39,-3.5153,-3.5253,-3.5833,-3.7085,-3.603,-3.6134,-3.8024,-3.623,-3.5063,-3.4822,-3.405,-3.2865,-3.1342,-3.0944,-3.0479,-2.9944,-2.9944,-3.0432,-3.1324,-3.1324,-3.1324,-3.1324,-3.1324,-3.1887,-3.2858,-3.2752,-3.379,-3.5457,-3.5347,-3.6296,-3.7783,-3.739,-3.7642,-3.8059,-3.6569,-3.5646,-3.5078,-3.4115,-3.4547,-3.5273,-3.4648,-3.4414,-3.4355,-3.4141,-3.4082,-3.4082,-3.4082,-3.3769,-3.3359,-3.293,-3.2324,-3.1797,-3.1601,-3.1562,-3.1621,-3.1816,-3.1504,-3.1211,-3.1211,-3.1035,-3.082,-3.0586,-3.0351,-3.0117,-2.9922,-2.9355,-2.8965,-2.8965,-2.8555,-2.8301,-2.832,-2.8125,-2.7812,-2.7383,-2.7168,-2.6855,-2.6426,-2.6191,-2.5781,-2.507,-2.505,-2.4836,-2.4414,-2.4414,-2.4414,-2.4414,-2.4414,-2.4316,-3.4536,-3.4429,-3.4108,-3.4282,-3.2372,-2.9797,-2.7346,-2.5678,-2.389,-2.1472,-2.1742,-2.2426,-2.2497,-2.3581,-2.4792,-2.5977,-2.6301,-2.7565,-3.0867,-3.0573,-3.0928,-3.3053,-3.3374,-3.3414,-3.3414,-3.3414,-3.3414,-3.3414,-3.336,-3.3957,-3.5491,-3.2924,-3.149,-3.1664,-3.1156,-3.0608,-3.002,-2.9953,-2.9513,-2.8698,-2.8631,-2.8484,-2.8243,-2.8261,-2.8221,-2.8221,-2.8221,-2.8473,-2.8937,-2.9835,-3.0773,-3.1721,-3.265,-3.4183,-3.5899,-3.5599,-3.6267,-3.6995,-3.508,-3.3923,-3.3286,-3.2826,-3.367,-3.4999,-3.5159,-3.5059,-3.4824,-3.4726,-3.4707,-3.4641,-3.4228,-3.4115,-3.3945,-3.3418,-3.2715,-3.2187,-3.2285,-3.2226,-3.2268,-3.2285,-3.1953,-3.166,-3.166,-3.1387,-3.1133,-3.1035,-3.0723,-3.0449,-3.0351,-2.998,-2.9746,-2.99,-2.9082,-2.8672,-2.8906,-2.8613,-2.8242,-2.7832,-2.7767,-2.7519,-2.7168,-2.707,-2.6699,-2.5966,-2.5869,-2.5527,-2.4844,-2.4746,-2.4707,-2.4707,-2.4707,-2.4648,-3.4309,-3.4723,-3.4629,-3.4376,-3.2519,-3.005,-2.7385,-2.5447,-2.355,-2.1149,-2.1199,-2.1787,-2.2098,-2.2707,-2.3868,-2.5838,-2.6243,-2.7333,-3.0526,-3.0899,-3.1353,-3.2897,-3.3253,-3.3414,-3.3414,-3.3414,-3.3414,-3.3414,-3.316,-3.2978,-3.2935,-3.2404,-3.1917,-3.1677,-3.1356,-3.0902,-3.0327,-3.0047,-2.9606,-2.8991,-2.8738,-2.8591,-2.8551,-2.827,-2.8221,-2.8221,-2.8221,-2.9286,0.0,-2.9174,-3.0798,-3.4197,-3.2304,-3.255,-3.3892,-3.3859,-3.3486,-3.3037,-3.2759,-3.2417,-3.1944,-3.1636,-3.2416,-3.3541,-3.4517,-3.5019,-3.5234,-3.4824,-3.4707,-3.4293,-3.26,-3.3115,-3.3867,-3.3047,-3.25,-3.2266,-3.2656,-3.2441,-3.2285,-3.2656,-3.2402,-3.2109,-3.2109,-3.207,-3.1914,-3.1523,-3.1426,-3.1269,-3.0879,-3.043,-3.0293,-3.0723,-2.998,-2.9297,-2.8945,-2.8887,-2.8672,-2.8262,-2.7871,-2.7708,-2.7669,-2.7226,-2.6973,-2.6894,-2.6523,-2.6289,-2.6211,-2.582,-2.5577,-2.5577,-2.5577,-2.5391,-3.386,-3.4496,-3.4469,-3.4349,-3.1686,-2.8723,-2.7188,-2.4602,-2.2138,-2.0876,-2.0666,-2.0895,-2.1638,-2.2124,-2.2979,-2.465,-2.4595,-2.5363,-2.8179,-2.8058,-2.872,-3.1397,-3.2078,-3.2639,-3.3347,-3.3587,-3.3614,-3.3427,-3.3307,-3.3106,-3.2826,-3.2358,-3.2051,-3.1931,-3.1476,-3.1036,-3.0621,-3.0327,-2.9887,-2.9299,-2.9005,-2.8778,-2.8591,-2.8283,-2.8221,-2.8221,-2.8221,-2.8712,0.0,-2.8544,-2.9202,-3.0676,-2.9857,-3.0563,-3.1962,-3.168,-3.2155,-3.2632,-3.1117,-3.0451,-3.0064,-2.9924,-3.0071,-3.0782,-3.3074,-3.3923,-3.4035,-3.3848,-3.2957,-3.191,-3.115,-3.2037,-3.2925,-3.2042,-3.2575,-3.3281,-3.3184,-3.3047,-3.2969,-3.3144,-3.2832,-3.2539,-3.2539,-3.2344,-3.2012,-3.1582,-3.1523,-3.1367,-3.0937,-3.0723,-3.0684,-3.0879,-3.0098,-2.9609,-2.9687,-2.9453,-2.9121,-2.8691,-2.8516,-2.8301,-2.8047,-2.7871,-2.7676,-2.7422,-2.7246,-2.7031,-2.6758,-2.6582,-2.6504,-2.6504,-2.6504,-2.6406,-3.2621,-3.3721,-3.4148,-3.3975,-3.1181,-2.8182,-2.6803,-2.3961,-2.1347,-2.0618,-2.017,-2.0221,-2.0982,-2.1525,-2.2217,-2.3448,-2.3543,-2.433,-2.662,-2.6592,-2.7321,-2.999,-3.0795,-3.161,-3.2786,-3.3414,-3.3654,-3.3427,-3.3414,-3.328,-3.2986,-3.2505,-3.2198,-3.2104,-3.153,-3.1089,-3.0795,-3.0501,-3.006,-2.9486,-2.9179,-2.8885,-2.8591,-2.8283,-2.8221,-2.8221,-2.8221,-2.8221,0.0,-2.8221,-2.8221,-2.8221,-2.8221,-2.8938,-3.0001,-2.9621,-3.0221,-3.098,-2.9203,-2.8458,-2.8183,-2.8019,-2.8212,-2.8941,-3.0993,-3.2051,-3.2456,-3.2333,-3.0963,-2.9583,-3.0036,-3.0871,-3.1645,-3.1461,-3.2347,-3.3192,-3.2886,-3.2362,-3.1984,-3.1873,-3.1705,-3.1556,-3.1444,-3.1183,-3.0866,-3.0376,-3.032,-3.0316,-3.0287,-3.0329,-3.0467,-3.084,-3.0332,-3.0019,-3.0176,-2.9922,-2.957,-2.9141,-2.9121,-2.8984,-2.8691,-2.8672,-2.8476,-2.8047,-2.791,-2.7637,-2.7207,-2.709,-2.7012,-2.7012,-2.7012,-2.6953,-3.017,-3.2332,-3.3748,-3.3146,-3.1223,-2.8851,-2.6477,-2.3831,-2.1522,-2.0335,-1.9839,-1.9711,-2.0043,-2.089,-2.1753,-2.2378,-2.3598,-2.4915,-2.632,-2.7323,-2.8194,-2.8971,-2.9579,-3.0394,-3.157,-3.2732,-3.3414,-3.3414,-3.3414,-3.328,-3.2986,-3.2706,-3.2412,-3.2118,-3.153,-3.1089,-3.0795,-3.0501,-3.006,-2.9486,-2.9179,-2.8885,-2.8591,-2.8283,-2.8221,-2.8221,-2.8221,-2.8221,0.0,-2.8221,-2.8221,-2.8221,-2.8221,-2.8047,-2.7696,-2.7696,-2.7321,-2.6894,-2.6814,-2.6627,-2.6412,-2.613,-2.7312,-2.8684,-2.8104,-2.9273,-3.0772,-3.0409,-2.8972,-2.7848,-2.932,-2.9712,-3.0098,-3.1531,-3.1673,-3.145,-3.1384,-2.9978,-2.8593,-2.8312,-2.8444,-2.8576,-2.8296,-2.8229,-2.8097,-2.7603,-2.7554,-2.7865,-2.8806,-2.8882,-2.942,-3.0742,-3.0879,-3.0703,-3.0234,-3.0195,-3.0,-2.959,-2.957,-2.957,-2.9607,-2.9607,-2.9355,-2.8906,-2.8496,-2.8086,-2.7708,-2.7226,-2.7012,-2.7012,-2.7012,-2.6797,-2.7089,-2.8393,-2.8921,-2.8625,-2.6672,-2.4635,-2.3702,-2.1824,-2.0201,-1.985,-1.952,-1.9456,-1.9979,-2.0694,-2.1567,-2.2727,-2.3543,-2.4343,-2.5288,-2.6316,-2.7416,-2.8636,-3.0849,-3.2532,-3.3133,-3.332,-3.3414,-3.3414,-3.3414,-3.328,-3.2986,-3.2706,-3.2412,-3.2118,-3.1343,-3.0889,-3.0795,-3.0301,-2.9967,-2.9766,-2.9272,-2.8991,-2.8885,-2.8377,-2.8221,-2.8221,-2.8221,-2.8221,-2.8221,-2.8221,-2.8221,-2.8221,-2.8221,-2.7963,-2.7696,-2.7696,-2.7321,-2.6827,-2.6827,-2.6627,-2.6373,-2.6279,-2.6711,-2.7098,-2.6696,-2.7609,-2.8542,-2.7129,-2.6471,-2.6196,-2.6467,-2.7524,-2.8444,-2.842,-2.9379,-3.0122,-2.98,-2.9275,-2.8834,-2.8787,-2.8656,-2.8607,-2.8738,-2.8427,-2.813,-2.7884,-2.7654,-2.7518,-2.7541,-2.7554,-2.769,-2.8147,-2.8191,-2.8864,-3.0548,-3.0664,-3.0488,-3.0019,-3.0,-2.9863,-2.9646,-2.9626,-2.9512,-2.9375,-2.9238,-2.9156,-2.9019,-2.8535,-2.8164,-2.7891,-2.7891,-2.7656,-2.4149,-2.5518,-2.6066,-2.5779,-2.4285,-2.2594,-2.1923,-2.0672,-1.9522,-1.9197,-1.913,-1.9176,-1.9523,-2.0358,-2.1262,-2.2178,-2.3188,-2.4078,-2.4575,-2.5882,-2.7432,-2.9119,-3.133,-3.2879,-3.3187,-3.3334,-3.3414,-3.3414,-3.3414,-3.3334,-3.3146,-3.2759,-3.2465,-3.2278,-3.1316,-3.0795,-3.0795,-3.0207,-2.986,-2.9753,-2.9272,-2.8978,-2.8858,-2.8364,-2.8221,-2.8221,-2.8221,-2.8221,0.0,-2.8221,-2.8221,-2.8221,-2.8221,-2.8114,-2.7869,-2.7869,-2.7562,-2.7148,-2.7148,-2.6961,-2.6707,-2.6587,-2.64,-2.6186,-2.609,-2.644,-2.6776,-2.5615,-2.5371,-2.5464,-2.5291,-2.6542,-2.7806,-2.7316,-2.7931,-2.8599,-2.8307,-2.7718,-2.7129,-2.7076,-2.6985,-2.6954,-2.7046,-2.6779,-2.6503,-2.6435,-2.6267,-2.6162,-2.6273,-2.6275,-2.6423,-2.6869,-2.69,-2.7599,-2.9252,-2.9867,-3.0254,-3.0431,-2.9853,-2.943,-2.9165,-2.8572,-2.844,-2.8937,-2.8937,-2.9144,-2.9626,-2.9141,-2.8497,-2.7685,-2.7533,-2.7229,0.0,-2.3228,-2.4444,-2.4237,-2.3314,-2.2211,-2.1069,-2.012,0.0,-1.8482,-1.871,-1.9051,-1.8833,-2.0011,-2.1091,-2.113,-2.2711,-2.3963,-2.4227,-2.6148,-2.8286,-3.0181,-3.1249,-3.1877,-3.2078,-3.2893,-3.3414,-3.3414,-3.3387,-3.3374,-3.3347,-3.2826,-3.2603,-3.2576,-3.1383,-3.0795,-3.0795,-3.0207,-2.978,-2.9513,-2.9219,-2.8911,-2.8631,-2.8323,-2.8248,0.0,-2.8221,-2.8221,-2.8221,-2.8221,-2.8221,-2.8221,-2.8221,-2.8221,-2.8221,-2.8221,-2.7949,-2.7696,-2.7696,-2.7509,-2.7215,-2.6921,-2.6453,-2.6012,-2.5999,-2.5785,-2.5545,-2.5545,-2.5558,-2.5558,-2.5518,-2.665,-2.7748,-2.7703,-2.7303,-2.6873,-2.6873,-2.5538,-2.4182,-2.3915,-2.4048,-2.4128,-2.3875,-2.3794,-2.3781,-2.3794,-2.3781,-2.4118,-2.5072,-2.5172,-2.5523,-2.6552,-2.6632,-2.6663,-2.6791,-2.7978,-2.924,-3.0527,-2.9116,-2.823,-2.823,-2.6772,-2.6559,-2.7651,-2.7651,-2.8208,-2.931,-2.8868,-2.79,-2.6529,-2.6188,-2.5793,-1.8435,0.0,-1.9902,-1.9625,-1.9462,-1.93,0.0,-1.8828,-1.8927,-1.864,-1.8937,-1.9247,-1.9604,-2.0653,-2.1606,-2.2389,-2.322,-2.4076,-2.4829,-2.7284,-2.9486,-3.0675,-3.2138,-3.2674,-3.1689,-3.2709,-3.3414,-3.3414,-3.32,-3.2986,-3.2759,-3.2398,-3.2104,-3.1877,-3.1169,-3.0795,-3.0795,-3.0207,-2.9887,-2.9806,-2.9513,-2.9232,-2.8925,-2.8631,-2.8364,-2.8221,-2.8221,-2.8221,-2.8221,-2.8221,-2.8221,-2.8221,-2.8221,-2.8221,-2.8221,-2.8221,-2.7949,-2.7696,-2.7696,-2.7509,-2.7215,-2.6921,-2.6734,-2.6573,-2.636,-2.6079,-2.5852,-2.5852,-2.6012,-2.6079,-2.5625,-2.6008,-2.6301,-2.5848,-2.5793,-2.5848,-2.5848,-2.531,-2.485,-2.4783,-2.4462,-2.4249,-2.4409,-2.4062,-2.3848,-2.4075,-2.3915,-2.3856,-2.4131,-2.3899,-2.3928,-2.4497,-2.4144,-2.4372,-2.5559,-2.6486,-2.7097,-2.7442,-2.6925,-2.6591,-2.6591,-2.6227,-2.6117,-2.6395,-2.6395,-2.6389,-2.631,-2.6224,-2.5724,-2.4895,-2.4966,-2.5319,-1.742,-1.7862,-1.8152,-1.8005,-1.8079,-1.8117,-1.7937,-1.8167,-1.8386,-1.8349,-1.8815,-1.9299,-1.972,-2.0604,-2.1568,-2.2548,-2.331,-2.4302,-2.5838,-2.7469,-2.9141,-3.0972,-3.1939,-3.2458,-3.2524,-3.3027,-3.3414,-3.3414,-3.3267,-3.3053,-3.2759,-3.2465,-3.2171,-3.1877,-3.1169,-3.0795,-3.0795,-3.0207,-2.9913,-2.9913,-2.9486,-2.9192,-2.9032,-2.8591,-2.831,-2.8221,-2.8221,-2.8221,-2.8221,-2.8221,-2.8221,-2.8221,-2.8221,-2.8221,-2.8221,-2.8221,-2.8127,-2.7896,-2.7896,-2.7709,-2.7442,-2.7281,-2.7134,-2.6974,-2.668,-2.648,-2.6319,-2.6186,-2.6266,-2.6319,-2.5999,-2.5932,-2.5956,-2.5558,-2.5491,-2.5518,-2.5518,-2.5291,-2.5077,-2.5077,-2.4716,-2.4502,-2.4783,-2.4583,-2.4462,-2.4756,-2.4556,-2.4329,-2.4182,-2.3915,-2.3741,-2.3768,-2.3474,-2.3637,-2.4299,-2.465,-2.5273,-2.6359,-2.5445,-2.4901,-2.4901,-2.4163,-2.4101,-2.4901,-2.5619,-2.5885,-2.5627,-2.5403,-2.4768,-2.3767,-2.374,-2.3943,-1.735,-1.7913,-1.824,-1.7877,-1.7817,-1.7793,-1.7769,-1.7721,-1.7769,-1.7925,-1.8668,-1.9399,-1.9774,-2.0578,-2.1554,-2.2392,-2.3417,-2.4993,-2.7263,-2.7771,-2.8783,-3.1181,-3.1644,-3.2162,-3.3433,-3.3494,-3.3414,-3.3414,-3.3334,-3.3173,-3.2919,-3.2599,-3.2278,-3.1971,-3.1209,-3.0768,-3.0728,-3.014,-2.9847,-2.9847,-2.9299,-2.9018,-2.8951,-2.8444,-2.8274,-2.8221,-2.8221,0.0,-2.8221,-2.8221,-2.8221,-2.8221,-2.8221,-2.8221,-2.8221,-2.8221,-2.8221,-2.8221,-2.8221,-2.7976,-2.7762,-2.7709,-2.7535,-2.7281,-2.6974,-2.6854,-2.6774,-2.6533,-2.6426,-2.6373,-2.6333,-2.6172,-2.609,-2.605,-2.5798,-2.5651,-2.5651,-2.5411,-2.5211,-2.5211,-2.497,-2.485,-2.5104,-2.5144,-2.5224,-2.5478,-2.5304,-2.505,-2.4796,-2.4476,-2.4195,-2.3995,-2.3848,-2.3661,-2.342,-2.3073,-2.3694,-2.5676,-2.4265,-2.3348,-2.3348,-2.1991,-2.19,-2.3289,-2.461,-2.5301,-2.5253,-2.4827,-2.4005,-2.2715,-2.2434,-2.2333,-1.7506,-1.8975,-1.9616,-1.7649,-1.7276,-1.7352,-1.7173,-1.7124,-1.7274,-1.8057,-1.895,-1.9799,-2.0651,-2.1755,-2.261,-2.2917,-2.4553,-2.678,-2.9531,-3.0278,-3.0769,-3.1338,-3.2366,-3.2802,-3.1854,-3.2716,-3.3414,-3.3414,-3.2959,-3.2652,-3.2612,-3.2104,-3.1664,-3.137,-3.0996,-3.0675,-3.0434,-2.9847,-2.9553,-2.9539,-2.9205,-2.8911,-2.8671,-2.8577,-2.839,-2.8221,0.0,-2.8221,-2.8221,-2.8221,-2.8221,-2.8221,-2.8221,-2.8221,-2.8221,-2.8221,-2.8221,-2.8221,-2.8221,-2.8194,-2.8114,-2.7776,-2.7669,-2.7575,-2.7281,-2.7028,-2.6814,-2.6774,-2.6587,-2.6333,-2.6092,-2.6172,-2.6266,-2.6012,-2.6106,-2.6253,-2.6253,-2.6026,-2.5825,-2.5825,-2.5585,-2.5398,-2.5438,-2.5451,-2.5464,-2.5504,-2.5478,-2.5424,-2.5384,-2.4903,-2.4649,-2.4863,-2.4209,-2.3754,-2.3714,-2.318,-2.2957,-2.3018,-2.2517,-2.2236,-2.2236,-2.1975,-2.1867,-2.1933,-2.2176,-2.2165,-2.1839,-2.1797,-2.152,-2.1039,-2.1243,-2.1732,-1.6615,-1.7801,-1.839,-1.6951,-1.7466,-1.8017,-1.6504,-1.5992,-1.6237,-1.7456,-1.8336,-1.9425,-2.1214,-2.2608,-2.3975,-2.5581,-2.683,-2.8082,-2.9581,-2.9926,-3.0277,-3.1103,-3.1886,-3.2287,-3.2292,-3.2847,-3.3106,-3.2959,-3.2692,-3.2478,-3.2318,-3.1904,-3.153,-3.1236,-3.0795,-3.0488,-3.0354,-2.978,-2.9486,-2.9486,-2.9018,-2.8738,-2.8604,-2.843,-2.8283,-2.8221,0.0,-2.8221,-2.8221,-2.8221,-2.8221,-2.8221,-2.8221,-2.8221,-2.8221,-2.8221,-2.8221,-2.8221,-2.8221,-2.8221,-2.8207,-2.7989,-2.7936,-2.7883,-2.7589,-2.7402,-2.7268,-2.7108,-2.6734,-2.636,-2.6226,-2.6293,-2.636,-2.6226,-2.6293,-2.6386,-2.6386,-2.6159,-2.6037,-2.6037,-2.5718,-2.5558,-2.5718,-2.5758,-2.5812,-2.5959,-2.5852,-2.5758,-2.5758,-2.5371,-2.5157,-2.5304,-2.481,-2.4409,-2.4249,-2.3834,-2.3193,-2.2245,-2.2058,-2.1991,-2.1991,-2.1991,-2.1924,-2.179,-2.1695,-2.1547,-2.1349,-2.1349,-2.1189,-2.0922,-2.1216,-2.1488,-1.5466,-1.6578,-1.7023,-1.5942,-1.7161,-1.8008,-1.5966,-1.5332,-1.5589,-1.6903,-1.8091,-1.9475,-2.1256,-2.3079,-2.5231,-2.7835,-2.8715,-2.9324,-3.0004,-3.003,-3.0379,-3.1395,-3.1697,-3.2208,-3.304,-3.3013,-3.2879,-3.2666,-3.2452,-3.2238,-3.2011,-3.1664,-3.133,-3.1036,-3.0595,-3.0327,-3.0261,-2.974,-2.9446,-2.9379,-2.8858,-2.8564,-2.8484,-2.8243,-2.8221,-2.8221,-2.8221,-2.8221,-2.8221,-2.8221,-2.8221,-2.8221,-2.8221,-2.8221,-2.8221,-2.8221,-2.8221,-2.8221,-2.8221,-2.8221,-2.8221,-2.8221,-2.8221,-2.8181,-2.7869,-2.7749,-2.7655,-2.7428,-2.7001,-2.66,-2.66,-2.6547,-2.6493,-2.6493,-2.644,-2.6386,-2.6386,-2.6213,-2.6052,-2.6052,-2.5879,-2.5785,-2.6012,-2.6052,-2.6132,-2.636,-2.6199,-2.6052,-2.6052,-2.5798,-2.5611,-2.5611,-2.5358,-2.5037,-2.4663,-2.4369,-2.3688,-2.2485,-2.2338,-2.2298,-2.2298,-2.2231,-2.2151,-2.2084,-2.1871,-2.1789,-2.1722,-2.1722,-2.151,-2.1216,-2.1507,-2.139,-1.469,-1.6286,-1.7026,-1.4718,-1.5252,-1.6241,-1.597,-1.5863,-1.6095,-1.6879,-1.9014,-2.07,-2.0386,-2.3146,-2.6126,-2.8034,-2.9311,-3.061,-3.2101,-3.2612,-3.2807,-3.314,-3.3207,-3.3334,-3.3374,-3.3133,-3.2973,-3.2946,-3.2198,-3.1717,-3.1704,-3.1169,-3.0715,-3.0434,-3.0381,-3.0221,-2.9953,-2.9633,-2.9352,-2.9072,-2.8751,-2.8457,-2.8261,-2.8234,-2.8221,-2.8221,-2.8221,-2.8221,-2.8221,-2.8221,-2.8221,-2.8221,-2.8221,-2.8221,-2.8221,-2.8221,-2.8221,-2.8221,-2.8221,-2.8221,-2.8221,-2.8221,-2.8221,-2.8221,-2.8207,-2.7923,-2.7696,-2.7669,-2.7442,-2.7201,-2.7201,-2.7001,-2.6787,-2.6787,-2.6587,-2.6386,-2.6386,-2.6373,-2.636,-2.636,-2.6346,-2.6333,-2.636,-2.636,-2.636,-2.6386,-2.6373,-2.636,-2.636,-2.6106,-2.5919,-2.5919,-2.5651,-2.5251,-2.469,-2.4369,-2.4048,-2.3661,-2.338,-2.3233,-2.3233,-2.2953,-2.2672,-2.2392,-2.2365,-2.2218,-2.1951,-2.1951,-2.1804,-2.1588,-2.1601,-2.139,-1.3226,-1.4391,-1.5001,-1.443,-1.4736,-1.5191,-1.4657,-1.4677,-1.5369,-1.7052,-1.9418,-2.1916,-2.4125,-2.644,-2.8239,-2.8951,-3.0542,-3.2008,-3.2732,-3.3066,-3.3293,-3.34,-3.3253,-3.3066,-3.2893,-3.2612,-3.2278,-3.1917,-3.1583,-3.1316,-3.1129,-3.0568,-3.0287,-3.0354,-3.0007,-2.9847,-2.9913,-2.9633,-2.9339,-2.9032,-2.8751,-2.8444,-2.8221,-2.8221,-2.8221,-2.8221,-2.8221,-2.8221,-2.8221,-2.8221,-2.8221,-2.8221,-2.8221,-2.8221,-2.8221,-2.8221,-2.8221,-2.8221,-2.8221,-2.8221,-2.8221,-2.8221,-2.8221,-2.8221,-2.8221,-2.8154,-2.7976,-2.7976,-2.798,-2.7805,-2.7362,-2.7188,-2.7094,-2.7094,-2.6867,-2.6653,-2.6653,-2.652,-2.6386,-2.6386,-2.6386,-2.6386,-2.6386,-2.6386,-2.6386,-2.6386,-2.6386,-2.6386,-2.6386,-2.6293,-2.6226,-2.6226,-2.5959,-2.5625,-2.5211,-2.4917,-2.4703,-2.4596,-2.3968,-2.3514,-2.334,-2.3207,-2.3006,-2.2699,-2.2512,-2.2365,-2.2258,-2.2258,-2.2111,-2.183,-2.2004,-2.1937,-1.1841,-1.2458,-1.3122,-1.3608,-1.4075,-1.4305,-1.4261,-1.4514,-1.5268,-1.6918,-1.8815,-2.1441,-2.5689,-2.6766,-2.7271,-2.8272,-3.0153,-3.177,-3.2954,-3.32,-3.328,-3.328,-3.3013,-3.2759,-3.2656,-3.2198,-3.1797,-3.1396,-3.1022,-3.0728,-3.0528,-3.0047,-2.9873,-3.0074,-2.978,-2.9673,-2.978,-2.9579,-2.9285,-2.8898,-2.8698,-2.8444,-2.8221,-2.8221,-2.8221,-2.8221,-2.8221,-2.8221,-2.8221,-2.8221,-2.8221,-2.8221,-2.8221,-2.8221,-2.8221,-2.8221,-2.8221,-2.8221,-2.8221,-2.8221,-2.8221,-2.8221,-2.8221,-2.8221,-2.8221,-2.8221,-2.8221,-2.8221,-2.8221,-2.814,-2.7725,-2.7468,-2.7375,-2.7281,-2.7108,-2.6907,-2.672,-2.66,-2.6493,-2.6413,-2.6386,-2.6386,-2.6386,-2.6386,-2.6386,-2.6386,-2.6386,-2.6386,-2.6386,-2.6386,-2.6426,-2.652,-2.6346,-2.6106,-2.5812,-2.5518,-2.5277,-2.509,-2.4422,-2.3915,-2.3621,-2.3514,-2.3327,-2.302,-2.2806,-2.2659,-2.2565,-2.2565,-2.2405,-2.2124,-2.2325,-2.2258,-1.0481,-1.0968,-1.1629,-1.2281,-1.2941,-1.374,-1.4988,-1.5674,-1.6039,-1.6333,-1.7158,-1.9239,-2.3963,-2.2999,-2.2566,-2.5799,-2.7602,-2.9823,-3.292,-3.316,-3.2973,-3.2973,-3.2719,-3.2545,-3.2629,-3.2011,-3.1664,-3.165,-3.0581,-2.9913,-2.9913,-2.9633,-2.9486,-2.9486,-2.9766,-2.9766,-2.9486,-2.9472,-2.9179,-2.8604,-2.8604,-2.8444,-2.8221,-2.8221,-2.8221,-2.8221,-2.8221,-2.8221,-2.8221,-2.8221,-2.8221,-2.8221,-2.8221,-2.8221,-2.8221,-2.8221,-2.8221,-2.8221,-2.8221,-2.8221,-2.8221,-2.8221,-2.8221,-2.8221,-2.8221,-2.8221,-2.8221,-2.8221,-2.8221,-2.8221,-2.8221,-2.7923,-2.7629,-2.7348,-2.7268,-2.7108,-2.652,-2.6613,-2.6734,-2.6453,-2.6386,-2.6386,-2.6386,-2.6386,-2.6386,-2.6386,-2.6386,-2.6386,-2.6386,-2.64,-2.6507,-2.68,-2.6827,-2.6707,-2.6413,-2.6132,-2.5718,-2.513,-2.481,-2.4516,-2.4209,-2.3928,-2.3634,-2.334,-2.3327,-2.318,-2.2941,-2.2941,-2.2712,-2.2432,-2.2432,-2.2271,-1.0073,-1.0575,-1.1358,-1.2466,-1.3479,-1.44,-1.5293,-1.5725,-1.6729,-1.9167,-1.9922,-2.0697,-2.2507,-2.2606,-2.3147,-2.5466,-2.7291,-2.9444,-3.2716,-3.3026,-3.2973,-3.2973,-3.2532,-3.2158,-3.1957,-3.1583,-3.1102,-3.0488,-3.0301,-3.0047,-2.9633,-2.9526,-2.9579,-2.978,-2.9472,-2.9366,-2.9486,-2.9072,-2.8778,-2.8604,-2.839,-2.8315,-2.8221,-2.8221,-2.8221,-2.8221,-2.8221,-2.8221,-2.8221,-2.8221,-2.8221,-2.8221,-2.8221,-2.8221,-2.8221,-2.8221,-2.8221,-2.8221,-2.8221,-2.8221,-2.8221,-2.8221,-2.8221,-2.8221,-2.8221,-2.8221,-2.8221,-2.8221,-2.8221,-2.8221,-2.8221,-2.8167,-2.8073,-2.798,-2.7722,-2.7468,-2.7081,-2.6907,-2.6734,-2.6453,-2.6386,-2.6386,-2.6386,-2.6386,-2.6386,-2.6386,-2.6386,-2.6466,-2.6667,-2.6881,-2.7041,-2.7121,-2.7134,-2.7014,-2.672,-2.6426,-2.6106,-2.5795,-2.5411,-2.4943,-2.4235,-2.4115,-2.3941,-2.3647,-2.3634,-2.3594,-2.35,-2.35,-2.346,-2.3367,-2.3367,-2.3327,-1.0215,-1.0767,-1.1431,-1.2838,-1.3788,-1.4653,-1.5621,-1.6203,-1.7343,-2.0616,-2.0157,-1.9698,-2.1005,-2.065,-2.0921,-2.3126,-2.5473,-2.7973,-3.1,-3.2261,-3.2759,-3.2639,-3.2118,-3.1297,-3.0152,-2.9572,-2.9075,-2.8474,-2.8373,-2.855,-2.9224,-2.9312,-2.9392,-2.9566,-2.9339,-2.9192,-2.9138,-2.8778,-2.8551,-2.8417,-2.8315,-2.8221,-2.8221,-2.8221,-2.8221,-2.8221,-2.8221,-2.8221,-2.8221,-2.8221,-2.8221,-2.8221,-2.8221,-2.8221,-2.8221,-2.8221,-2.8221,-2.8221,-2.8221,-2.8221,-2.8221,-2.8221,-2.8221,-2.8221,-2.8221,-2.8221,-2.8221,-2.8221,-2.8221,-2.8221,-2.8221,-2.8221,-2.8194,-2.7989,-2.7829,-2.7615,-2.7321,-2.7121,-2.6947,-2.6774,-2.6734,-2.6734,-2.6734,-2.6734,-2.6734,-2.6734,-2.6734,-2.68,-2.6974,-2.7161,-2.7308,-2.7428,-2.7442,-2.7321,-2.7028,-2.6734,-2.6386,-2.5985,-2.5678,-2.5277,-2.4743,-2.4609,-2.4356,-2.3955,-2.3941,-2.3888,-2.3768,-2.3768,-2.3768,-2.3768,-2.3768,-2.3768,-1.0754,-1.1239,-1.175,-1.3327,-1.4109,-1.4869,-1.6266,-1.6788,-1.7784,-2.0481,-1.8708,-1.7239,-1.9657,-1.7914,-1.7071,-1.9975,-2.2781,-2.5649,-2.8473,-3.0773,-3.2094,-3.1802,-3.1178,-2.9858,-2.7416,-2.648,-2.6048,-2.5831,-2.5183,-2.5865,-2.826,-2.8334,-2.8422,-2.836,-2.8657,-2.8513,-2.799,-2.8136,-2.8161,-2.7883,-2.8136,-2.8221,-2.8221,-2.8221,-2.8221,-2.8221,-2.8221,-2.8221,-2.8221,-2.8221,-2.8221,-2.8221,-2.8221,-2.8221,-2.8221,-2.8221,-2.8221,-2.8221,-2.8221,-2.8221,-2.8221,-2.8221,-2.8221,-2.8221,-2.8221,-2.8221,-2.8221,-2.8221,-2.8221,-2.8221,-2.8221,-2.8221,-2.8154,-2.7802,-2.7736,-2.7655,-2.7362,-2.7308,-2.7295,-2.7268,-2.7268,-2.7268,-2.7268,-2.7268,-2.7268,-2.7268,-2.7281,-2.7308,-2.7308,-2.7321,-2.7442,-2.7709,-2.7736,-2.7602,-2.7295,-2.7014,-2.6613,-2.6039,-2.5745,-2.5585,-2.5558,-2.5277,-2.4863,-2.4329,-2.4329,-2.4182,-2.3888,-2.3888,-2.3875,-2.3848,-2.3848,-2.3848,-1.0339,-1.1231,-1.235,-1.3934,-1.5187,-1.6218,-1.6897,-1.7012,-1.7209,-1.7791,-1.7475,-1.7174,-1.7416,-1.703,-1.7486,-2.0091,-2.1142,-2.3203,-2.8019,-2.9003,-2.9128,-2.8861,-2.8533,-2.7122,-2.429,-2.383,-2.3496,-2.3028,-2.2962,-2.3089,-2.358,-2.3586,-2.3664,-2.377,-2.3455,-2.3326,-2.3228,-2.4781,-2.5519,-2.547,-2.7363,-2.8221,-2.8221,-2.8221,-2.8221,-2.8221,-2.8221,-2.8221,-2.8221,-2.8221,-2.8221,-2.8221,-2.8221,-2.8221,-2.8221,-2.8221,-2.8221,-2.8221,-2.8221,-2.8221,-2.8221,-2.8221,-2.8221,-2.8221,-2.8221,-2.8221,-2.8221,-2.8221,-2.8221,-2.8221,-2.8221,-2.8221,-2.8207,-2.814,-2.8127,-2.7963,-2.7669,-2.7602,-2.7535,-2.7308,-2.7268,-2.7268,-2.7268,-2.7268,-2.7268,-2.7268,-2.7455,-2.7602,-2.7602,-2.7802,-2.806,-2.8127,-2.8127,-2.7913,-2.7308,-2.7201,-2.6921,-2.6333,-2.6239,-2.6092,-2.5865,-2.5571,-2.5358,-2.5237,-2.5237,-2.509,-2.4796,-2.4796,-2.4676,-2.4449,-2.4449,-2.4449,-1.085,-1.183,-1.3017,-1.4911,-1.6008,-1.6714,-1.7019,-1.7032,-1.6978,-1.6978,-1.7039,-1.7046,-1.689,-1.6863,-1.7217,-1.8576,-1.9865,-2.2113,-2.5904,-2.6365,-2.673,-2.7627,-2.6386,-2.4293,-2.1517,-2.0936,-2.0674,-2.0278,-2.0172,-2.0632,-2.1888,-2.1876,-2.1954,-2.1988,-2.1852,-2.1592,-2.148,-2.3623,-2.4166,-2.3041,-2.6575,-2.8221,-2.8221,-2.8221,-2.8221,-2.8221,-2.8221,-2.8221,-2.8221,-2.8221,-2.8221,-2.8221,-2.8221,-2.8221,-2.8221,-2.8221,-2.8221,-2.8221,-2.8221,-2.8221,-2.8221,-2.8221,-2.8221,-2.8221,-2.8221,-2.8221,-2.8221,-2.8221,-2.8221,-2.8221,-2.8221,-2.8221,-2.8221,-2.8221,-2.8114,-2.7923,-2.7909,-2.7802,-2.7696,-2.7696,-2.7765,-2.7765,-2.7765,-2.7765,-2.7765,-2.7765,-2.7816,-2.7909,-2.7909,-2.8127,-2.8221,-2.8221,-2.8221,-2.8047,-2.7509,-2.7348,-2.7081,-2.6627,-2.6466,-2.6319,-2.6172,-2.6146,-2.5945,-2.5518,-2.5518,-2.5438,-2.5291,-2.5144,-2.4997,-2.485,-2.4703,-2.4716,-1.1201,-1.2404,-1.3689,-1.5795,-1.653,-1.6788,-1.6944,-1.6978,-1.6978,-1.6978,-1.6978,-1.6978,-1.6978,-1.6978,-1.6924,-1.6741,-1.8644,-2.0942,-2.3128,-2.3435,-2.4136,-2.5934,-2.3946,-2.1461,-1.8834,-1.8108,-1.7739,-1.7656,-1.7404,-1.8154,-2.0371,-2.049,-2.0461,-2.05,-2.0461,-2.0278,-2.0009,-2.2353,-2.2525,-2.0702,-2.5373,-2.7617,-2.7617,-2.8052,-2.8221,-2.8221,-2.8221,-2.8221,-2.8221,-2.8221,-2.8221,-2.8221,-2.8221,-2.8221,-2.8221,-2.8221,-2.8221,-2.8221,-2.8221,-2.8221,-2.8136,-2.7701,-2.7883,-2.8136,-2.7714,-2.7883,-2.8221,-2.8221,-2.8221,-2.8221,-2.8221,-2.8221,-2.8221,-2.8221,-2.7949,-2.7843,-2.8181,-2.7949,-2.7843,-2.8181,-2.8221,-2.8221,-2.8221,-2.8221,-2.8221,-2.8221,-2.8221,-2.8221,-2.8221,-2.8221,-2.8221,-2.8221,-2.8221,-2.8016,-2.7722,-2.7482,-2.7215,-2.6921,-2.6667,-2.6533,-2.6533,-2.6774,-2.656,-2.5825,-2.5758,-2.5692,-2.5585,-2.5344,-2.5211,-2.5144,-2.4903,-2.4917,-0.9971,-1.2062,-1.4408,-1.5923,-1.653,-1.6788,-1.6944,-1.6978,-1.6978,-1.6978,-1.6978,-1.6978,-1.6978,-1.6978,-1.689,-1.6598,-1.6851,-1.7951,-2.026,-2.0463,-2.0474,-2.0532,-2.0138,-1.8731,-1.5967,-1.5596,-1.5491,-1.5398,-1.5105,-1.5165,-1.5593,-1.5437,-1.535,-1.5481,-1.5358,-1.5278,-1.5256,-1.7588,-1.854,-1.8279,-2.2955,-2.5203,-2.5203,-2.7279,-2.8221,-2.8221,-2.8221,-2.8221,-2.8221,-2.8221,-2.8221,-2.8221,-2.8221,-2.8221,-2.8221,-2.8221,-2.8221,-2.8221,-2.8221,-2.8221,-2.7883,-2.5811,-2.6503,-2.7799,-2.5811,-2.6588,-2.8221,-2.8221,-2.8221,-2.8221,-2.8221,-2.8221,-2.8221,-2.8221,-2.8194,-2.8181,-2.8221,-2.8194,-2.8181,-2.8221,-2.8221,-2.8221,-2.8221,-2.8221,-2.8221,-2.8221,-2.8221,-2.8221,-2.8221,-2.8221,-2.8221,-2.8221,-2.8221,-2.8016,-2.7722,-2.7669,-2.7522,-2.7228,-2.7175,-2.7148,-2.7148,-2.7188,-2.7148,-2.7041,-2.6774,-2.64,-2.5892,-2.5929,-2.5705,-2.5451,-2.5411,-2.5411,-1.1107,-1.2676,-1.4224,-1.5882,-1.6408,-1.6585,-1.691,-1.6978,-1.6978,-1.6978,-1.6978,-1.6978,-1.6978,-1.691,-1.6781,-1.6558,-1.6456,-1.7221,-1.9626,-1.8662,-1.8107,-1.935,-1.8137,-1.6619,-1.5179,-1.493,-1.4808,-1.4719,-1.4516,-1.4421,-1.4489,-1.4373,-1.4326,-1.4394,-1.4333,-1.4299,-1.4299,-1.6641,-1.9063,-2.1653,-2.2439,-2.4166,-2.6673,-2.7701,-2.8221,-2.8221,-2.8221,-2.8221,-2.8221,-2.8221,-2.8221,-2.8221,-2.8221,-2.8221,-2.8221,-2.8221,-2.8221,-2.8052,-2.6673,-2.7096,-2.7799,-2.5458,-2.6333,-2.7968,-2.6927,-2.7363,-2.8221,-2.8221,-2.8221,-2.8221,-2.8221,-2.8221,-2.8221,-2.8221,-2.8221,-2.8221,-2.8221,-2.8221,-2.8221,-2.8221,-2.8221,-2.8221,-2.8221,-2.8221,-2.8221,-2.8221,-2.8221,-2.8221,-2.8221,-2.8221,-2.8221,-2.8221,-2.8221,-2.8181,-2.7963,-2.7789,-2.7642,-2.7509,-2.7362,-2.7268,-2.7268,-2.7415,-2.7428,-2.7268,-2.6974,-2.6694,-2.644,-2.6119,-2.5892,-2.5758,-2.5585,-2.5598,-1.156,-1.256,-1.34,-1.5112,-1.5842,-1.6259,-1.6707,-1.6897,-1.6978,-1.6978,-1.6951,-1.6924,-1.6924,-1.6829,-1.67,-1.6544,-1.6402,-1.6949,-1.8738,-1.7206,-1.6572,-1.8312,-1.6634,-1.5309,-1.5052,-1.4848,-1.4692,-1.4577,-1.4401,-1.4299,-1.4299,-1.4299,-1.4299,-1.4299,-1.4299,-1.4299,-1.4299,-1.6034,-1.8976,-2.2955,-2.1739,-2.3384,-2.7363,-2.7968,-2.8221,-2.8221,-2.8221,-2.8221,-2.8136,-2.7532,-2.7617,-2.8136,-2.7532,-2.7701,-2.8221,-2.8221,-2.7799,-2.7025,-2.5288,-2.5811,-2.6927,-2.4594,-2.5799,-2.8052,-2.7448,-2.7714,-2.8221,-2.8221,-2.8221,-2.8221,-2.8221,-2.8221,-2.8221,-2.8221,-2.8221,-2.8221,-2.8221,-2.8221,-2.8221,-2.8221,-2.8221,-2.8221,-2.8221,-2.8221,-2.8221,-2.8221,-2.8221,-2.8221,-2.8221,-2.8221,-2.8221,-2.8221,-2.8221,-2.8221,-2.8221,-2.7936,-2.7816,-2.7816,-2.7602,-2.7495,-2.7495,-2.7696,-2.7709,-2.7495,-2.7201,-2.6974,-2.6827,-2.6386,-2.6132,-2.6066,-2.5838,-2.5852,-0.9811,-1.0857,-1.1892,-1.3316,-1.4659,-1.5791,-1.6246,-1.6673,-1.6978,-1.6978,-1.6863,-1.6761,-1.6761,-1.6754,-1.67,-1.6544,-1.6402,-1.6252,-1.6295,-1.6046,-1.5896,-1.5849,-1.5595,-1.535,-1.5187,-1.4909,-1.4733,-1.4726,-1.4462,-1.4299,-1.4299,-1.4299,-1.4299,-1.4299,-1.4299,-1.4299,-1.4299,-1.4387,-1.569,-1.8191,-2.0269,-2.2525,-2.4947,-2.7194,-2.8221,-2.8221,-2.8221,-2.8221,-2.8052,-2.5811,-2.6151,-2.7968,-2.5726,-2.6236,-2.8221,-2.8221,-2.6758,-2.4861,-2.4776,-2.4776,-2.452,-2.217,-2.4496,-2.7799,-2.5556,-2.6418,-2.8221,-2.8221,-2.8221,-2.8221,-2.8221,-2.8221,-2.8221,-2.8221,-2.8221,-2.8221,-2.8221,-2.8221,-2.8221,-2.8221,-2.8221,-2.8221,-2.8221,-2.8221,-2.8221,-2.8221,-2.8221,-2.8221,-2.8221,-2.8221,-2.8221,-2.8221,-2.8221,-2.8221,-2.8221,-2.8207,-2.8207,-2.8207,-2.8194,-2.8181,-2.8181,-2.8194,-2.8194,-2.8181,-2.7802,-2.7375,-2.6827,-2.6787,-2.664,-2.6373,-2.6346,-2.6346,-0.9953,-1.0596,-1.122,-1.3025,-1.4055,-1.4774,-1.5323,-1.5947,-1.6402,-1.6402,-1.651,-1.6605,-1.6605,-1.6449,-1.63,-1.6246,-1.6035,-1.5893,-1.5934,-1.5723,-1.5588,-1.5635,-1.5418,-1.5167,-1.4923,-1.4801,-1.4658,-1.4475,-1.436,-1.4299,-1.4299,-1.4299,-1.4299,-1.4299,-1.4299,-1.4299,-1.4299,-1.4299,-1.5513,-1.7842,-2.0096,-2.2428,-2.4776,-2.7109,-2.8221,-2.8136,-2.6588,-2.5981,-2.5896,-2.5032,-2.4337,-2.3641,-2.2772,-2.2955,-2.3727,-2.3727,-2.3212,-2.2256,-2.0789,-2.2267,-2.4337,-2.1998,-2.4411,-2.8052,-2.7194,-2.7532,-2.8221,-2.8221,-2.8221,-2.8221,-2.8221,-2.8221,-2.7799,-2.6321,-2.5981,-2.5981,-2.5981,-2.7109,-2.8221,-2.8221,-2.8221,-2.8221,-2.8221,-2.8221,-2.8221,-2.8221,-2.8221,-2.8221,-2.8221,-2.8221,-2.8221,-2.8221,-2.8221,-2.8221,-2.8221,-2.8221,-2.8221,-2.8221,-2.8221,-2.8221,-2.8221,-2.8221,-2.8221,-2.8221,-2.8043,-2.7696,-2.7108,-2.6907,-2.668,-2.6386,-2.6386,-2.6386,-0.9544,-1.0113,-1.0692,-1.2127,-1.3115,-1.3905,-1.4531,-1.5222,-1.5764,-1.5961,-1.6123,-1.6239,-1.6286,-1.6056,-1.5906,-1.6056,-1.5832,-1.5676,-1.5771,-1.5615,-1.5506,-1.5554,-1.5384,-1.514,-1.4848,-1.4767,-1.4638,-1.4387,-1.4326,-1.4299,-1.4299,-1.4299,-1.4299,-1.4299,-1.4251,-1.4224,-1.4224,-1.4224,-1.5432,-1.7757,-1.9287,-2.1653,-2.4776,-2.6321,-2.7025,-2.6927,-2.5385,-2.4691,-2.4605,-2.3041,-2.1911,-2.1135,-2.0356,-2.0529,-2.1221,-2.1221,-2.0702,-1.9836,-1.8366,-1.9836,-2.2267,-2.148,-2.3812,-2.7194,-2.7968,-2.8221,-2.8221,-2.8221,-2.8221,-2.8221,-2.8221,-2.8221,-2.7448,-2.4252,-2.4166,-2.452,-2.3738,-2.5373,-2.7279,-2.8052,-2.8221,-2.8221,-2.8221,-2.8221,-2.8221,-2.8221,-2.7532,-2.7025,-2.7025,-2.7025,-2.7025,-2.7025,-2.7701,-2.8221,-2.8221,-2.8221,-2.7883,-2.7096,-2.7025,-2.6673,-2.5884,-2.5884,-2.5884,-2.5884,-2.6588,-2.6781,-2.6236,-2.6793,-2.6504,-2.5471,-2.5471,-2.5471,0.0,0.0,0.0,-1.0485,-1.1804,-1.3152,-1.3866,-1.4519,-1.5086,-1.5683,-1.5696,-1.5649,-1.5811,-1.5601,-1.554,-1.5988,-1.5818,-1.5628,-1.5635,-1.5628,-1.5574,-1.5425,-1.5404,-1.5289,-1.4991,-1.4828,-1.4672,-1.4516,-1.438,-1.4299,-1.4299,-1.4299,-1.4299,-1.4299,-1.415,-1.4075,-1.4075,-1.4068,-1.5183,-1.7407,-1.767,-2.0183,-2.452,-2.4605,-2.4605,-2.4605,-2.452,-2.452,-2.4166,-1.9662,-1.9063,-2.0789,-1.854,-1.9063,-2.0962,-2.1048,-1.9662,-1.7763,-1.7763,-1.7851,-1.8279,-2.0443,-2.2783,-2.5032,-2.7448,-2.8136,-2.8136,-2.8136,-2.8136,-2.8052,-2.8052,-2.7968,-2.6842,-2.217,-2.2869,-2.3909,-2.1566,-2.2869,-2.5203,-2.7532,-2.7968,-2.7968,-2.7968,-2.7968,-2.7968,-2.7968,-2.6066,-2.4605,-2.4605,-2.4605,-2.4605,-2.4691,-2.6673,-2.8052,-2.8052,-2.8052,-2.7012,-2.4776,-2.4605,-2.3567,-2.1307,-2.1221,-2.1221,-2.1221,-2.347,-2.4477,-2.4147,-2.6518,-2.6306,-2.3702,-2.3621,-2.3621,-0.8883,0.0,0.0,0.0,0.0,0.0,-1.188,-1.258,-1.3442,-1.4132,-1.4517,-1.4848,-1.5425,-1.5289,-1.5201,-1.554,-1.5432,-1.535,-1.5459,-1.5377,-1.5337,-1.5404,-1.5309,-1.5126,-1.4835,-1.4767,-1.4631,-1.438,-1.4326,-1.4299,-1.4299,-1.4299,-1.4299,-1.4299,-1.415,-1.4075,-1.4075,-1.396,-1.4298,-1.5104,-1.6774,-1.8321,-1.9749,-2.1394,-2.217,-2.2084,-2.0443,-1.9749,-1.9575,-1.8366,-1.7159,-1.6122,-1.5513,-1.569,-1.6386,-1.8113,-1.8366,-1.7763,-1.7763,-1.8889,-2.0356,-2.0962,-2.1653,-2.2944,-2.6927,-2.7012,-2.5641,-2.5641,-2.5641,-2.5288,-2.3555,-2.3115,-2.2428,-1.9401,-1.9228,-1.9488,-1.8889,-1.9228,-2.0356,-2.2686,-2.3115,-2.3115,-2.3115,-2.3115,-2.3115,-2.3115,-2.26,-2.217,-2.217,-2.217,-2.2783,-2.452,-2.3727,-2.3812,-2.5543,-2.4069,-2.2858,-2.217,-2.217,-2.1911,-2.1221,-2.1221,-2.1221,-2.1221,-2.1825,-2.2138,-2.2075,-2.5828,-2.7165,-2.6225,-2.4562,-2.3727,0.0,0.0,0.0,-0.9556,0.0,0.0,-1.1042,-1.1688,-1.2349,-1.3263,-1.3619,-1.4021,-1.4645,-1.4719,-1.4787,-1.5086,-1.5113,-1.5147,-1.5296,-1.5187,-1.5147,-1.5296,-1.5235,-1.5065,-1.4767,-1.474,-1.4618,-1.4326,-1.4299,-1.4299,-1.4299,-1.4299,-1.4299,-1.4299,-1.415,-1.4041,-1.3973,-1.3946,-1.3946,-1.3973,-1.5481,-1.6713,-1.7851,-1.915,-1.9749,-1.9749,-1.8366,-1.7247,-1.6378,-1.6378,-1.5513,-1.4299,-1.4299,-1.4299,-1.4476,-1.5858,-1.6984,-1.7763,-1.7763,-1.8714,-1.9922,-2.0875,-2.0529,-2.0443,-2.4155,-2.4337,-2.3212,-2.3212,-2.3212,-2.2697,-2.0356,-2.0529,-2.0356,-1.7071,-1.7071,-1.7501,-1.6553,-1.6378,-1.7334,-2.0529,-2.1221,-2.1221,-2.1221,-2.1221,-2.1221,-2.1221,-2.0356,-1.9749,-1.9749,-1.9749,-2.0702,-2.2955,-2.1998,-2.217,-2.452,-2.2514,-2.0789,-1.9836,-1.9749,-1.9324,-1.8375,-1.8287,-1.8287,-1.8287,-1.9324,-2.0269,-2.1221,-2.375,-2.4399,-2.3139,-2.1799,-2.1211,0.0,0.0,0.0,0.0,-0.9709,0.0,-1.093,-1.1183,-1.1553,-1.2502,-1.2775,-1.3064,-1.3459,-1.378,-1.4055,-1.4316,-1.4622,-1.4923,-1.5153,-1.5072,-1.5038,-1.5167,-1.5167,-1.5045,-1.4767,-1.4726,-1.4597,-1.4319,-1.4299,-1.4299,-1.4299,-1.4299,-1.4299,-1.4299,-1.415,-1.4007,-1.3865,-1.3987,-1.3987,-1.3871,-1.4143,-1.5411,-1.7413,-1.7413,-1.7413,-1.7413,-1.7397,-1.6187,-1.4299,-1.4285,-1.4285,-1.4299,-1.4299,-1.4299,-1.4299,-1.4557,-1.6034,-1.7763,-1.7763,-1.7763,-1.8104,-2.0183,-1.9315,-1.7851,-2.0443,-2.1048,-2.0789,-2.0789,-2.0616,-2.0009,-1.7938,-1.8889,-1.9411,-1.5256,-1.5858,-1.6809,-1.4734,-1.4299,-1.5521,-1.9671,-2.0443,-2.0443,-2.0443,-2.0443,-2.0443,-2.0443,-1.8714,-1.7413,-1.7413,-1.7413,-1.8279,-2.0616,-2.0616,-2.1394,-2.3738,-2.1739,-1.9575,-1.7501,-1.7413,-1.6466,-1.4387,-1.4299,-1.4299,-1.4299,-1.6378,-1.8366,-2.0443,-2.0962,-2.0086,-1.7863,-1.769,-1.7518,0.0,0.0,0.0,0.0,0.0,0.0,-0.9413,-0.9698,-1.0215,-1.0787,-1.094,-1.1221,-1.1947,-1.22,-1.2326,-1.2465,-1.3049,-1.3971,-1.5079,-1.516,-1.5153,-1.5181,-1.5079,-1.4943,-1.476,-1.4631,-1.4482,-1.4312,-1.4299,-1.4299,-1.4299,-1.4299,-1.4299,-1.4299,-1.415,-1.4055,-1.4027,-1.3933,-1.3933,-1.4027,-1.4089,-1.444,-1.4992,-1.4992,-1.4992,-1.4985,-1.4856,-1.4615,-1.4292,-1.4163,-1.419,-1.4299,-1.4299,-1.4299,-1.4557,-1.6378,-1.7413,-1.7763,-1.7763,-1.7763,-1.7842,-1.8279,-1.6896,-1.5778,-1.9922,-1.9922,-1.8453,-1.8453,-1.7071,-1.5513,-1.508,-1.5344,-1.5433,-1.4476,-1.4646,-1.4822,-1.4387,-1.4299,-1.4564,-1.5433,-1.569,-1.569,-1.569,-1.569,-1.569,-1.569,-1.5256,-1.4992,-1.4992,-1.4992,-1.5858,-1.8191,-1.6729,-1.6641,-1.8976,-1.6984,-1.5433,-1.4992,-1.4992,-1.4822,-1.4299,-1.4299,-1.4299,-1.4299,-1.4734,-1.5168,-1.569,-1.9411,-2.0942,-2.047,-1.8574,-1.7712,0.0,0.0,0.0,-0.9052,0.0,0.0,0.0,-0.9271,-0.9439,-1.012,-0.9942,-0.996,-1.094,-1.1066,-1.1148,-1.1591,-1.2351,-1.3095,-1.3601,-1.434,-1.4875,-1.495,-1.4903,-1.4794,-1.4645,-1.4557,-1.4455,-1.4312,-1.4299,-1.4299,-1.4299,-1.4299,-1.4299,-1.4299,-1.4224,-1.415,-1.4075,-1.4068,-1.4068,-1.4075,-1.415,-1.4183,-1.419,-1.4265,-1.4217,-1.4075,-1.415,-1.4183,-1.4183,-1.4183,-1.4231,-1.4299,-1.4299,-1.4299,-1.4476,-1.5601,-1.6809,-1.7763,-1.7763,-1.7763,-1.7763,-1.7763,-1.6202,-1.4734,-1.708,-1.6992,-1.6034,-1.6034,-1.5168,-1.4299,-1.4299,-1.4299,-1.4299,-1.4299,-1.4299,-1.4299,-1.4299,-1.4299,-1.4299,-1.4299,-1.4353,-1.4407,-1.4407,-1.4468,-1.4496,-1.4414,-1.4407,-1.438,-1.4306,-1.4299,-1.5168,-1.7588,-1.569,-1.5256,-1.7588,-1.569,-1.4299,-1.4299,-1.4299,-1.4299,-1.4299,-1.4299,-1.4299,-1.4299,-1.4299,-1.4299,-1.4299,-1.6641,-1.7772,-1.7763,-1.6553,-1.6034,0.0,0.0,0.0,0.0,0.0,-0.9314,0.0,0.0,0.0,-0.9555,-0.9206,-0.9012,-0.9853,-0.9959,-1.0067,-1.061,-1.1538,-1.2054,-1.1795,-1.2952,-1.4008,-1.4269,-1.444,-1.4516,-1.4394,-1.4421,-1.4387,-1.4299,-1.4278,-1.4264,-1.4292,-1.4299,-1.4299,-1.4299,-1.4299,-1.4238,-1.4116,-1.4238,-1.4238,-1.4116,-1.4211,-1.4204,-1.4122,-1.4211,-1.4136,-1.3939,-1.4163,-1.4204,-1.4122,-1.4217,-1.4272,-1.4299,-1.4299,-1.4299,-1.4299,-1.4299,-1.5513,-1.7159,-1.7159,-1.7159,-1.7159,-1.7159,-1.5858,-1.4299,-1.4299,-1.4299,-1.4299,-1.4299,-1.4299,-1.4299,-1.4299,-1.4299,-1.4299,-1.4299,-1.4299,-1.4299,-1.4299,-1.4319,-1.434,-1.434,-1.4482,-1.4584,-1.4523,-1.4638,-1.4699,-1.4577,-1.4529,-1.4468,-1.4353,-1.4319,-1.4992,-1.6896,-1.5425,-1.508,-1.6984,-1.5425,-1.4299,-1.4299,-1.4299,-1.4299,-1.4299,-1.4299,-1.4299,-1.4299,-1.4299,-1.4299,-1.4299,-1.4299,-1.4299,-1.4299,-1.4299,-1.4299,0.0,0.0,0.0,0.0,-0.9612,0.0,0.0,0.0,-0.8803,-0.8402,0.0,-0.8189,-0.8193,0.0,0.0,-0.8146,-0.9442,-1.0423,-1.0203,-1.1013,-1.1994,-1.2888,-1.3527,-1.3933,-1.3919,-1.3935,-1.4083,-1.4258,-1.406,-1.4076,-1.4272,-1.4299,-1.4299,-1.4299,-1.4299,-1.4292,-1.4272,-1.4292,-1.4292,-1.4272,-1.4156,-1.4156,-1.4272,-1.415,-1.415,-1.4245,-1.4143,-1.4163,-1.4265,-1.415,-1.4177,-1.4299,-1.4299,-1.4299,-1.4299,-1.4299,-1.4476,-1.4734,-1.4734,-1.4734,-1.4734,-1.4734,-1.4564,-1.4299,-1.4299,-1.4299,-1.4299,-1.4299,-1.4299,-1.4299,-1.4299,-1.4299,-1.4299,-1.4299,-1.4299,-1.4299,-1.4299,-1.4401,-1.4489,-1.4489,-1.4719,-1.4835,-1.4557,-1.4638,-1.4733,-1.4719,-1.4597,-1.4509,-1.4489,-1.438,-1.4387,-1.4646,-1.4476,-1.4387,-1.4646,-1.4476,-1.4299,-1.4299,-1.4299,-1.4299,-1.4299,-1.4299,-1.4299,-1.4299,-1.4299,-1.4299,-1.4299,-1.4299,-1.4299,-1.4299,-1.4299,-1.4299,0.0,0.0,0.0,0.0,0.0,0.0,-0.9144,0.0,-0.8444,0.0,0.0,0.0,0.0,0.0,0.0,0.0,-0.9046,-0.9763,-0.924,-1.0165,-1.1279,-1.2226,-1.2284,-1.2462,-1.2959,-1.337,-1.3672,-1.3756,-1.3713,-1.372,-1.3892,-1.4075,-1.4211,-1.4299,-1.4299,-1.4299,-1.4299,-1.4299,-1.4299,-1.4299,-1.4238,-1.419,-1.417,-1.419,-1.4143,-1.4041,-1.4156,-1.419,-1.417,-1.4197,-1.4245,-1.4299,-1.4299,-1.4299,-1.4299,-1.4299,-1.4299,-1.4299,-1.4299,-1.4299,-1.4299,-1.4299,-1.4299,-1.4299,-1.4299,-1.4299,-1.4299,-1.4299,-1.4299,-1.4299,-1.4299,-1.4299,-1.4299,-1.4299,-1.4367,-1.4421,-1.4421,-1.4536,-1.4645,-1.4645,-1.4889,-1.5025,-1.4814,-1.4903,-1.4936,-1.4767,-1.4685,-1.4584,-1.4414,-1.434,-1.4299,-1.4299,-1.4299,-1.4299,-1.4299,-1.4299,-1.4299,-1.4299,-1.4299,-1.434,-1.4421,-1.4346,-1.4299,-1.4299,-1.438,-1.438,-1.4299,-1.438,-1.438,-1.4299,-1.4299,-1.4299,-1.1148,0.0,0.0,0.0,0.0,0.0,0.0,0.0,0.0,0.0,0.0,0.0,0.0,0.0,0.0,0.0,0.0,-0.9119,-0.8519,-0.9322,-1.0316,-1.1106,-1.1231,-1.1629,-1.2633,-1.3047,-1.3279,-1.337,-1.3226,-1.3227,-1.3546,-1.377,-1.3994,-1.4231,-1.4278,-1.4299,-1.4299,-1.4299,-1.4299,-1.4299,-1.4258,-1.4204,-1.4136,-1.4204,-1.4136,-1.398,-1.4204,-1.4238,-1.4143,-1.4251,-1.4299,-1.4299,-1.4299,-1.4299,-1.4299,-1.4299,-1.4299,-1.4299,-1.4299,-1.4299,-1.4299,-1.4299,-1.4299,-1.4299,-1.4299,-1.4299,-1.4299,-1.4299,-1.4299,-1.4306,-1.4346,-1.4333,-1.4312,-1.4346,-1.4407,-1.4462,-1.4502,-1.4631,-1.4753,-1.4794,-1.5045,-1.5201,-1.5052,-1.5147,-1.516,-1.4896,-1.4828,-1.4713,-1.4455,-1.4421,-1.4407,-1.436,-1.4394,-1.4421,-1.4421,-1.4421,-1.4421,-1.4421,-1.4421,-1.4468,-1.457,-1.4475,-1.4421,-1.4421,-1.4523,-1.4523,-1.4421,-1.4523,-1.4523,-1.4421,-1.434,-1.4299,0.0,0.0,0.0,-1.0655,0.0,0.0,0.0,0.0,-0.8767,0.0,0.0,0.0,0.0,0.0,0.0,0.0,0.0,0.0,0.0,-0.8141,-0.8475,-0.9189,-1.0715,-1.2095,-1.3173,-1.3089,-1.302,-1.3262,-1.2738,-1.2713,-1.3356,-1.3417,-1.362,-1.4061,-1.4224,-1.4299,-1.4299,-1.4299,-1.4299,-1.4299,-1.415,-1.4156,-1.4285,-1.4143,-1.4156,-1.4285,-1.4299,-1.4299,-1.4292,-1.4299,-1.4299,-1.4299,-1.4299,-1.4299,-1.4299,-1.4299,-1.4299,-1.4299,-1.4299,-1.4299,-1.4299,-1.4299,-1.4299,-1.4299,-1.4299,-1.4299,-1.4299,-1.4299,-1.4299,-1.4333,-1.4468,-1.4401,-1.4333,-1.4475,-1.4407,-1.4346,-1.4482,-1.4631,-1.4787,-1.4936,-1.5201,-1.5357,-1.5201,-1.5303,-1.535,-1.5194,-1.5052,-1.4903,-1.4746,-1.4726,-1.4672,-1.4523,-1.4638,-1.4726,-1.4726,-1.4726,-1.4726,-1.4726,-1.4726,-1.4726,-1.4733,-1.4726,-1.4726,-1.4726,-1.4733,-1.4733,-1.4726,-1.4733,-1.4733,-1.4719,-1.4434,-1.4299,0.0,0.0,-1.2736,-1.1611,0.0,0.0,0.0,0.0,0.0,0.0,0.0,0.0,0.0,0.0,0.0,0.0,0.0,0.0,0.0,0.0,-0.8877,-0.9672,-1.0752,-1.1503,-1.1879,-1.2129,-1.2273,-1.2342,-1.2039,-1.2127,-1.263,-1.3132,-1.3559,-1.3905,-1.4163,-1.4299,-1.4299,-1.4299,-1.4299,-1.4299,-1.4245,-1.4251,-1.4299,-1.4245,-1.4251,-1.4299,-1.4299,-1.4299,-1.4299,-1.4299,-1.4299,-1.4299,-1.4299,-1.4299,-1.4299,-1.4299,-1.4299,-1.4299,-1.4299,-1.4299,-1.4299,-1.4299,-1.4299,-1.4299,-1.4299,-1.4299,-1.4319,-1.4414,-1.4441,-1.4475,-1.4624,-1.4624,-1.4604,-1.4652,-1.4706,-1.476,-1.4808,-1.493,-1.5079,-1.5235,-1.5425,-1.5547,-1.5493,-1.5527,-1.5445,-1.5092,-1.5004,-1.4916,-1.476,-1.474,-1.4719,-1.4665,-1.4706,-1.474,-1.474,-1.474,-1.4787,-1.4889,-1.4794,-1.4787,-1.4889,-1.4896,-1.4896,-1.4896,-1.5086,-1.5133,-1.5031,-1.5031,-1.4984,-1.4889,-1.4685,-1.459,-1.3447,-1.3502,0.0,-1.2286,-1.1999,0.0,-1.0555,0.0,0.0,0.0,0.0,0.0,0.0,0.0,0.0,0.0,0.0,0.0,0.0,-0.8664,-0.9252,-0.9896,-1.0697,-1.1174,-1.1228,-1.1629,-1.1765,-1.161,-1.1434,-1.1534,-1.202,-1.2657,-1.3214,-1.3668,-1.4034,-1.4245,-1.4299,-1.4299,-1.4299,-1.4299,-1.4299,-1.4299,-1.4299,-1.4299,-1.4299,-1.4299,-1.4299,-1.4299,-1.4299,-1.4299,-1.4299,-1.4299,-1.4299,-1.4299,-1.4299,-1.4299,-1.4299,-1.4299,-1.4299,-1.4299,-1.4299,-1.4299,-1.4333,-1.4373,-1.4373,-1.4373,-1.4414,-1.4618,-1.4597,-1.457,-1.4828,-1.4821,-1.4753,-1.4808,-1.4855,-1.4916,-1.5025,-1.5079,-1.5167,-1.5371,-1.5533,-1.5622,-1.5567,-1.5601,-1.552,-1.5181,-1.5079,-1.4991,-1.4841,-1.4869,-1.4875,-1.4828,-1.4869,-1.4896,-1.4896,-1.4896,-1.4943,-1.5038,-1.495,-1.4964,-1.512,-1.5126,-1.5201,-1.5364,-1.5452,-1.5493,-1.5499,-1.5343,-1.5215,-1.5126,-1.497,-1.4896]},{"header":{"parameterUnit":"m.s-1","parameterCategory":1,"la1":30.6,"la2":29.2853,"lo1":-89.7004,"lo2":-87.6739,"dy":0.0162,"dx":0.0183,"nx":112,"ny":82,"refTime":"2023-08-21T18:00:00:Z","depth":0,"parameterNumber":3,"parameterNumberName":"V-component_of_WINDS"},"data":[0.0,0.0,0.0,0.0,0.0,0.0,0.0,0.0,0.0,0.0,0.0,0.0,0.0,0.0,0.0,0.0,0.0,0.0,0.0,0.0,0.0,0.0,0.0,0.0,0.0,0.0,0.0,0.0,0.0,0.0,0.0,0.0,0.0,0.0,0.0,0.0,0.0,0.0,0.0,0.0,0.0,0.0,0.0,0.0,0.0,0.0,0.0,0.0,0.0,0.0,0.0,0.0,0.0,0.0,0.0,0.0,0.0,0.0,0.0,0.0,0.0,0.0,0.0,0.0,0.0,0.0,0.0,0.0,0.0,0.0,0.0,0.0,0.0,0.0,0.0,0.0,0.0,0.0,0.0,0.0,0.0,0.0,0.0,0.0,0.0,0.0,0.0,0.0,0.0,0.0,1.8378,2.0698,2.2305,2.2968,2.228,2.2674,2.2217,2.0544,0.0,0.0,0.0,0.0,0.0,0.0,0.0,0.0,0.0,0.0,0.0,0.0,0.0,0.0,0.0,0.0,0.0,0.0,0.0,0.0,0.0,0.0,0.0,0.0,0.0,0.0,0.0,0.0,0.0,0.0,0.0,0.0,0.0,0.0,0.0,0.0,0.0,0.0,0.0,0.0,0.0,0.0,0.0,0.0,0.0,0.0,0.0,0.0,0.0,0.0,0.0,0.0,0.0,0.0,0.0,0.0,0.0,0.0,0.0,0.0,0.0,0.0,0.0,0.0,0.0,0.0,0.0,0.0,0.0,0.0,0.0,0.0,0.0,0.0,0.0,0.0,0.0,0.0,0.0,0.0,0.0,0.0,0.0,0.0,0.0,0.0,0.0,0.0,0.0,0.0,0.0,0.0,0.0,0.0,0.0,0.0,0.0,0.0,0.0,0.0,0.0,0.0,0.0,0.0,1.9041,2.0956,2.2776,2.3825,2.3681,2.2735,2.1976,2.1585,0.0,0.0,0.0,0.0,0.0,0.0,0.0,0.0,0.0,0.0,0.0,0.0,0.0,0.0,0.0,0.0,0.0,0.0,0.0,0.0,0.0,0.0,0.0,0.0,0.0,0.0,0.0,0.0,0.0,0.0,0.0,0.0,0.0,0.0,0.0,0.0,0.0,0.0,0.0,0.0,0.0,0.0,0.0,0.0,0.0,0.0,0.0,0.0,0.0,0.0,0.0,0.0,0.0,0.0,0.0,0.0,0.0,0.0,0.0,0.0,0.0,0.0,0.0,0.0,0.0,0.0,0.0,0.0,0.0,0.0,0.0,0.0,0.0,0.0,0.0,0.0,0.0,0.0,0.0,0.0,0.0,0.0,0.0,0.0,0.0,0.0,0.0,0.0,0.0,0.0,0.0,0.0,0.0,0.0,0.0,0.0,0.0,0.0,0.0,0.0,0.0,0.0,0.0,2.1375,2.2681,2.3182,2.4242,2.4786,2.4567,2.3644,2.2857,2.2366,2.1083,0.0,0.0,0.0,0.0,0.0,0.0,0.0,0.0,0.0,0.0,0.0,0.0,0.0,0.0,0.0,0.0,0.0,0.0,0.0,0.0,0.0,0.0,0.0,0.0,0.0,0.0,0.0,0.0,0.0,0.0,0.0,0.0,0.0,0.0,0.0,0.0,0.0,0.0,0.0,0.0,0.0,0.0,0.0,0.0,0.0,0.0,0.0,0.0,0.0,0.0,0.0,0.0,0.0,0.0,0.0,0.0,0.0,0.0,0.0,0.0,0.0,0.0,0.0,0.0,0.0,0.0,0.0,0.0,0.0,0.0,0.0,0.0,0.0,0.0,0.0,0.0,0.0,0.0,0.0,0.0,0.0,0.0,0.0,0.0,0.0,0.0,0.0,0.0,0.0,0.0,0.0,0.0,0.0,0.0,0.0,0.0,0.0,0.0,0.0,0.0,0.0,0.0,2.3623,2.4847,2.4825,2.5279,2.5418,2.4997,2.4225,2.3542,2.2925,2.1398,0.0,0.0,0.0,0.0,0.0,0.0,0.0,0.0,0.0,0.0,0.0,0.0,0.0,0.0,0.0,0.0,0.0,0.0,0.0,0.0,0.0,0.0,0.0,0.0,0.0,0.0,0.0,0.0,0.0,0.0,0.0,0.0,0.0,0.0,0.0,0.0,0.0,0.0,0.0,0.0,0.0,0.0,0.0,0.0,0.0,0.0,0.0,0.0,0.0,0.0,0.0,0.0,0.0,0.0,0.0,0.0,0.0,0.0,0.0,0.0,0.0,0.0,0.0,0.0,0.0,0.0,0.0,0.0,0.0,0.0,0.0,0.0,0.0,0.0,0.0,0.0,0.0,0.0,0.0,0.0,0.0,0.0,0.0,0.0,0.0,0.0,0.0,0.0,0.0,0.0,0.0,0.0,0.0,0.0,0.0,0.0,0.0,0.0,0.0,0.0,0.0,0.0,2.1729,2.2724,2.41,2.507,2.5402,2.4848,2.3823,2.3164,2.3183,2.0876,0.0,0.0,0.0,0.0,0.0,0.0,0.0,0.0,0.0,0.0,0.0,0.0,0.0,0.0,0.0,0.0,0.0,0.0,0.0,0.0,0.0,0.0,0.0,0.0,0.0,0.0,0.0,0.0,0.0,0.0,0.0,0.0,0.0,0.0,0.0,0.0,0.0,0.0,0.0,0.0,0.0,0.0,0.0,0.0,0.0,0.0,0.0,0.0,0.0,0.0,0.0,0.0,0.0,0.0,0.0,0.0,0.0,0.0,0.0,0.0,0.0,0.0,0.0,0.0,0.0,0.0,0.0,0.0,0.0,0.0,0.0,0.0,0.0,0.0,0.0,0.0,0.0,0.0,0.0,0.0,0.0,0.0,0.0,0.0,0.0,0.0,0.0,0.0,0.0,0.0,0.0,0.0,0.0,0.0,0.0,0.0,0.0,0.0,0.0,0.0,0.0,0.0,2.4065,2.525,2.6504,2.6651,2.6599,2.6402,2.435,2.3074,2.3022,0.0,0.0,0.0,0.0,0.0,0.0,0.0,0.0,0.0,0.0,0.0,0.0,0.0,0.0,0.0,0.0,0.0,0.0,0.0,0.0,0.0,0.0,0.0,0.0,0.0,0.0,0.0,0.0,0.0,0.0,0.0,0.0,0.0,0.0,0.0,0.0,0.0,0.0,0.0,0.0,0.0,0.0,0.0,0.0,0.0,0.0,0.0,0.0,0.0,0.0,0.0,0.0,0.0,0.0,0.0,0.0,0.0,0.0,0.0,0.0,0.0,0.0,0.0,0.0,0.0,0.0,0.0,0.0,0.0,0.0,0.0,0.0,0.0,0.0,0.0,0.0,0.0,0.0,0.0,0.0,0.0,0.0,0.0,0.0,0.0,0.0,0.0,0.0,0.0,0.0,0.0,0.0,0.0,0.0,0.0,0.0,0.0,0.0,0.0,0.0,0.0,0.0,2.4304,2.52,2.6197,2.7444,2.7243,2.6927,2.654,2.4104,2.2714,2.2944,0.0,0.0,0.0,0.0,0.0,0.0,0.0,0.0,0.0,0.0,0.0,0.0,0.0,0.0,0.0,0.0,0.0,0.0,0.0,0.0,0.0,0.0,0.0,0.0,0.0,0.0,0.0,0.0,0.0,0.0,0.0,0.0,0.0,0.0,0.0,0.0,0.0,0.0,0.0,0.0,0.0,0.0,0.0,0.0,0.0,0.0,0.0,0.0,0.0,0.0,0.0,0.0,0.0,0.0,0.0,0.0,0.0,0.0,0.0,0.0,0.0,0.0,0.0,0.0,0.0,0.0,0.0,0.0,0.0,0.0,0.0,0.0,0.0,0.0,0.0,0.0,0.0,0.0,0.0,0.0,0.0,0.0,0.0,0.0,0.0,0.0,0.0,0.0,0.0,0.0,0.0,0.0,0.0,0.0,0.0,0.0,0.0,0.0,0.0,0.0,0.0,0.0,2.4652,2.436,2.4632,2.6323,2.6499,2.6047,2.4901,2.2774,2.197,0.0,0.0,0.0,0.0,0.0,0.0,0.0,0.0,0.0,0.0,0.0,0.0,0.0,0.0,0.0,0.0,0.0,0.0,0.0,0.0,0.0,0.0,0.0,0.0,0.0,0.0,0.0,0.0,0.0,0.0,0.0,0.0,0.0,0.0,0.0,0.0,0.0,0.0,0.0,0.0,0.0,0.0,0.0,0.0,0.0,0.0,0.0,0.0,0.0,0.0,0.0,0.0,0.0,0.0,0.0,0.0,0.0,0.0,0.0,0.0,0.0,0.0,0.0,0.0,0.0,0.0,0.0,0.0,0.0,0.0,0.0,0.0,0.0,0.0,0.0,0.0,0.0,0.0,0.0,0.0,0.0,0.0,0.0,0.0,0.0,0.0,0.0,0.0,0.0,0.0,0.0,0.0,0.0,0.0,0.0,0.0,0.0,0.0,0.0,0.0,0.0,0.0,0.0,2.5276,2.4673,2.4782,2.6851,2.6725,2.6197,2.5435,2.3335,2.2933,2.5023,0.0,0.0,0.0,0.0,0.0,0.0,0.0,0.0,0.0,0.0,0.0,0.0,0.0,0.0,0.0,0.0,0.0,0.0,0.0,0.0,0.0,0.0,0.0,0.0,0.0,0.0,0.0,0.0,0.0,0.0,0.0,0.0,0.0,0.0,0.0,0.0,0.0,0.0,0.0,0.0,0.0,0.0,0.0,0.0,0.0,0.0,0.0,0.0,0.0,0.0,0.0,0.0,0.0,0.0,0.0,0.0,0.0,0.0,0.0,0.0,0.0,0.0,0.0,0.0,0.0,0.0,0.0,0.0,0.0,0.0,0.0,0.0,0.0,0.0,0.0,0.0,0.0,0.0,0.0,0.0,0.0,0.0,0.0,0.0,0.0,0.0,0.0,0.0,0.0,0.0,0.0,0.0,0.0,0.0,0.0,0.0,0.0,0.0,0.0,0.0,0.0,0.0,2.5719,2.5012,2.5008,2.6801,2.6985,2.6729,2.6165,2.4324,2.3822,2.5358,0.0,0.0,0.0,0.0,0.0,0.0,0.0,0.0,0.0,0.0,0.0,0.0,0.0,0.0,0.0,0.0,0.0,0.0,0.0,0.0,0.0,0.0,0.0,0.0,0.0,0.0,0.0,0.0,0.0,0.0,0.0,0.0,0.0,0.0,0.0,0.0,0.0,0.0,0.0,0.0,0.0,0.0,0.0,0.0,0.0,0.0,0.0,0.0,0.0,0.0,0.0,0.0,0.0,0.0,0.0,0.0,0.0,0.0,0.0,0.0,0.0,0.0,0.0,0.0,0.0,0.0,0.0,0.0,0.0,0.0,0.0,0.0,0.0,0.0,0.0,0.0,0.0,0.0,0.0,0.0,0.0,0.0,0.0,0.0,0.0,0.0,0.0,0.0,0.0,0.0,0.0,0.0,0.0,0.0,0.0,0.0,0.0,0.0,0.0,0.0,0.0,0.0,2.6102,2.5526,2.5387,2.6587,2.7397,2.7597,2.7078,2.5567,2.4716,2.4824,0.0,0.0,0.0,0.0,0.0,0.0,0.0,0.0,0.0,0.0,0.0,0.0,0.0,0.0,0.0,0.0,0.0,0.0,0.0,0.0,0.0,0.0,0.0,0.0,0.0,0.0,0.0,0.0,0.0,0.0,0.0,0.0,0.0,0.0,0.0,0.0,0.0,0.0,0.0,0.0,0.0,0.0,0.0,0.0,0.0,0.0,0.0,0.0,0.0,0.0,0.0,0.0,0.0,0.0,0.0,0.0,0.0,0.0,0.0,0.0,3.3588,3.1539,0.0,0.0,0.0,0.0,0.0,0.0,0.0,0.0,0.0,0.0,0.0,0.0,0.0,0.0,0.0,0.0,0.0,0.0,0.0,0.0,0.0,0.0,0.0,0.0,0.0,0.0,0.0,0.0,0.0,0.0,0.0,0.0,0.0,0.0,0.0,0.0,0.0,0.0,0.0,0.0,2.7124,2.6529,2.6583,2.8297,2.862,2.8502,2.7961,2.6694,2.612,2.6605,2.4316,0.0,0.0,0.0,0.0,0.0,0.0,0.0,0.0,0.0,0.0,0.0,0.0,0.0,0.0,0.0,0.0,0.0,0.0,0.0,0.0,0.0,0.0,0.0,0.0,0.0,0.0,0.0,0.0,0.0,0.0,0.0,0.0,0.0,0.0,0.0,0.0,0.0,0.0,0.0,0.0,0.0,0.0,0.0,0.0,0.0,0.0,0.0,0.0,0.0,0.0,0.0,0.0,0.0,0.0,0.0,0.0,0.0,0.0,0.0,3.8577,3.6149,0.0,0.0,0.0,0.0,0.0,0.0,0.0,0.0,0.0,0.0,0.0,0.0,0.0,0.0,0.0,0.0,0.0,0.0,0.0,0.0,0.0,0.0,0.0,0.0,0.0,0.0,0.0,0.0,0.0,0.0,0.0,0.0,0.0,0.0,0.0,0.0,0.0,0.0,0.0,0.0,2.7635,2.7159,2.7288,2.8837,2.938,2.9487,2.9238,2.8078,2.7384,2.7386,2.5862,0.0,0.0,0.0,0.0,0.0,0.0,0.0,0.0,0.0,0.0,0.0,0.0,0.0,0.0,0.0,0.0,0.0,0.0,0.0,0.0,0.0,0.0,0.0,0.0,0.0,0.0,0.0,0.0,0.0,0.0,0.0,0.0,0.0,0.0,0.0,0.0,0.0,0.0,0.0,0.0,0.0,0.0,0.0,0.0,0.0,0.0,0.0,0.0,0.0,0.0,0.0,0.0,0.0,4.7274,4.8595,4.9584,4.9584,4.8639,4.6881,4.4566,4.196,3.9314,3.9336,0.0,0.0,0.0,0.0,0.0,0.0,0.0,0.0,0.0,0.0,0.0,0.0,0.0,0.0,0.0,0.0,0.0,0.0,0.0,0.0,0.0,0.0,0.0,0.0,3.2757,3.1634,2.813,0.0,0.0,0.0,0.0,0.0,0.0,0.0,0.0,0.0,0.0,0.0,2.8157,2.7898,2.8096,2.933,3.0086,3.051,3.051,2.9446,2.8427,2.7645,2.711,2.5845,0.0,0.0,0.0,0.0,0.0,0.0,0.0,0.0,0.0,0.0,0.0,0.0,0.0,0.0,0.0,0.0,0.0,0.0,0.0,0.0,0.0,0.0,0.0,0.0,0.0,0.0,0.0,0.0,0.0,0.0,0.0,0.0,3.6149,3.7072,0.0,0.0,0.0,0.0,0.0,0.0,0.0,0.0,0.0,0.0,0.0,0.0,0.0,4.813,4.8161,5.1329,5.2303,5.1094,5.3381,5.4226,5.3788,5.3788,5.3653,5.3315,5.2337,0.0,4.154,3.9954,0.0,0.0,0.0,0.0,0.0,0.0,0.0,0.0,0.0,0.0,0.0,0.0,0.0,0.0,0.0,0.0,0.0,0.0,0.0,0.0,0.0,0.0,3.4709,3.3662,3.3811,3.3753,0.0,3.2048,3.2066,3.1087,2.9663,0.0,0.0,0.0,0.0,0.0,0.0,0.0,2.9315,2.9286,2.9766,3.1042,3.1278,3.1336,3.1336,3.0197,2.8933,2.7675,2.595,2.5235,2.5839,2.468,0.0,0.0,0.0,0.0,0.0,0.0,0.0,0.0,0.0,0.0,0.0,0.0,0.0,0.0,0.0,0.0,0.0,0.0,0.0,0.0,0.0,0.0,0.0,0.0,0.0,0.0,0.0,0.0,0.0,3.9168,4.1218,4.0177,4.1735,4.2274,0.0,0.0,0.0,0.0,0.0,0.0,0.0,0.0,0.0,4.9926,5.1329,5.2336,5.301,5.4765,5.5375,5.4767,5.6222,5.6765,5.6427,5.6427,5.6427,5.6393,5.5683,5.2977,4.8925,4.6324,4.4867,4.3948,0.0,0.0,0.0,0.0,3.7386,3.7575,3.833,3.8535,3.8492,3.8743,0.0,0.0,0.0,0.0,0.0,0.0,0.0,3.4507,0.0,0.0,3.6806,3.5489,3.5669,3.5968,3.54,3.4793,3.3919,0.0,3.224,3.2695,3.3053,0.0,0.0,0.0,0.0,2.9988,3.0539,3.0984,3.145,3.1989,3.2049,3.1899,3.154,3.0342,2.9352,2.8753,2.6482,2.5209,2.5348,2.5135,2.5124,0.0,0.0,0.0,0.0,0.0,0.0,0.0,0.0,0.0,0.0,0.0,0.0,0.0,0.0,0.0,0.0,0.0,0.0,0.0,0.0,0.0,0.0,0.0,0.0,0.0,0.0,0.0,0.0,4.2837,4.5149,4.3026,4.5902,4.691,0.0,0.0,0.0,0.0,0.0,0.0,5.0827,5.1665,5.3177,5.5564,5.6109,5.6725,5.7408,5.8152,5.8524,5.8524,5.9066,5.9336,5.9336,5.9133,5.893,5.8727,5.778,5.663,5.5141,5.1492,4.8933,4.7124,4.449,4.3256,4.2907,4.1972,4.1609,4.1704,4.2909,4.323,4.3031,4.2652,4.1945,4.0729,3.7809,0.0,0.0,0.0,0.0,3.6331,3.5681,3.6977,3.8153,3.7195,3.7464,3.7883,3.7704,3.7011,3.572,0.0,3.3856,3.482,3.4982,0.0,0.0,0.0,0.0,3.113,3.1686,3.2346,3.2766,3.2766,3.2617,3.2228,3.157,3.0342,2.9472,2.9112,2.6901,2.5292,2.4634,2.5086,2.4802,2.3577,0.0,0.0,0.0,0.0,0.0,0.0,0.0,0.0,0.0,0.0,0.0,0.0,0.0,0.0,0.0,0.0,0.0,0.0,0.0,0.0,0.0,0.0,0.0,0.0,0.0,0.0,0.0,0.0,0.0,4.5645,4.9907,0.0,0.0,0.0,0.0,4.935,5.2135,5.4292,5.5308,5.7405,5.8927,5.9738,6.1231,6.2009,6.2042,6.2787,6.3159,6.3159,6.3226,6.3226,6.3193,6.2482,6.1772,6.1061,5.9539,5.8457,5.734,5.2198,4.9938,4.9508,4.7191,4.6974,4.789,4.7469,4.673,4.5939,4.5635,4.457,4.3692,4.5466,4.5013,4.3317,4.0535,3.8953,0.0,0.0,3.7315,3.7049,3.6563,3.7404,3.8362,3.8302,3.8811,3.914,3.8482,3.8639,3.8031,0.0,3.2946,3.202,3.2961,0.0,3.2344,3.2899,3.3558,3.3626,3.2557,3.3035,3.3455,3.3455,3.2886,3.2228,3.157,3.0342,2.9052,2.7764,2.6363,2.5292,2.4634,2.349,2.3999,2.6363,2.4769,0.0,0.0,0.0,0.0,0.0,0.0,0.0,0.0,0.0,0.0,0.0,0.0,0.0,0.0,0.0,0.0,0.0,0.0,0.0,0.0,0.0,0.0,0.0,0.0,0.0,0.0,0.0,0.0,5.2505,5.6012,0.0,5.416,5.453,5.5171,5.5643,5.7164,5.9062,6.1332,6.2178,6.3159,6.4377,6.4478,6.4512,6.4512,6.4309,6.4208,6.4208,6.4208,6.4208,6.4174,6.3429,6.2956,6.2651,6.1129,6.0047,5.9099,5.6258,5.3957,5.2065,5.0242,4.9504,4.9441,4.9297,4.8726,4.8088,4.8413,4.7564,4.6249,4.5997,4.4782,4.3167,4.1693,4.0306,3.912,3.8873,3.8392,3.8023,3.8297,3.8721,3.905,3.905,3.923,3.9313,3.911,3.8829,3.8322,3.7225,3.5627,3.4755,3.5651,3.3897,3.3034,3.4969,3.4375,3.3752,3.3784,3.4382,3.4622,3.4173,3.3544,3.2886,3.2198,3.0582,2.9412,2.8933,2.6811,2.5495,2.5232,2.3969,2.3541,2.4081,2.3464,2.4297,0.0,0.0,0.0,0.0,0.0,0.0,0.0,0.0,0.0,0.0,0.0,0.0,0.0,0.0,0.0,0.0,0.0,0.0,0.0,0.0,0.0,0.0,0.0,0.0,0.0,5.3165,5.6835,5.7181,6.0743,6.2115,5.9377,5.9949,6.0622,6.0892,6.2042,6.3599,6.5595,6.5967,6.6576,6.7557,6.6846,6.644,6.644,6.5696,6.5358,6.5358,6.5358,6.5222,6.4952,6.4478,6.3971,6.3463,6.2212,6.1231,6.0385,5.8896,5.6968,5.4803,5.3044,5.1894,5.1251,5.1251,5.0777,5.0168,5.0405,4.9661,4.8382,4.6858,4.5402,4.403,4.2651,4.1539,4.0605,4.0203,3.9738,3.9499,3.9978,4.0068,4.0068,4.0068,4.0068,4.0068,4.0068,3.9379,3.8751,3.8751,3.7535,3.6667,3.7011,3.528,3.4592,3.6806,3.5429,3.4562,3.5669,3.5639,3.534,3.4861,3.4023,3.3215,3.2587,3.1243,3.0018,2.8992,2.7419,2.6141,2.5292,2.4768,2.4209,2.3634,2.3396,2.4081,2.5718,0.0,0.0,0.0,0.0,0.0,0.0,0.0,0.0,0.0,0.0,0.0,0.0,0.0,0.0,0.0,0.0,0.0,0.0,0.0,0.0,0.0,0.0,0.0,5.1997,5.6456,5.9703,5.9333,6.3802,6.5534,6.2106,6.4261,6.5527,6.4816,6.6779,6.7996,6.7996,6.8741,6.9147,6.9147,6.8368,6.7963,6.7929,6.7252,6.688,6.688,6.688,6.6474,6.5764,6.573,6.4952,6.3531,6.2753,6.2009,6.1231,5.9674,5.8592,5.7679,5.548,5.416,5.3551,5.3518,5.2976,5.2198,5.1488,5.0744,4.9905,4.833,4.7275,4.6192,4.3759,4.2936,4.2654,4.1723,4.1452,4.1452,4.1422,4.1422,4.1422,4.1422,4.1422,4.1422,4.1422,4.0367,3.9433,3.9433,3.8422,3.7285,3.6626,3.6507,3.6896,3.8153,3.6716,0.0,3.8063,3.6656,3.5519,3.5579,3.4412,3.3365,3.2706,3.2377,3.092,2.7854,2.8033,2.7149,2.4761,2.5717,2.6001,2.5408,2.4809,2.4253,2.3729,0.0,0.0,0.0,0.0,0.0,0.0,0.0,0.0,0.0,0.0,0.0,0.0,0.0,0.0,0.0,0.0,0.0,0.0,0.0,0.0,0.0,5.4771,5.6368,5.6774,6.0526,6.3822,6.529,6.7692,6.8885,6.7912,6.8513,6.8876,6.8673,6.9722,7.0364,7.0364,7.0567,7.0466,6.9891,6.9688,6.9316,6.8774,6.8571,6.847,6.847,6.847,6.8064,6.7286,6.6745,6.5967,6.5019,6.3768,6.2787,6.1975,6.0419,5.9066,5.7712,5.6055,5.4938,5.4228,5.3687,5.2976,5.2198,5.1488,5.1082,5.0847,5.0385,4.9293,4.7967,4.7297,4.573,4.4093,4.334,4.2652,4.2021,4.1542,4.1422,4.1422,4.1422,4.1422,4.1422,4.1422,4.1085,4.0846,4.0846,4.0157,3.905,3.7434,3.6776,3.6596,3.6956,3.6148,0.0,3.6237,3.5818,3.6058,3.7434,3.6836,3.6088,3.5459,3.4022,3.1959,2.9232,2.7803,2.6762,2.6093,2.5896,2.5723,2.5544,2.6314,2.6637,0.0,0.0,0.0,0.0,0.0,0.0,0.0,0.0,0.0,0.0,0.0,0.0,0.0,0.0,0.0,0.0,0.0,0.0,0.0,0.0,0.0,0.0,5.9373,6.1402,6.2898,6.4776,6.6711,6.8639,6.9925,7.0669,7.0669,7.0669,7.0669,7.0669,7.1075,7.1312,7.1312,7.1312,7.1109,7.0669,7.0364,6.9992,6.9553,6.9248,6.9113,6.9113,6.9113,6.8673,6.7895,6.7455,6.6508,6.5189,6.4343,6.3362,6.2313,6.1095,5.9911,0.0,0.0,0.0,0.0,0.0,5.3213,5.2739,5.2334,5.1961,5.1657,5.1657,5.0791,4.966,4.929,4.8099,4.6689,4.5593,4.4589,4.3708,4.3031,4.2508,4.2192,4.2192,4.2192,4.2192,4.2192,4.1983,4.1841,4.1841,4.1025,0.0,3.8871,3.7883,3.7464,3.8033,3.7075,3.6507,3.7075,3.6417,3.6237,3.7075,3.6596,3.6028,3.5701,3.4528,0.0,0.0,0.0,2.8293,2.7757,2.6832,0.0,0.0,0.0,2.727,2.6752,2.7854,0.0,0.0,2.7891,2.8338,0.0,0.0,0.0,0.0,0.0,0.0,0.0,0.0,0.0,0.0,0.0,0.0,0.0,0.0,0.0,0.0,6.4556,6.7157,6.9465,6.9064,6.8977,7.0161,7.0973,7.1413,7.1312,7.1312,7.1312,7.1312,7.1312,7.1312,7.1312,7.1312,0.0,0.0,0.0,7.0297,7.0297,6.9688,6.935,6.935,6.935,6.8876,6.803,6.803,6.688,6.485,6.4681,6.3869,6.255,6.1569,6.0655,5.9641,5.7611,5.5886,5.4499,5.3856,5.3585,5.3518,5.3518,0.0,0.0,5.2435,5.1928,5.1156,5.0324,5.0017,4.961,4.8016,4.6882,4.6008,4.5279,4.4266,4.3527,4.3615,4.3536,4.3527,4.3615,4.3124,4.2655,4.2655,4.1588,4.0636,4.0636,3.9379,3.8781,4.0008,3.8601,3.7823,3.896,3.7554,3.6327,3.5878,0.0,0.0,3.4833,3.4582,3.3627,3.163,3.1217,3.0507,2.9377,2.8274,2.7891,2.8429,2.7921,2.7105,2.6063,2.6632,2.6956,2.7016,2.9335,2.984,0.0,0.0,0.0,0.0,0.0,0.0,0.0,0.0,0.0,0.0,0.0,0.0,0.0,0.0,0.0,6.7587,6.9555,7.1373,7.3567,7.3014,7.209,7.121,7.1751,7.1954,7.1379,7.1312,7.1312,7.1312,7.1312,7.1312,7.1312,7.1312,7.1312,7.1312,7.1176,7.1109,7.1109,7.0973,7.0872,7.0872,0.0,0.0,6.8876,6.8876,6.7963,6.6305,6.5121,6.4444,6.3971,6.14,5.9539,5.822,5.7205,5.5886,5.4566,5.4431,5.4025,5.3518,5.3518,5.3416,5.3281,5.3281,5.2739,5.2064,5.1865,5.1226,0.0,4.954,4.8602,4.7675,4.7012,4.5671,4.4699,4.5488,4.5048,4.4737,4.5488,4.4954,4.4326,4.4326,4.3069,4.2021,4.2021,3.9978,3.8482,3.8751,3.8003,3.7315,3.7075,3.6716,3.6836,3.7734,3.7704,3.7434,3.6896,3.6354,3.4769,3.169,3.0524,2.9779,2.9567,2.9298,2.9238,2.9358,2.9238,2.9086,2.8843,2.8963,2.9022,2.9022,2.8449,2.8359,0.0,0.0,0.0,0.0,0.0,0.0,0.0,0.0,0.0,0.0,0.0,6.1292,6.3535,0.0,6.875,7.1855,7.3157,7.4111,7.5196,7.4898,7.4052,7.2563,7.2732,7.28,7.2428,7.2394,7.2394,7.2394,7.2394,7.2225,7.1887,7.1853,7.1684,7.1312,7.1312,7.1312,7.1312,7.1312,7.1312,7.1312,7.1312,7.0534,6.9113,6.9113,6.8064,6.6203,6.5087,6.441,6.3903,6.1637,6.0047,5.893,5.8186,5.7002,5.5615,5.4871,5.4363,5.3991,5.3619,5.3518,5.3518,5.3518,5.3247,5.2909,5.2909,5.2573,5.1996,5.1262,5.0344,4.944,4.8725,4.7333,4.6171,4.6646,4.6104,4.5634,4.6103,4.585,4.5488,4.5488,4.4186,4.3084,4.3084,4.1338,3.9768,3.9439,3.911,3.8542,3.7554,3.7434,3.7434,3.7434,3.7434,3.7165,3.6507,3.5848,3.4622,3.2647,3.127,3.0552,3.0552,2.9924,2.9621,2.9621,2.9621,2.9621,2.9621,2.9621,2.9621,2.9592,2.8903,2.8783,0.0,0.0,0.0,0.0,0.0,0.0,0.0,5.8421,6.0386,6.3494,6.5442,6.733,6.9907,7.1869,7.3624,7.5241,7.6434,7.6885,7.6305,7.6258,7.568,7.4184,7.3818,7.3578,7.3308,7.3409,7.3477,7.3477,7.3341,7.3003,7.2428,7.2259,7.1921,7.1345,7.1312,7.1312,7.1312,7.1312,7.1312,7.1312,7.1312,7.0601,6.9316,6.9316,6.8132,6.6068,6.5053,6.4106,6.3193,6.1839,6.0825,6.0047,5.9471,5.8423,5.707,5.5547,5.4938,5.4735,5.4126,5.3822,5.3721,5.3721,5.3619,5.3518,5.3518,5.3518,5.3382,5.2706,5.19,5.1052,5.042,4.9038,4.7848,4.8026,4.7467,4.691,4.6955,4.6786,4.6615,4.6486,4.5267,4.4273,4.4273,4.3181,4.1903,4.0621,4.0544,4.0106,3.8607,3.8711,3.8296,3.6693,3.6643,3.6406,3.5549,3.4891,3.4294,3.3724,3.2587,3.1899,3.1899,3.0911,3.031,3.0163,3.0163,3.0073,2.9953,2.9953,2.9953,2.9953,2.9953,2.9894,5.2579,5.3243,5.5332,5.9976,5.9928,6.1246,0.0,7.0577,6.8929,7.2155,7.3991,7.4903,7.4508,7.7185,7.9147,7.8145,8.0347,8.1235,7.8534,7.8231,7.7688,7.6088,7.5083,7.3984,7.2665,7.3105,7.3477,7.3477,7.2868,7.2496,7.2394,7.1785,7.1413,7.1312,7.1312,7.1312,7.1312,7.1312,7.1312,7.1312,7.1312,7.0872,7.006,7.006,6.918,6.7523,6.5493,6.3802,6.2448,6.1637,6.0825,6.008,6.0013,5.9471,5.8592,5.7103,5.6156,5.5581,5.5513,5.504,5.4465,5.4465,5.4025,5.3518,5.3518,5.3518,5.3484,5.3382,5.2774,5.2134,5.2032,5.0793,4.9718,5.0592,5.0059,4.9421,4.9652,4.9028,4.8228,4.7571,4.6597,4.5904,4.5904,4.5769,4.4463,4.0932,4.1066,4.0791,3.8647,3.9734,3.9627,3.6797,3.7142,3.6995,3.5614,3.4891,3.4474,3.4384,3.3694,3.3275,3.3275,3.3125,3.2796,3.2198,3.2198,3.1869,3.1301,3.1301,3.1301,3.1301,3.1301,3.0972,5.8969,5.9423,6.0484,6.3872,6.6013,6.8694,7.4019,7.4043,7.3685,7.6587,7.8769,7.9772,7.8516,8.1008,8.2811,8.1328,8.2353,8.2755,8.1012,7.9522,7.784,7.582,7.4627,7.3883,7.3713,7.395,7.4153,7.4153,7.3849,7.3308,7.2462,7.2124,7.1751,7.1312,7.1312,7.1312,7.1312,7.1312,7.1312,7.1312,7.1312,7.0906,7.0195,7.0195,6.9113,6.7184,6.5831,6.4647,6.3666,6.3362,6.2787,6.2042,6.1603,6.0994,6.0182,5.866,5.734,5.6359,5.6359,5.5852,5.5175,5.4735,5.4397,5.4059,5.3619,5.3518,5.3518,5.3518,5.3281,5.301,5.301,5.2135,5.1363,5.1728,5.1226,5.0659,5.0715,5.042,4.9924,4.922,4.8662,4.8016,4.7167,4.6913,4.5992,4.3568,4.3528,4.3255,4.1938,4.2038,4.1086,3.8102,3.7742,3.7122,3.5614,3.525,3.5264,3.5706,3.4694,3.427,3.4698,3.394,3.3365,3.3095,3.3095,3.2946,3.2677,3.2677,3.2437,3.2079,3.2467,3.2317,6.2307,6.3548,6.4939,6.7651,7.169,7.5502,7.7385,7.7967,7.8747,8.0837,8.2272,8.2683,8.1339,8.2962,8.4064,8.2616,8.3314,8.3519,8.1852,8.0158,7.8049,7.5412,7.3806,7.331,7.4309,7.4339,7.439,7.4593,7.4221,7.3713,7.3037,7.2631,7.2259,7.1921,7.1718,7.1616,7.1616,7.1413,7.1312,7.1312,7.1312,7.1041,7.05,7.0297,6.9282,6.7692,6.6508,6.5696,6.5189,6.4783,6.4309,6.3768,6.3226,6.255,6.1772,6.0655,5.9066,5.7408,5.7408,5.6799,5.5886,5.5141,5.4769,5.4465,5.3721,5.3518,5.3518,5.3518,5.3518,5.3518,5.3518,5.3078,5.2638,5.2638,5.2232,5.1792,5.1555,5.1522,5.1285,5.0541,5.0123,4.9526,4.8497,4.8031,4.7425,4.6417,4.6254,4.5762,4.4357,4.3392,4.2013,3.9913,3.8874,3.7841,3.6563,3.6439,3.6599,3.6905,3.5953,3.5554,3.5887,3.4912,3.418,3.3754,3.3754,3.3787,3.3849,3.3849,3.3577,3.3123,3.3607,3.3427,5.9734,6.3043,6.7221,7.2072,7.6478,8.0612,8.4572,8.5228,8.5242,8.6108,8.4804,8.3302,8.2475,8.2411,8.2106,8.0973,8.3294,8.3956,8.0181,8.0014,7.8976,7.5497,7.2883,7.2029,7.3772,7.3683,7.3815,7.4559,7.3274,7.3071,7.4458,7.3172,7.2699,7.3409,7.2732,7.236,7.236,7.1684,7.1312,7.1312,7.1312,7.1312,7.1244,7.0534,7.0161,6.9958,6.776,6.6779,6.6643,6.5189,6.458,6.4546,6.4546,6.4072,6.3463,6.3396,6.1501,5.893,5.893,5.7983,5.6664,5.5919,5.5175,5.4465,5.3721,5.3518,5.3518,5.3518,5.3518,5.3518,5.3518,5.3484,5.345,5.345,5.345,5.3213,5.2435,5.2266,5.2063,5.1319,5.0576,5.0069,5.0035,4.9429,4.8925,4.8889,4.8858,4.7755,4.4589,4.3008,4.2136,4.2206,4.0829,3.964,3.8846,3.8814,3.8496,3.7796,3.7732,3.735,3.6599,3.6538,3.586,3.4503,3.4474,3.4546,3.4676,3.4676,3.4645,3.4645,3.4645,3.4237,6.4124,6.8356,7.3061,7.8018,8.1933,8.5086,8.6958,8.672,8.5711,8.4412,8.3169,8.1656,7.9376,7.9772,8.0363,8.0076,8.2602,8.3879,8.1754,8.2771,8.1845,7.6715,7.5849,7.5107,7.3561,7.2588,7.2609,7.4056,7.3527,7.3341,7.3849,7.3849,7.3747,7.351,7.324,7.2665,7.1684,7.1447,7.1312,7.1312,7.1312,7.1312,7.1278,7.0534,7.0195,7.0128,6.8876,6.803,6.7489,6.6981,6.6508,6.6034,6.5527,6.5189,6.485,6.3869,6.255,6.1095,6.008,5.9099,5.7983,5.6292,5.5547,5.5108,5.389,5.3518,5.3518,5.3518,5.3518,5.3518,5.3518,5.3518,5.3518,5.3518,5.3518,5.345,5.3145,5.3112,5.2875,5.2097,5.2164,5.2029,5.1014,5.0642,5.0135,4.9154,4.9018,4.8428,4.686,4.5799,4.4673,4.3208,4.2118,4.101,3.9762,3.9638,3.9556,3.9336,3.8814,3.8415,3.8133,3.7674,3.7168,3.6711,3.6681,3.6704,3.6745,3.6745,3.6521,3.6105,3.6552,3.6086,6.9108,7.364,7.8065,8.2741,8.6114,8.828,8.8206,8.7632,8.6243,8.3266,8.1488,7.9611,7.665,7.623,7.6554,7.7187,7.9224,8.0823,8.1224,8.2163,8.1585,7.8331,7.7685,7.6953,7.5581,7.378,7.3033,7.3864,7.3888,7.4018,7.4255,7.4728,7.4897,7.4695,7.3916,7.3037,7.209,7.1582,7.1312,7.1312,7.1312,7.1312,7.1312,7.0804,7.0601,7.0534,6.9823,6.9045,6.8301,6.803,6.7489,6.6779,6.6271,6.6102,6.5899,6.4444,6.3599,6.2888,6.0825,5.9641,5.8693,5.6731,5.6089,5.5886,5.4668,5.4296,5.4228,5.3957,5.389,5.3822,5.3585,5.3518,5.3518,5.3518,5.3518,5.3518,5.3518,5.3518,5.3348,5.2841,5.2909,5.2773,5.1758,5.1354,5.0879,4.9932,4.956,4.9052,4.8007,4.7496,4.6439,4.4453,4.3794,4.2891,4.134,4.1213,4.112,4.0906,4.016,3.9603,3.9336,3.8572,3.8048,3.7822,3.7793,3.7937,3.8189,3.8189,3.7991,3.7566,3.7991,3.7534,7.4195,7.862,8.2132,8.619,8.8904,9.0188,8.85,8.8023,8.6738,8.27,7.9741,7.7061,7.4337,7.203,7.1118,7.2818,7.3974,7.5831,7.9171,7.9102,7.9175,8.0439,7.8697,7.7976,7.954,7.7196,7.5184,7.4252,7.4502,7.5033,7.5845,7.5879,7.6183,7.6893,7.4796,7.3578,7.3443,7.2067,7.1401,7.1401,7.1401,7.1356,7.1312,7.1312,7.1312,7.1278,7.0567,6.9823,6.9113,6.8335,6.7557,6.688,6.688,6.6846,6.6643,6.5155,6.4613,6.4174,6.1197,5.9708,5.8896,5.734,5.6867,5.6697,5.5953,5.5681,5.5581,5.4837,5.4668,5.4499,5.3788,5.3585,5.3551,5.3551,5.3518,5.3518,5.3518,5.3518,5.3518,5.3518,5.2875,5.2367,5.23,5.1725,5.1219,5.1183,5.0541,4.9593,4.8176,4.7939,4.7331,4.5974,4.5805,4.5162,4.3646,4.3511,4.32,4.2388,4.1711,4.0949,4.0167,3.9418,3.8668,3.7937,3.7937,3.8246,3.8962,3.8962,3.8962,3.8962,3.8962,3.8553,7.8526,8.2961,8.685,8.9124,9.0152,9.0041,8.7802,8.5453,8.2557,7.839,7.4592,7.137,6.9097,6.9327,7.0857,7.3973,7.806,8.1617,8.3975,8.661,8.7193,8.4361,8.4788,8.4428,8.2173,8.1119,7.985,7.8192,7.6402,7.6251,7.8145,7.8247,7.7841,7.6927,7.6352,7.4965,7.2699,7.2535,7.2448,7.2448,7.2448,7.2013,7.1312,7.1312,7.1312,7.1312,7.1109,7.0601,6.9891,6.9688,6.8842,6.7624,6.7624,6.7286,6.6643,6.5155,6.4613,6.4241,6.1839,6.0858,6.0385,5.8287,5.7611,5.7374,5.6089,5.5681,5.5647,5.548,5.5446,5.5378,5.5209,5.4735,5.4329,5.4329,5.389,5.3518,5.3518,5.3518,5.3518,5.3518,5.3348,5.301,5.2401,5.2131,5.1657,5.0541,5.0202,4.9965,4.9593,4.8578,4.7736,4.7365,4.6853,4.6143,4.5196,4.5128,4.4553,4.32,4.2936,4.2274,4.0968,4.0707,4.0292,3.9506,3.9506,3.961,3.9765,3.9765,3.9765,3.9765,3.9765,3.9368,8.3618,8.6921,8.9638,9.1289,9.0629,8.8647,8.5227,8.1856,7.7982,7.282,6.9563,6.6862,6.4533,6.5938,6.8502,7.1577,7.6218,8.0839,8.4992,8.7299,8.8179,8.7193,8.774,8.7408,8.5373,8.461,8.4088,8.3619,8.0697,7.9234,7.9837,8.0635,8.0444,7.8877,7.8231,7.6537,7.3806,7.3944,7.3807,7.3452,7.3452,7.3166,7.2624,7.2624,7.2624,7.2624,7.2624,7.2209,7.1449,7.0675,6.9678,6.8508,6.7734,6.7184,6.6677,6.5493,6.4884,6.4377,6.2821,6.2042,6.1467,5.9505,5.866,5.822,5.7408,5.6934,5.6596,5.6292,5.619,5.6122,5.5749,5.5412,5.5006,5.4668,5.4262,5.389,5.3585,5.3518,5.3518,5.3518,5.3518,5.3382,5.2909,5.2841,5.2536,5.1725,5.1014,5.0574,5.0574,4.9323,4.8244,4.7906,4.753,4.6989,4.6244,4.6177,4.5669,4.4485,4.4113,4.3403,4.2219,4.1847,4.1339,4.0595,4.0561,4.0392,4.0113,4.0113,4.0113,4.0113,4.0113,3.9876,8.8683,9.0408,9.1289,9.2758,9.0555,8.6809,8.2022,7.7971,7.3523,6.744,6.5048,6.3357,6.1037,6.2894,6.5783,6.8845,7.2621,7.7651,8.4752,8.533,8.6233,8.9345,8.9124,8.8611,8.8469,8.7589,8.7516,8.8644,8.5817,8.3241,8.1561,8.2971,8.3097,8.1497,7.9914,7.8114,7.6027,7.5778,7.5316,7.4498,7.4498,7.4423,7.4272,7.4272,7.4272,7.4272,7.4272,7.3845,7.3023,7.166,7.0526,6.944,6.8001,6.7243,6.688,6.6102,6.5358,6.4647,6.3903,6.3159,6.2279,6.0622,5.9742,5.9268,5.8964,5.849,5.7881,5.7137,5.6934,5.6799,5.6156,5.5919,5.5683,5.4905,5.4668,5.4397,5.3653,5.3518,5.3551,5.3619,5.3585,5.3518,5.3518,5.3518,5.345,5.3382,5.2198,5.1319,5.1185,4.9932,4.8748,4.8108,4.8041,4.7767,4.6989,4.6955,4.6616,4.5906,4.5128,4.4384,4.3578,4.2828,4.2083,4.1373,4.1339,4.1035,4.0383,4.0383,4.0383,4.0383,4.0383,4.035,9.1693,9.2574,9.2758,9.3015,9.0152,8.5964,8.1208,7.5873,7.049,6.5459,6.2427,6.0669,6.0774,6.293,6.6785,7.3234,7.6209,8.0451,8.8505,8.9016,8.9235,9.1179,9.1253,9.0776,8.9788,8.9549,8.9096,8.8366,8.8628,8.7686,8.5129,8.4738,8.3876,8.2317,8.0197,7.896,7.8711,7.7415,7.6336,7.5545,7.5545,7.5084,7.4272,7.4272,7.4272,7.4272,7.4272,0.0,7.2881,7.3456,7.2215,7.0113,7.067,6.9556,6.7624,6.688,6.6136,6.5392,6.4681,6.3937,6.2956,6.0791,6.0452,6.0554,5.866,5.8423,5.866,5.7915,5.7712,5.7679,5.7543,5.707,5.6427,5.5683,5.504,5.4397,5.3653,5.3518,5.3687,5.4296,5.3923,5.3518,5.3518,5.3518,5.3281,5.2604,5.2266,5.1894,5.1285,4.9932,4.8951,4.8815,4.8815,4.8511,4.7767,4.7733,4.7394,4.665,4.5906,4.5162,4.4445,4.3639,4.2861,4.2117,4.2117,4.2049,4.1941,4.1941,4.1941,4.1941,4.1941,4.1576,9.3822,9.3749,9.3198,9.3602,8.9381,8.3798,7.8597,7.2863,6.7122,6.1936,6.0029,5.9245,5.9056,6.2166,6.6142,7.0447,7.3057,7.7558,8.6159,8.6375,8.7178,9.1289,9.1803,9.1583,9.0984,9.0945,9.0676,9.0087,9.0598,8.9715,8.693,8.5873,8.5174,8.4851,8.2972,8.1599,8.0857,8.0089,7.8887,7.7251,7.7251,7.6766,7.5857,7.5857,7.5857,7.5857,7.5857,7.558,7.512,7.4655,7.3718,7.2497,7.2072,7.0853,6.9227,6.8507,6.7387,6.6253,6.5972,6.5143,6.3939,6.2507,6.1688,6.1095,6.0013,5.9607,5.9505,5.9133,5.9032,5.9032,5.9032,5.849,5.778,5.7036,5.5987,5.5074,5.4735,5.4668,5.4769,5.5108,5.4566,5.4059,5.4059,5.3754,5.3382,5.2976,5.257,5.2164,5.1826,5.0845,5.0168,5.0168,4.9458,4.9018,4.9052,4.8714,4.8173,4.7428,4.7056,4.6515,4.5771,4.5365,4.4654,4.3532,4.3498,4.3125,4.2286,4.2286,4.2286,4.2286,4.2286,4.2117,9.4887,9.4593,9.3712,9.4189,8.894,8.2145,7.6427,7.055,6.4757,5.9195,5.8346,5.8422,5.785,6.1032,6.4585,6.7016,6.9193,7.3726,8.2834,8.3151,8.4685,9.0812,9.1693,9.1803,9.1803,9.1803,9.1803,9.1803,9.1657,9.052,8.8121,8.6902,8.6518,8.6995,8.56,8.4095,8.248,8.2296,8.1085,7.8846,7.8662,7.8259,7.7598,7.7384,7.7273,7.7273,7.7273,7.7181,7.6883,7.5742,7.4986,7.4505,7.3333,7.207,7.0837,7.0244,6.8932,6.7432,6.7569,6.6758,6.5504,6.4774,6.3324,6.1703,6.1206,6.0723,6.0317,6.0148,6.0114,6.0152,6.0343,5.9689,5.8795,5.7881,5.6664,5.575,5.5919,5.5818,5.5749,5.5919,5.5344,5.4837,5.4837,5.4363,5.3923,5.3754,5.3213,5.2739,5.257,5.1928,5.1522,5.1658,5.0371,4.9661,5.0067,4.956,4.8917,4.8206,4.7973,4.7665,4.7056,4.6887,4.6244,4.5089,4.4919,4.4215,4.3031,4.2861,4.2794,4.2794,4.2794,4.2692,9.4263,9.5401,9.5144,9.4446,8.9344,8.2843,7.6537,7.0634,6.4923,5.9311,5.8047,5.8079,5.8713,5.9736,6.2178,6.753,6.8588,7.2144,8.1919,8.3197,8.4987,9.0079,9.1363,9.1803,9.1803,9.1803,9.1803,9.1803,9.1106,9.0299,8.9275,8.8429,8.7692,8.7031,8.6151,8.4903,8.3324,8.2553,8.1342,7.9653,7.8956,7.8552,7.8442,7.7671,7.7273,7.7273,7.7273,7.6793,0.0,7.6751,7.5988,7.4391,7.519,7.3976,7.1862,7.1791,7.0801,6.9457,6.9459,6.8929,6.8116,6.7268,6.5373,6.3082,6.0853,6.0655,6.1028,6.0317,6.0114,6.0306,6.115,6.0204,5.866,5.7239,5.6292,5.5886,5.6562,5.619,5.5919,5.6562,5.6122,5.5615,5.5615,5.5547,5.5277,5.46,5.4431,5.416,5.3484,5.2706,5.2469,5.3213,5.1928,5.0744,5.0135,5.0033,4.9661,4.8951,4.8274,4.7872,4.7804,4.7158,4.6718,4.6583,4.594,4.5534,4.5399,4.4722,4.4412,4.4412,4.4412,4.3978,9.3345,9.4777,9.4703,9.4373,8.7651,8.0,7.5985,6.9235,6.2732,5.8952,5.8156,5.8198,5.826,5.9371,6.1053,6.3593,6.3656,6.629,7.4622,7.5043,7.7589,8.5969,8.8133,8.9674,9.162,9.2281,9.2354,9.184,9.151,9.0959,9.0188,8.8904,8.8059,8.7729,8.6481,8.527,8.4132,8.3324,8.2113,8.0498,7.969,7.9066,7.8552,7.7708,7.7273,7.7273,7.7273,7.7051,0.0,7.7113,7.6824,7.6164,7.653,7.5409,7.3508,7.3077,7.18,7.0381,7.0509,7.0033,6.935,6.9027,6.7939,6.6201,6.3197,6.2478,6.2684,6.2341,6.264,6.3136,6.3515,6.237,6.0798,5.9321,5.8315,5.7645,5.7476,5.7239,5.7103,5.7408,5.6867,5.6359,5.6359,5.6021,5.5446,5.4702,5.46,5.4329,5.3585,5.3213,5.3145,5.3484,5.2131,5.1285,5.142,5.1014,5.0439,4.9695,4.939,4.9018,4.8578,4.8274,4.7936,4.7496,4.7192,4.6819,4.6346,4.6041,4.5906,4.5906,4.5906,4.5737,8.993,9.2648,9.3822,9.3345,8.6255,7.8492,7.5169,6.8136,6.156,5.8835,5.8371,5.8312,5.8042,5.9341,6.0628,6.1084,6.1131,6.3381,7.0033,7.042,7.3317,8.2117,8.4609,8.6848,9.0078,9.1803,9.2464,9.184,9.1803,9.1436,9.0629,8.9307,8.8463,8.8206,8.6628,8.5416,8.4609,8.3801,8.259,8.1012,8.0167,7.936,7.8552,7.7708,7.7273,7.7273,7.7273,7.7273,0.0,7.7273,7.7273,7.7273,7.7273,7.6381,7.4961,7.4482,7.3185,7.1677,7.1829,7.133,7.064,7.0453,6.9828,6.8598,6.5714,6.4638,6.4392,6.4148,6.4734,6.529,6.4782,6.3824,6.2613,6.1085,6.0044,5.9268,5.8723,5.8835,5.8908,5.8702,5.8393,5.8119,5.7913,5.7432,5.6848,5.6092,5.5989,5.5547,5.4359,5.4156,5.3988,5.3551,5.2536,5.1995,5.2266,5.1826,5.1217,5.0473,5.0439,5.0202,4.9695,4.9661,4.9323,4.8578,4.8342,4.7868,4.7124,4.6921,4.6786,4.6786,4.6786,4.6684,8.3174,8.883,9.2721,9.1069,8.5783,7.9538,7.3999,6.7768,6.2285,5.9058,5.8443,5.8486,5.8415,5.961,6.0796,6.1484,6.2698,6.5332,7.0397,7.2357,7.4909,7.9328,8.1269,8.3508,8.6738,8.9931,9.1803,9.1803,9.1803,9.1436,9.0629,8.9858,8.905,8.8243,8.6628,8.5416,8.4609,8.3801,8.259,8.1012,8.0167,7.936,7.8552,7.7708,7.7273,7.7273,7.7273,7.7273,0.0,7.7273,7.7273,7.7273,7.7273,7.6796,7.6093,7.6093,7.5065,7.3641,7.367,7.3156,7.232,7.155,7.0688,6.9678,6.8058,6.6925,6.599,6.5212,6.5649,6.6006,6.4337,6.3899,6.3458,6.1883,6.0843,6.0255,6.0289,6.0957,6.1317,6.0543,6.0999,6.1282,6.0508,6.0366,6.0083,5.9365,5.9259,5.8421,5.6081,5.5778,5.5187,5.3652,5.3484,5.3179,5.2367,5.23,5.1961,5.1251,5.1217,5.1217,5.1151,5.1151,5.0845,5.0067,4.9357,4.8646,4.7872,4.7158,4.6786,4.6786,4.6786,4.6413,7.5191,7.8541,8.0551,7.9454,7.4801,7.0052,6.8351,6.3833,5.9723,5.8687,5.8551,5.8572,5.8437,5.9678,6.0903,6.1397,6.2761,6.4463,6.6528,6.9689,7.3573,7.8411,8.4756,8.9381,9.1033,9.1546,9.1803,9.1803,9.1803,9.1436,9.0629,8.9858,8.905,8.8243,8.6114,8.4866,8.4609,8.3251,8.2333,8.1782,8.0424,7.9653,7.936,7.7965,7.7273,7.7273,7.7273,7.7273,7.7273,7.7273,7.7273,7.7273,7.7273,7.6827,7.6093,7.6093,7.5065,7.3707,7.3707,7.3156,7.2459,7.2202,7.1919,7.1523,7.0464,6.8766,6.724,6.757,6.8291,6.869,6.7622,6.6861,6.6007,6.4398,6.3364,6.2624,6.2129,6.2248,6.2368,6.2088,6.1805,6.1698,6.1982,6.1136,6.0326,6.0139,5.9643,5.8844,5.758,5.7444,5.7248,5.6764,5.6698,5.5744,5.3313,5.3112,5.2807,5.1995,5.1961,5.1725,5.1219,5.1185,5.1116,5.0879,5.0642,5.0373,5.0137,4.9424,4.8781,4.8308,4.8308,4.7902,6.8194,7.1563,7.3607,7.2797,6.9057,6.5386,6.4583,6.1337,5.8344,5.7793,5.8227,5.8582,5.8138,5.9546,6.0886,6.1141,6.2643,6.4187,6.5294,6.9226,7.4109,7.9732,8.6077,9.0335,9.1179,9.1583,9.1803,9.1803,9.1803,9.1583,9.1069,9.0005,8.9197,8.8683,8.604,8.4609,8.4609,8.2994,8.2039,8.1746,8.0424,7.9617,7.9286,7.7928,7.7273,7.7273,7.7273,7.7273,0.0,7.7273,7.7273,7.7273,7.7273,7.698,7.657,7.657,7.5726,7.4588,7.4588,7.4074,7.3377,7.3046,7.2532,7.1945,7.1439,7.0018,6.8633,6.92,6.9706,6.9963,6.9486,6.8473,6.7336,6.6355,6.5207,6.4234,6.3765,6.3938,6.4105,6.3788,6.3572,6.35,6.3716,6.2896,6.2249,6.2278,6.1882,6.1078,5.971,5.9538,5.9173,5.8284,5.8184,5.7379,5.5453,5.4724,5.3884,5.284,5.3034,5.2957,5.2479,5.276,5.2654,5.207,5.207,5.1775,5.1185,5.0473,4.9986,4.9816,4.9543,4.8997,0.0,6.6985,7.0243,6.9405,6.6997,6.4278,6.2068,5.9915,0.0,5.6672,5.7583,5.8417,5.7749,5.9375,6.0822,6.0932,6.261,6.4522,6.6339,7.0877,7.6417,8.292,8.5857,8.7582,8.8133,9.0372,9.1803,9.1803,9.173,9.1693,9.162,9.0188,8.9272,8.9198,8.6224,8.4609,8.4609,8.2994,8.1819,8.1085,8.0277,7.9433,7.8662,7.7818,7.7347,0.0,7.7273,7.7273,7.7273,7.7273,7.7273,7.7273,7.7273,7.7273,7.7273,7.7273,7.679,7.6093,7.6093,7.5579,7.4771,7.3964,7.2679,7.1468,7.1431,7.0844,7.0183,7.0183,7.022,7.022,7.011,6.8976,6.7825,6.7716,6.6529,6.5481,6.5481,6.6097,6.6439,6.5705,6.6072,6.6292,6.5595,6.5375,6.5338,6.5375,6.5338,6.4506,6.225,6.1914,6.1052,5.8944,5.8608,5.8508,5.8449,5.6891,5.5283,5.382,5.433,5.4665,5.4665,5.535,5.5062,5.3688,5.3688,5.2912,5.1412,5.0764,5.0724,5.1234,5.0575,4.9812,5.5906,0.0,5.8628,5.7814,5.754,5.7265,0.0,5.6681,5.6772,5.7154,5.7427,5.7942,5.9017,5.9981,6.1014,6.2145,6.3796,6.548,6.7075,7.4205,8.1012,8.5732,8.89,9.0077,8.8564,9.048,9.1803,9.1803,9.1216,9.0629,9.0005,8.9014,8.8206,8.7582,8.5637,8.4609,8.4609,8.2994,8.2113,8.1893,8.1085,8.0314,7.947,7.8662,7.7928,7.7273,7.7273,7.7273,7.7273,7.7273,7.7273,7.7273,7.7273,7.7273,7.7273,7.7273,7.679,7.6093,7.6093,7.5579,7.4771,7.3964,7.345,7.301,7.2422,7.1651,7.1027,7.1027,7.1468,7.1651,7.0403,7.0263,7.0112,6.8905,6.8759,6.8905,6.8905,6.8605,6.8274,6.8091,6.721,6.6623,6.7063,6.6109,6.5521,6.6145,6.5705,6.5102,6.4542,6.392,6.3576,6.361,6.249,6.1478,6.0952,5.8288,5.6493,5.6109,5.5666,5.5437,5.5437,5.561,5.5532,5.5184,5.5184,5.471,5.3794,5.3618,5.3036,5.2048,5.249,5.1625,5.3813,5.4367,5.4847,5.4402,5.4625,5.4941,5.5,5.5295,5.5758,5.6263,5.685,5.7677,5.8937,5.9626,6.0696,6.2586,6.4262,6.6769,7.0991,7.6507,8.2007,8.716,8.9263,9.0404,9.0588,9.1362,9.1803,9.1803,9.14,9.0812,9.0005,8.9197,8.839,8.7582,8.5637,8.4609,8.4609,8.2994,8.2186,8.2186,8.1012,8.0204,7.9764,7.8552,7.7781,7.7273,7.7273,7.7273,7.7273,7.7273,7.7273,7.7273,7.7273,7.7273,7.7273,7.7273,7.7017,7.6644,7.6644,7.613,7.5395,7.4955,7.4551,7.4111,7.3303,7.2753,7.2312,7.1945,7.2165,7.2312,7.1431,7.1248,7.1073,7.022,7.0036,7.011,7.011,6.9486,6.8898,6.8898,6.7907,6.732,6.8091,6.754,6.721,6.8017,6.7467,6.6843,6.6439,6.5705,6.5228,6.5301,6.4494,6.3643,6.2891,6.0819,5.8824,5.7014,5.6486,5.6259,5.6259,5.658,5.6606,5.6259,5.5893,5.5511,5.5114,5.4788,5.4349,5.3856,5.3953,5.3307,5.4,5.4926,5.5723,5.502,5.5039,5.517,5.4891,5.4947,5.5096,5.5169,5.6405,5.7767,5.8671,5.9553,6.0867,6.3015,6.522,6.9137,7.6457,7.897,8.2134,8.7749,8.8745,8.9888,9.217,9.2024,9.1803,9.1803,9.1583,9.1143,9.0445,8.9564,8.8683,8.7839,8.5747,8.4535,8.4425,8.281,8.2003,8.2003,8.0498,7.9727,7.9543,7.8148,7.742,7.7273,7.7273,0.0,7.7273,7.7273,7.7273,7.7273,7.7273,7.7273,7.7273,7.7273,7.7273,7.7273,7.7273,7.6864,7.6276,7.613,7.5652,7.4955,7.4111,7.378,7.356,7.2899,7.2606,7.2459,7.2349,7.1908,7.1439,7.1329,7.0881,7.0477,7.0477,6.9816,6.9265,6.9265,6.8605,6.8274,6.8972,6.9082,6.9302,7.0,6.9522,6.8825,6.8128,6.7247,6.6476,6.5925,6.5521,6.5007,6.4347,6.3392,6.1324,5.7838,5.7513,5.7427,5.7427,5.8044,5.7995,5.7282,5.66,5.6166,5.6059,5.5437,5.5372,5.5871,5.5353,5.493,5.4688,5.7332,5.9054,5.5135,5.5212,5.5883,5.4466,5.4727,5.5417,5.5988,5.7258,5.8745,6.0188,6.208,6.3849,6.4942,6.9336,7.4845,8.1411,8.3757,8.5698,8.8191,9.0147,9.0737,8.9334,9.081,9.1803,9.1803,9.0555,8.9711,8.9601,8.8206,8.6995,8.6187,8.5159,8.4278,8.3618,8.2003,8.1195,8.1158,8.0241,7.9433,7.8772,7.8516,7.8002,7.7273,0.0,7.7273,7.7273,7.7273,7.7273,7.7273,7.7273,7.7273,7.7273,7.7273,7.7273,7.7273,7.7273,7.72,7.698,7.6313,7.6019,7.5763,7.4955,7.4258,7.367,7.356,7.3046,7.2349,7.1688,7.1908,7.2165,7.1468,7.1725,7.2129,7.2129,7.1505,7.0954,7.0954,7.0293,6.9779,6.9889,6.9926,6.9963,7.0073,7.0,6.9853,6.9743,6.8421,6.7724,6.8311,6.6512,6.5264,6.5154,6.3686,6.2228,6.0955,6.0225,5.9871,5.9871,5.9968,5.9674,5.8859,5.8726,5.8312,5.7642,5.7533,5.7178,5.6649,5.7198,5.6429,5.4557,5.6889,5.8997,5.7922,5.944,6.0825,5.9512,5.9166,5.9302,5.989,6.0444,6.1374,6.3174,6.4968,6.7468,7.125,7.5242,7.9026,8.2389,8.3926,8.55,8.7528,8.9115,8.9926,8.9634,9.0554,9.0959,9.0555,8.9821,8.9234,8.8793,8.7655,8.6628,8.582,8.4609,8.3765,8.3398,8.1819,8.1012,8.1012,7.9727,7.8956,7.8589,7.8112,7.7708,7.7273,0.0,7.7273,7.7273,7.7273,7.7273,7.7273,7.7273,7.7273,7.7273,7.7273,7.7273,7.7273,7.7273,7.7273,7.7237,7.69,7.6754,7.6607,7.5799,7.5285,7.4918,7.4478,7.345,7.2422,7.2055,7.2239,7.2422,7.2055,7.2239,7.2496,7.2496,7.1872,7.1293,7.1293,7.066,7.022,7.066,7.077,7.0917,7.1321,7.1027,7.077,7.077,6.9706,6.9119,6.9522,6.8164,6.7063,6.6623,6.5485,6.3723,6.1117,6.0603,6.0419,6.0419,6.0419,6.0236,5.9869,5.9404,5.9001,5.8657,5.8657,5.8217,5.7483,5.829,5.7857,5.461,5.6647,5.9121,6.0554,6.241,6.4121,6.4941,6.417,6.3706,6.5067,6.5233,6.5486,6.6654,6.8234,7.125,7.6998,8.0252,8.2523,8.3856,8.4801,8.6086,8.8046,8.8893,8.9706,9.0776,9.0702,9.0335,8.9748,8.916,8.8573,8.7949,8.6995,8.6077,8.527,8.4058,8.3324,8.3141,8.1709,8.0901,8.0718,7.9286,7.8479,7.8259,7.7598,7.7273,7.7273,7.7273,7.7273,7.7273,7.7273,7.7273,7.7273,7.7273,7.7273,7.7273,7.7273,7.7273,7.7273,7.7273,7.7273,7.7273,7.7273,7.7273,7.7163,7.657,7.624,7.5983,7.5359,7.4184,7.3083,7.3083,7.2936,7.2789,7.2789,7.2642,7.2496,7.2496,7.2018,7.1578,7.1578,7.1101,7.0844,7.1468,7.1578,7.1798,7.2422,7.1982,7.1578,7.1578,7.0881,7.0367,7.0367,6.9669,6.8788,6.776,6.6953,6.5081,6.1777,6.1374,6.1263,6.1263,6.108,6.086,6.0676,6.0089,5.9661,5.9478,5.9478,5.9098,5.829,5.8891,5.8767,5.5551,5.8478,6.1394,6.1305,6.061,6.1687,6.8154,6.7697,6.704,7.0989,7.1903,7.1599,7.0226,7.2037,7.5076,7.9167,8.2486,8.5548,8.8498,8.9601,9.0444,9.1362,9.1546,9.1583,9.1693,9.1033,9.0592,9.0519,8.8463,8.7142,8.7105,8.5637,8.4389,8.3618,8.3471,8.303,8.2296,8.1415,8.0645,7.9874,7.8993,7.8185,7.7384,7.731,7.7273,7.7273,7.7273,7.7273,7.7273,7.7273,7.7273,7.7273,7.7273,7.7273,7.7273,7.7273,7.7273,7.7273,7.7273,7.7273,7.7273,7.7273,7.7273,7.7273,7.7237,7.6717,7.6093,7.6019,7.5395,7.4735,7.4735,7.4184,7.3597,7.3597,7.3046,7.2496,7.2496,7.2459,7.2422,7.2422,7.2386,7.2349,7.2422,7.2422,7.2422,7.2496,7.2459,7.2422,7.2422,7.1725,7.1211,7.1211,7.0477,6.9376,6.7834,6.6953,6.6072,6.5007,6.4237,6.3833,6.3833,6.3062,6.2291,6.152,6.1447,6.1043,6.0309,6.0309,5.9905,5.9111,5.9148,5.8767,5.5356,5.8812,6.2482,6.2817,6.3829,6.6129,7.1641,7.2952,7.3488,7.536,7.7164,7.8035,7.6808,7.7612,7.9468,8.2613,8.5655,8.8241,8.9931,9.0849,9.1473,9.1767,9.1363,9.0849,9.0372,8.9601,8.8683,8.7692,8.6775,8.604,8.5527,8.3985,8.3214,8.3398,8.2443,8.2003,8.2186,8.1415,8.0608,7.9764,7.8993,7.8148,7.7273,7.7273,7.7273,7.7273,7.7273,7.7273,7.7273,7.7273,7.7273,7.7273,7.7273,7.7273,7.7273,7.7273,7.7273,7.7273,7.7273,7.7273,7.7273,7.7273,7.7273,7.7273,7.7273,7.709,7.6864,7.6864,7.6613,7.6136,7.5175,7.4698,7.4441,7.4441,7.3817,7.323,7.323,7.2863,7.2496,7.2496,7.2496,7.2496,7.2496,7.2496,7.2496,7.2496,7.2496,7.2496,7.2496,7.2239,7.2055,7.2055,7.1321,7.0403,6.9265,6.8458,6.7871,6.7577,6.5852,6.4604,6.4127,6.3759,6.3209,6.2365,6.1851,6.1447,6.1153,6.1153,6.075,5.9979,6.0456,6.0272,5.5708,5.8612,6.2065,6.3679,6.6216,6.9919,7.6018,7.7838,7.9007,8.1784,8.2731,8.2534,8.0861,8.1169,8.2401,8.4497,8.7571,9.0027,9.0848,9.1216,9.1436,9.1436,9.0702,9.0005,8.9419,8.8463,8.7362,8.6261,8.5233,8.4425,8.3875,8.2553,8.2076,8.2627,8.1819,8.1525,8.1819,8.1269,8.0461,7.9396,7.8846,7.8148,7.7273,7.7273,7.7273,7.7273,7.7273,7.7273,7.7273,7.7273,7.7273,7.7273,7.7273,7.7273,7.7273,7.7273,7.7273,7.7273,7.7273,7.7273,7.7273,7.7273,7.7273,7.7273,7.7273,7.7273,7.7273,7.7273,7.7273,7.7053,7.5916,7.5469,7.5212,7.4955,7.4478,7.3927,7.3413,7.3083,7.2789,7.2569,7.2496,7.2496,7.2496,7.2496,7.2496,7.2496,7.2496,7.2496,7.2496,7.2496,7.2606,7.2863,7.2386,7.1725,7.0917,7.011,6.9449,6.8935,6.71,6.5705,6.4897,6.4604,6.409,6.3246,6.2658,6.2254,6.1998,6.1998,6.1557,6.0786,6.1337,6.1153,5.6894,5.8115,6.0176,6.3551,6.6964,7.1942,8.1365,8.2071,8.2996,9.0888,8.8787,8.4597,8.1552,8.2235,8.3488,8.4386,8.7876,9.0773,9.1691,9.1106,9.0592,9.0592,8.9895,8.9417,8.9345,8.7949,8.6995,8.6958,8.4022,8.2186,8.2186,8.1415,8.1012,8.1012,8.1782,8.1782,8.1012,8.0975,8.0167,7.8589,7.8589,7.8148,7.7273,7.7273,7.7273,7.7273,7.7273,7.7273,7.7273,7.7273,7.7273,7.7273,7.7273,7.7273,7.7273,7.7273,7.7273,7.7273,7.7273,7.7273,7.7273,7.7273,7.7273,7.7273,7.7273,7.7273,7.7273,7.7273,7.7273,7.7273,7.7273,7.6717,7.5909,7.5139,7.4918,7.4478,7.2863,7.312,7.345,7.2679,7.2496,7.2496,7.2496,7.2496,7.2496,7.2496,7.2496,7.2496,7.2496,7.2532,7.2826,7.3634,7.3707,7.3377,7.2569,7.1798,7.066,6.9045,6.8164,6.7357,6.6512,6.5742,6.4934,6.4127,6.409,6.3686,6.2817,6.2817,6.2401,6.163,6.163,6.119,5.7126,5.9973,6.3603,6.5663,7.0997,7.7223,8.3017,8.4844,8.7079,9.3166,9.0329,8.6624,8.6252,8.5863,8.5638,8.5629,8.7891,8.9952,9.081,9.0739,9.0592,9.0592,8.9381,8.8353,8.7802,8.6775,8.5453,8.3765,8.3251,8.2553,8.1415,8.1122,8.1269,8.1819,8.0975,8.0681,8.1012,7.9874,7.9066,7.8589,7.8002,7.753,7.7273,7.7273,7.7273,7.7273,7.7273,7.7273,7.7273,7.7273,7.7273,7.7273,7.7273,7.7273,7.7273,7.7273,7.7273,7.7273,7.7273,7.7273,7.7273,7.7273,7.7273,7.7273,7.7273,7.7273,7.7273,7.7273,7.7273,7.7273,7.7273,7.7127,7.687,7.6613,7.6166,7.5469,7.4404,7.3927,7.345,7.2679,7.2496,7.2496,7.2496,7.2496,7.2496,7.2496,7.2496,7.2716,7.3266,7.3854,7.4294,7.4515,7.4551,7.4221,7.3413,7.2606,7.1725,7.0632,6.9816,6.8531,6.6586,6.6256,6.5778,6.4971,6.4934,6.4824,6.4567,6.4567,6.4457,6.42,6.42,6.409,6.0234,6.3072,6.6525,7.0123,7.5311,8.1029,8.6928,8.9601,9.1893,9.5455,9.2837,8.9778,8.9642,8.9003,8.8418,8.823,8.9573,9.0788,9.0997,9.0475,9.0005,8.9674,8.8243,8.7169,8.6951,8.5581,8.4141,8.2696,8.2111,8.147,8.0566,8.0534,8.0755,8.1232,8.0608,8.0204,8.0057,7.9066,7.8442,7.8075,7.753,7.7273,7.7273,7.7273,7.7273,7.7273,7.7273,7.7273,7.7273,7.7273,7.7273,7.7273,7.7273,7.7273,7.7273,7.7273,7.7273,7.7273,7.7273,7.7273,7.7273,7.7273,7.7273,7.7273,7.7273,7.7273,7.7273,7.7273,7.7273,7.7273,7.7273,7.7273,7.72,7.69,7.646,7.5873,7.5065,7.4515,7.4037,7.356,7.345,7.345,7.345,7.345,7.345,7.345,7.345,7.3634,7.4111,7.4625,7.5028,7.5359,7.5395,7.5065,7.4258,7.345,7.2496,7.1394,7.055,6.9449,6.7981,6.7614,6.6916,6.5815,6.5778,6.5632,6.5301,6.5301,6.5301,6.5301,6.5301,6.5301,6.4698,6.6716,6.9284,7.6068,8.0015,8.4324,9.2249,9.5211,9.654,9.7401,9.5688,9.3581,9.1985,9.1624,9.1547,9.1517,9.2228,9.2486,9.1697,9.0332,8.9082,8.8274,8.6838,8.6103,8.6624,8.4626,8.3246,8.3191,8.1102,7.9902,8.0082,8.0014,7.9983,8.0088,8.0645,8.0241,7.8768,7.8633,7.8168,7.7396,7.7304,7.7273,7.7273,7.7273,7.7273,7.7273,7.7273,7.7273,7.7273,7.7273,7.7273,7.7273,7.7273,7.7273,7.7273,7.7273,7.7273,7.7273,7.7273,7.7273,7.7273,7.7273,7.7273,7.7273,7.7273,7.7273,7.7273,7.7273,7.7273,7.7273,7.7273,7.7273,7.709,7.6387,7.6203,7.5983,7.5175,7.5028,7.4992,7.4918,7.4918,7.4918,7.4918,7.4918,7.4918,7.4918,7.4955,7.5028,7.5028,7.5065,7.5395,7.613,7.6203,7.5836,7.4992,7.4221,7.312,7.1541,7.0734,7.0293,7.022,6.9449,6.8311,6.6843,6.6843,6.6439,6.5632,6.5632,6.5595,6.5521,6.5521,6.5521,6.437,6.8024,7.2827,7.9531,8.6132,9.1979,9.5826,9.648,9.6366,9.6578,9.6636,9.6174,9.4542,9.4176,9.3774,9.2531,9.2497,9.2203,9.0937,8.9931,8.8987,8.817,8.7167,8.6348,8.5767,8.5207,8.4367,8.3038,8.2448,8.221,8.2233,8.1581,8.1517,8.2219,8.113,8.0354,8.0017,7.8895,7.8248,7.81,7.754,7.7273,7.7273,7.7273,7.7273,7.7273,7.7273,7.7273,7.7273,7.7273,7.7273,7.7273,7.7273,7.7273,7.7273,7.7273,7.7273,7.7273,7.7273,7.7273,7.7273,7.7273,7.7273,7.7273,7.7273,7.7273,7.7273,7.7273,7.7273,7.7273,7.7273,7.7273,7.7237,7.7053,7.7017,7.6827,7.6019,7.5836,7.5652,7.5028,7.4918,7.4918,7.4918,7.4918,7.4918,7.4918,7.5432,7.5836,7.5836,7.6387,7.6833,7.7017,7.7017,7.643,7.5028,7.4735,7.3964,7.2349,7.2092,7.1688,7.1064,7.0257,6.9669,6.9339,6.9339,6.8935,6.8128,6.8128,6.7797,6.7173,6.7173,6.7173,6.6622,7.1172,7.6755,8.511,9.0787,9.4788,9.6519,9.6596,9.6288,9.6288,9.6634,9.6673,9.5788,9.5634,9.5213,9.3923,9.3459,9.2551,9.071,9.0088,8.9165,8.7623,8.6984,8.6497,8.5901,8.4757,8.3695,8.2867,8.2049,8.1612,8.1688,8.1287,8.1226,8.1702,8.0849,8.0231,7.9816,7.8801,7.8432,7.8729,7.7731,7.7273,7.7273,7.7273,7.7273,7.7273,7.7273,7.7273,7.7273,7.7273,7.7273,7.7273,7.7273,7.7273,7.7273,7.7273,7.7273,7.7273,7.7273,7.7273,7.7273,7.7273,7.7273,7.7273,7.7273,7.7273,7.7273,7.7273,7.7273,7.7273,7.7273,7.7273,7.7273,7.7273,7.698,7.6717,7.668,7.6387,7.6093,7.6093,7.6026,7.6026,7.6026,7.6026,7.6026,7.6026,7.6423,7.668,7.668,7.7017,7.7273,7.7273,7.7273,7.6796,7.5579,7.5139,7.4404,7.3156,7.2716,7.2312,7.1908,7.1835,7.1284,7.011,7.011,6.9889,6.9486,6.9082,6.8678,6.8274,6.7871,6.7907,6.8306,7.4125,8.0722,9.015,9.3749,9.5211,9.6095,9.6288,9.6288,9.6288,9.6288,9.6288,9.6288,9.6288,9.598,9.4941,9.4268,9.3023,9.0651,9.0209,8.9295,8.7202,8.6715,8.6478,8.6289,8.4288,8.3008,8.3066,8.1442,8.0638,8.0953,8.0681,8.0567,8.0719,8.0567,8.0211,7.9513,7.8927,7.8878,7.9335,7.809,7.745,7.745,7.7335,7.7273,7.7273,7.7273,7.7273,7.7273,7.7273,7.7273,7.7273,7.7273,7.7273,7.7273,7.7273,7.7273,7.7273,7.7273,7.7273,7.7304,7.742,7.7396,7.7304,7.7457,7.7396,7.7273,7.7273,7.7273,7.7273,7.7273,7.7273,7.7273,7.7273,7.679,7.6497,7.7163,7.679,7.6497,7.7163,7.7273,7.7273,7.7273,7.7273,7.7273,7.7273,7.7273,7.7273,7.7273,7.7273,7.7273,7.7273,7.7273,7.6974,7.6166,7.5506,7.4771,7.3964,7.3266,7.2899,7.2899,7.356,7.2973,7.0954,7.077,7.0587,7.0293,6.9633,6.9265,6.9082,6.8421,6.8458,6.4784,7.4063,8.4404,9.0881,9.3749,9.5211,9.6095,9.6288,9.6288,9.6288,9.6288,9.6288,9.6288,9.6288,9.5788,9.4134,9.3771,9.2891,9.0454,8.9527,8.8683,8.7626,8.6796,8.6271,8.615,8.5185,8.4609,8.4626,8.3012,8.2326,8.312,8.1798,8.1337,8.2028,8.1376,8.0954,8.0838,8.0163,7.9908,7.9969,7.8754,7.8146,7.8146,7.757,7.7273,7.7273,7.7273,7.7273,7.7273,7.7273,7.7273,7.7273,7.7273,7.7273,7.7273,7.7273,7.7273,7.7273,7.7273,7.7273,7.7396,7.7988,7.7797,7.7426,7.7988,7.7768,7.7273,7.7273,7.7273,7.7273,7.7273,7.7273,7.7273,7.7273,7.72,7.7163,7.7273,7.72,7.7163,7.7273,7.7273,7.7273,7.7273,7.7273,7.7273,7.7273,7.7273,7.7273,7.7273,7.7273,7.7273,7.7273,7.7273,7.6974,7.6166,7.6019,7.5616,7.4808,7.4661,7.4588,7.4588,7.4698,7.4588,7.4294,7.356,7.2532,7.1138,7.0999,7.0624,6.9926,6.9816,6.9816,6.9153,7.6258,8.3326,9.065,9.3056,9.4057,9.5903,9.6288,9.6288,9.6288,9.6288,9.6288,9.6288,9.5903,9.5172,9.3903,9.3326,9.2353,9.0394,8.972,8.8997,8.7735,8.7196,8.6504,8.5538,8.467,8.3978,8.3478,8.2324,8.1785,8.217,8.1516,8.1246,8.1631,8.1285,8.1093,8.1093,8.0445,7.9785,7.9081,7.8902,7.8432,7.7739,7.742,7.7273,7.7273,7.7273,7.7273,7.7273,7.7273,7.7273,7.7273,7.7273,7.7273,7.7273,7.7273,7.7273,7.7335,7.7739,7.7592,7.7426,7.8063,7.7854,7.7365,7.7651,7.754,7.7273,7.7273,7.7273,7.7273,7.7273,7.7273,7.7273,7.7273,7.7273,7.7273,7.7273,7.7273,7.7273,7.7273,7.7273,7.7273,7.7273,7.7273,7.7273,7.7273,7.7273,7.7273,7.7273,7.7273,7.7273,7.7273,7.7273,7.7163,7.6827,7.635,7.5946,7.5579,7.5175,7.4918,7.4918,7.5322,7.5359,7.4918,7.4111,7.334,7.2642,7.1762,7.1138,7.077,7.0293,7.033,7.0979,7.5565,7.9543,8.7374,9.0419,9.221,9.4749,9.5826,9.6288,9.6288,9.6134,9.598,9.598,9.5441,9.4711,9.3826,9.3018,9.2006,9.0582,9.009,8.9415,8.8037,8.7614,8.6824,8.5363,8.4209,8.3324,8.267,8.167,8.1093,8.1093,8.1093,8.1093,8.1093,8.1093,8.1093,8.1093,8.0608,7.9806,7.8754,7.9058,7.8628,7.754,7.7365,7.7273,7.7273,7.7273,7.7273,7.7304,7.748,7.745,7.7304,7.748,7.742,7.7273,7.7273,7.7426,7.7659,7.8118,7.7988,7.7651,7.8299,7.7951,7.7335,7.751,7.7457,7.7273,7.7273,7.7273,7.7273,7.7273,7.7273,7.7273,7.7273,7.7273,7.7273,7.7273,7.7273,7.7273,7.7273,7.7273,7.7273,7.7273,7.7273,7.7273,7.7273,7.7273,7.7273,7.7273,7.7273,7.7273,7.7273,7.7273,7.7273,7.7273,7.6754,7.6423,7.6423,7.5836,7.5542,7.5542,7.6093,7.613,7.5542,7.4735,7.4111,7.3707,7.2496,7.1798,7.1615,7.0991,7.1027,6.5164,6.9034,7.3022,7.9042,8.4757,8.9556,9.2133,9.4557,9.6288,9.6288,9.5634,9.5057,9.5057,9.5018,9.4711,9.3826,9.3018,9.2172,9.1252,9.0423,8.9577,8.8752,8.7885,8.7055,8.6132,8.4555,8.3555,8.3516,8.2016,8.1093,8.1093,8.1093,8.1093,8.1093,8.1093,8.1093,8.1093,8.1077,8.0716,7.9989,7.9447,7.8878,7.8228,7.7599,7.7273,7.7273,7.7273,7.7273,7.7335,7.7988,7.7875,7.7365,7.8016,7.7846,7.7273,7.7273,7.771,7.8255,7.8282,7.8282,7.8363,7.8938,7.8288,7.7426,7.8072,7.7826,7.7273,7.7273,7.7273,7.7273,7.7273,7.7273,7.7273,7.7273,7.7273,7.7273,7.7273,7.7273,7.7273,7.7273,7.7273,7.7273,7.7273,7.7273,7.7273,7.7273,7.7273,7.7273,7.7273,7.7273,7.7273,7.7273,7.7273,7.7273,7.7273,7.7237,7.7237,7.7237,7.72,7.7163,7.7163,7.72,7.72,7.7163,7.6387,7.5212,7.3707,7.3597,7.3193,7.2459,7.2386,7.2386,6.4668,6.69,6.9372,7.5803,8.0223,8.3785,8.6901,9.0441,9.3018,9.3018,9.3633,9.4172,9.4172,9.3287,9.2441,9.2133,9.0941,9.0133,9.0364,8.9171,8.8402,8.8671,8.744,8.6017,8.4632,8.3939,8.3131,8.2093,8.1439,8.1093,8.1093,8.1093,8.1093,8.1093,8.1093,8.1093,8.1093,8.1093,8.075,8.0067,7.9491,7.8865,7.8282,7.7629,7.7273,7.7304,7.7768,7.7932,7.796,7.82,7.8379,7.8551,7.8766,7.8754,7.8525,7.8525,7.8678,7.8914,7.9313,7.8951,7.8379,7.8986,7.8315,7.7335,7.7599,7.748,7.7273,7.7273,7.7273,7.7273,7.7273,7.7273,7.7426,7.7817,7.7932,7.7932,7.7932,7.7629,7.7273,7.7273,7.7273,7.7273,7.7273,7.7273,7.7273,7.7273,7.7273,7.7273,7.7273,7.7273,7.7273,7.7273,7.7273,7.7273,7.7273,7.7273,7.7273,7.7273,7.7273,7.7273,7.7273,7.7273,7.7273,7.7273,7.7047,7.6093,7.4478,7.3927,7.3303,7.2496,7.2496,7.2496,6.3387,6.4762,6.6568,7.2469,7.5827,7.8861,8.3471,8.688,8.9402,9.0517,9.1441,9.2095,9.2364,9.1056,9.021,9.1056,8.9787,8.8902,8.944,8.8556,8.794,8.8209,8.7248,8.5863,8.4209,8.3747,8.3016,8.1593,8.1246,8.1093,8.1093,8.1093,8.1093,8.1093,8.0823,8.0669,8.0669,8.0669,8.0328,7.9686,7.9571,7.9081,7.8282,7.7817,7.7659,7.7651,7.8128,7.8309,7.8336,7.8729,7.901,7.9221,7.9425,7.938,7.9198,7.9198,7.9335,7.9556,7.9949,7.9556,7.8951,7.9128,7.8499,7.7599,7.7365,7.7273,7.7273,7.7273,7.7273,7.7273,7.7273,7.7273,7.751,7.8405,7.8432,7.8363,7.8562,7.809,7.757,7.7335,7.7273,7.7273,7.7273,7.7273,7.7273,7.7273,7.748,7.7659,7.7659,7.7659,7.7659,7.7659,7.742,7.7273,7.7273,7.7273,7.7396,7.7592,7.7659,7.7739,7.7923,7.7923,7.7923,7.7923,7.7768,7.6958,7.5658,7.4882,7.4073,7.3195,7.3195,7.3195,0.0,0.0,0.0,6.8618,7.1493,7.5067,8.1762,8.3949,8.5555,8.894,8.9017,8.8748,8.9671,8.8479,8.8132,9.0671,8.971,8.8632,8.8671,8.8632,8.8325,8.7478,8.7363,8.6709,8.5016,8.4093,8.3208,8.2324,8.1554,8.1093,8.1093,8.1093,8.1093,8.1093,8.0246,7.9823,7.9823,7.9785,7.95,7.8923,7.9705,7.9469,7.8363,7.8336,7.8336,7.8336,7.8363,7.8363,7.8432,7.96,7.9785,7.9313,7.9908,7.9785,7.9267,7.9244,7.96,8.0125,8.0125,8.0105,7.9969,7.9403,7.8804,7.82,7.751,7.7304,7.7304,7.7304,7.7304,7.7335,7.7335,7.7365,7.768,7.8938,7.8779,7.851,7.9105,7.8779,7.8146,7.748,7.7365,7.7365,7.7365,7.7365,7.7365,7.7365,7.7903,7.8336,7.8336,7.8336,7.8336,7.8309,7.7739,7.7335,7.7335,7.7335,7.7622,7.8282,7.8336,7.8614,7.9175,7.9198,7.9198,7.9198,7.8602,7.7926,7.717,7.647,7.5593,7.4606,7.4632,7.4632,6.08,0.0,0.0,0.0,0.0,0.0,7.2945,7.568,7.8744,8.2787,8.3394,8.4209,8.7478,8.6709,8.6209,8.8132,8.7517,8.7055,8.7671,8.7209,8.6978,8.7363,8.6824,8.5786,8.4132,8.3747,8.2978,8.1554,8.1246,8.1093,8.1093,8.1093,8.1093,8.1093,8.0246,7.9823,7.9823,7.9169,7.9069,7.9555,7.934,7.9358,7.9578,7.9152,7.8938,7.8962,7.9403,7.9578,7.9621,7.9949,8.0296,8.0591,8.075,8.0716,8.0537,8.0046,7.9949,8.0125,8.0125,7.9827,7.9425,7.9267,7.9081,7.8716,7.7651,7.7622,7.8044,7.8044,7.8044,7.8118,7.8576,7.8666,7.8865,7.9663,7.9706,7.9642,7.9827,7.9706,7.9425,7.8791,7.8666,7.8666,7.8666,7.8666,7.8666,7.8666,7.8816,7.8938,7.8938,7.8938,7.8804,7.8363,7.8525,7.8499,7.8035,7.842,7.8741,7.8938,7.8938,7.901,7.9198,7.9198,7.9198,7.9198,7.9034,7.8825,7.8599,7.6912,7.5662,7.4835,7.5315,7.5541,0.0,0.0,0.0,6.3464,0.0,0.0,6.9717,7.1274,7.3303,7.7189,7.8237,7.9515,8.3054,8.3478,8.3862,8.5555,8.5709,8.5901,8.6748,8.6132,8.5901,8.6748,8.6401,8.544,8.3747,8.3593,8.2901,8.1246,8.1093,8.1093,8.1093,8.1093,8.1093,8.1093,8.0246,7.9631,7.9246,7.9092,7.9092,7.9246,7.9642,7.9912,8.0105,7.9765,7.9578,7.9578,7.9949,8.0277,8.0499,8.0499,8.075,8.1093,8.1093,8.1093,8.1061,8.0643,8.0333,8.0125,8.0125,7.9868,7.9535,7.929,7.938,7.9403,7.8394,7.8379,7.8678,7.8678,7.8678,7.8829,7.9425,7.938,7.9425,8.0315,8.0315,8.0182,8.0463,8.0499,8.0259,7.938,7.9198,7.9198,7.9198,7.9198,7.9198,7.9198,7.9425,7.9578,7.9578,7.9578,7.9335,7.8754,7.8986,7.8938,7.8363,7.884,7.9313,7.9556,7.9578,7.9723,7.9987,8.0007,8.0007,8.0007,7.9723,7.9447,7.9198,7.7987,7.709,7.658,7.6973,7.7137,0.0,0.0,0.0,0.0,6.5456,0.0,6.9497,6.914,6.904,7.2286,7.3388,7.4567,7.7314,7.9161,8.0739,8.224,8.3455,8.4632,8.594,8.5478,8.5286,8.6017,8.6017,8.5324,8.3747,8.3516,8.2785,8.1208,8.1093,8.1093,8.1093,8.1093,8.1093,8.1093,8.0246,7.9438,7.8631,7.9323,7.9323,7.8669,8.0208,8.069,8.0201,8.0201,8.0201,8.0201,8.0125,8.0458,8.1093,8.1016,8.1016,8.1093,8.1093,8.1093,8.1093,8.1007,8.0608,8.0125,8.0125,8.0125,8.0008,7.9469,7.9685,8.0105,7.9403,7.9244,7.9313,7.9313,7.9358,7.9513,8.0086,7.9827,7.9701,8.0838,8.0643,8.037,8.0975,8.1093,8.0788,7.9637,7.9403,7.9403,7.9403,7.9403,7.9403,7.9403,7.9868,8.0201,8.0201,8.0201,7.9969,7.9358,7.9358,7.9152,7.8562,7.9058,7.9621,8.0182,8.0201,8.0481,8.1077,8.1093,8.1093,8.1093,8.0499,7.9949,7.9403,7.9267,7.9091,7.8942,7.898,7.9019,0.0,0.0,0.0,0.0,0.0,0.0,6.542,6.5378,6.6367,6.9085,6.8586,6.8897,7.2855,7.4397,7.5168,7.5501,7.7978,8.1308,8.5517,8.5978,8.594,8.6094,8.5517,8.4747,8.3708,8.2978,8.2131,8.117,8.1093,8.1093,8.1093,8.1093,8.1093,8.1093,8.0246,7.9708,7.9554,7.9015,7.9015,7.9554,7.99,8.0353,8.0888,8.0888,8.0888,8.0849,8.0158,8.0322,8.1054,8.0323,8.0477,8.1093,8.1093,8.1093,8.1007,8.0499,8.0201,8.0125,8.0125,8.0125,8.0067,7.9969,8.0352,8.0698,7.9535,7.9535,7.9929,7.9929,8.0315,8.075,8.0871,8.0822,8.0805,8.1061,8.0991,8.0959,8.1077,8.1093,8.1045,8.0805,8.0716,8.0716,8.0716,8.0716,8.0716,8.0716,8.0838,8.0888,8.0888,8.0888,8.0643,7.9989,8.0427,8.0445,7.9806,8.0333,8.0805,8.0888,8.0888,8.0959,8.1093,8.1093,8.1093,8.1093,8.0975,8.0855,8.0716,7.9701,7.9192,7.9153,7.966,7.9896,0.0,0.0,0.0,6.4406,0.0,0.0,0.0,6.3941,6.4113,6.5749,6.5065,6.5181,6.8586,6.9871,7.0886,7.2161,7.4807,7.7733,8.0737,8.291,8.4362,8.4786,8.4516,8.3901,8.3054,8.2554,8.1977,8.117,8.1093,8.1093,8.1093,8.1093,8.1093,8.1093,8.0669,8.0246,7.9823,7.9785,7.9785,7.9823,8.0246,8.0439,8.0477,8.09,8.0631,7.9823,8.0246,8.0439,8.0439,8.0439,8.0708,8.1093,8.1093,8.1093,8.1061,8.0733,8.037,8.0125,8.0125,8.0125,8.0125,8.0125,8.0535,8.0975,8.0353,8.0372,8.0608,8.0608,8.0855,8.1093,8.1093,8.1093,8.1093,8.1093,8.1093,8.1093,8.1093,8.1093,8.1093,8.1093,8.14,8.1708,8.1708,8.2054,8.2208,8.1747,8.1708,8.1554,8.1131,8.1093,8.0855,8.0163,8.0716,8.0838,8.0163,8.0716,8.1093,8.1093,8.1093,8.1093,8.1093,8.1093,8.1093,8.1093,8.1093,8.1093,8.1093,8.0445,8.0163,8.0125,8.0463,8.0608,0.0,0.0,0.0,0.0,0.0,6.575,0.0,0.0,0.0,6.299,6.2529,6.2636,6.4486,6.5655,6.6863,6.844,7.1338,7.351,7.3948,7.74,8.0469,8.197,8.2416,8.2324,8.1631,8.1269,8.1077,8.1093,8.0462,8.0385,8.1054,8.1093,8.1093,8.1093,8.1093,8.0746,8.0054,8.0746,8.0746,8.0054,8.0592,8.0554,8.0092,8.0592,8.0169,7.9054,8.0323,8.0554,8.0092,8.0631,8.0939,8.1093,8.1093,8.1093,8.1093,8.1093,8.075,8.0296,8.0296,8.0296,8.0296,8.0296,8.0643,8.1093,8.1093,8.1093,8.1093,8.1093,8.1093,8.1093,8.1093,8.1093,8.1093,8.1093,8.1093,8.1093,8.1093,8.1208,8.1323,8.1323,8.2131,8.2708,8.2362,8.3016,8.3362,8.267,8.2401,8.2054,8.14,8.1208,8.0888,8.0352,8.0767,8.0871,8.0333,8.0767,8.1093,8.1093,8.1093,8.1093,8.1093,8.1093,8.1093,8.1093,8.1093,8.1093,8.1093,8.1093,8.1093,8.1093,8.1093,8.1093,0.0,0.0,0.0,0.0,6.839,0.0,0.0,0.0,6.3139,6.1735,0.0,6.1173,6.0699,0.0,0.0,6.0351,6.4626,6.7718,6.629,6.9049,7.2649,7.65,7.8214,7.9015,7.8938,7.7547,7.7877,8.0862,7.8239,7.7839,8.0939,8.1093,8.1093,8.1093,8.1093,8.1054,8.0939,8.1054,8.1054,8.0939,8.0285,8.0285,8.0939,8.0246,8.0246,8.0785,8.0208,8.0323,8.09,8.0246,8.04,8.1093,8.1093,8.1093,8.1093,8.1093,8.1061,8.0975,8.0975,8.0975,8.0975,8.0975,8.1045,8.1093,8.1093,8.1093,8.1093,8.1093,8.1093,8.1093,8.1093,8.1093,8.1093,8.1093,8.1093,8.1093,8.1093,8.167,8.217,8.217,8.3478,8.4132,8.2554,8.3016,8.3555,8.3478,8.2785,8.2285,8.217,8.1554,8.1077,8.0991,8.1061,8.1077,8.0991,8.1061,8.1093,8.1093,8.1093,8.1093,8.1093,8.1093,8.1093,8.1093,8.1093,8.1093,8.1093,8.1093,8.1093,8.1093,8.1093,8.1093,0.0,0.0,0.0,0.0,0.0,0.0,6.5064,0.0,6.2045,0.0,0.0,0.0,0.0,0.0,0.0,0.0,6.1447,6.3433,6.2761,6.4635,6.7858,7.2571,7.2918,7.3482,7.5418,7.5822,7.6562,7.8015,7.6793,7.6831,7.8784,7.9823,8.0592,8.1093,8.1093,8.1093,8.1093,8.1093,8.1093,8.1093,8.0746,8.0477,8.0362,8.0477,8.0208,7.9631,8.0285,8.0477,8.0362,8.0516,8.0785,8.1093,8.1093,8.1093,8.1093,8.1093,8.1093,8.1093,8.1093,8.1093,8.1093,8.1093,8.1093,8.1093,8.1093,8.1093,8.1093,8.1093,8.1093,8.1093,8.1093,8.1093,8.1093,8.1093,8.1477,8.1785,8.1785,8.2439,8.3054,8.3054,8.4439,8.5209,8.4016,8.4516,8.4709,8.3747,8.3285,8.2708,8.1747,8.1323,8.1093,8.1093,8.1093,8.1093,8.1093,8.1093,8.1093,8.1093,8.1093,8.1323,8.1785,8.1362,8.1093,8.1093,8.1554,8.1554,8.1093,8.1554,8.1554,8.1093,8.1093,8.1093,7.6299,0.0,0.0,0.0,0.0,0.0,0.0,0.0,0.0,0.0,0.0,0.0,0.0,0.0,0.0,0.0,0.0,6.0567,6.0142,6.101,6.3345,6.7728,6.8024,6.9027,7.2105,7.3063,7.3894,7.487,7.4063,7.4538,7.6823,7.8092,7.9361,8.0708,8.0977,8.1093,8.1093,8.1093,8.1093,8.1093,8.0862,8.0554,8.0169,8.0554,8.0169,7.9285,8.0554,8.0746,8.0208,8.0823,8.1093,8.1093,8.1093,8.1093,8.1093,8.1093,8.1093,8.1093,8.1093,8.1093,8.1093,8.1093,8.1093,8.1093,8.1093,8.1093,8.1093,8.1093,8.1093,8.1131,8.1362,8.1285,8.117,8.1362,8.1708,8.2016,8.2247,8.2978,8.367,8.3901,8.5324,8.6209,8.5363,8.5901,8.5978,8.4478,8.4093,8.3439,8.1977,8.1785,8.1708,8.1439,8.1631,8.1785,8.1785,8.1785,8.1785,8.1785,8.1785,8.2054,8.2631,8.2093,8.1785,8.1785,8.2362,8.2362,8.1785,8.2362,8.2362,8.1785,8.1323,8.1093,0.0,0.0,0.0,7.4634,0.0,0.0,0.0,0.0,6.3381,0.0,0.0,0.0,0.0,0.0,0.0,0.0,0.0,0.0,0.0,5.7473,5.8451,6.1031,6.4031,6.6884,6.9385,6.8129,6.8579,7.1992,6.9149,6.9868,7.5745,7.6092,7.7246,7.9746,8.0669,8.1093,8.1093,8.1093,8.1093,8.1093,8.0246,8.0285,8.1016,8.0208,8.0285,8.1016,8.1093,8.1093,8.1054,8.1093,8.1093,8.1093,8.1093,8.1093,8.1093,8.1093,8.1093,8.1093,8.1093,8.1093,8.1093,8.1093,8.1093,8.1093,8.1093,8.1093,8.1093,8.1093,8.1093,8.1285,8.2054,8.167,8.1285,8.2093,8.1708,8.1362,8.2131,8.2978,8.3862,8.4709,8.6209,8.7094,8.6209,8.6786,8.7055,8.617,8.5363,8.4516,8.3632,8.3516,8.3208,8.2362,8.3016,8.3516,8.3516,8.3516,8.3516,8.3516,8.3516,8.3516,8.3555,8.3516,8.3516,8.3516,8.3555,8.3555,8.3516,8.3555,8.3555,8.3478,8.1862,8.1093,0.0,0.0,7.985,7.7692,0.0,0.0,0.0,0.0,0.0,0.0,0.0,0.0,0.0,0.0,0.0,0.0,0.0,0.0,0.0,0.0,5.685,5.8186,6.1766,6.4014,6.3706,6.4653,6.5818,6.6998,6.6576,6.791,7.1629,7.4476,7.6899,7.8861,8.0323,8.1093,8.1093,8.1093,8.1093,8.1093,8.0785,8.0823,8.1093,8.0785,8.0823,8.1093,8.1093,8.1093,8.1093,8.1093,8.1093,8.1093,8.1093,8.1093,8.1093,8.1093,8.1093,8.1093,8.1093,8.1093,8.1093,8.1093,8.1093,8.1093,8.1093,8.1093,8.1208,8.1747,8.19,8.2093,8.2939,8.2939,8.2824,8.3093,8.3401,8.3708,8.3978,8.467,8.5517,8.6401,8.7478,8.8171,8.7863,8.8055,8.7594,8.5593,8.5093,8.4593,8.3708,8.3593,8.3478,8.317,8.3401,8.3593,8.3593,8.3593,8.3862,8.4439,8.3901,8.3862,8.4439,8.4478,8.4478,8.4478,8.5555,8.5824,8.5247,8.5247,8.4978,8.4439,8.3285,8.2747,8.3138,8.2338,0.0,7.9248,7.6842,0.0,7.2241,0.0,0.0,0.0,0.0,0.0,0.0,0.0,0.0,0.0,0.0,0.0,0.0,5.629,5.6038,5.6483,5.9158,6.0659,5.9854,6.125,6.2337,6.2644,6.3232,6.5,6.8167,7.1783,7.4938,7.7515,7.9592,8.0785,8.1093,8.1093,8.1093,8.1093,8.1093,8.1093,8.1093,8.1093,8.1093,8.1093,8.1093,8.1093,8.1093,8.1093,8.1093,8.1093,8.1093,8.1093,8.1093,8.1093,8.1093,8.1093,8.1093,8.1093,8.1093,8.1093,8.1285,8.1516,8.1516,8.1516,8.1747,8.2901,8.2785,8.2631,8.4093,8.4055,8.367,8.3978,8.4247,8.4593,8.5209,8.5517,8.6017,8.7171,8.8094,8.8594,8.8286,8.8479,8.8017,8.6094,8.5517,8.5016,8.417,8.4324,8.4362,8.4093,8.4324,8.4478,8.4478,8.4478,8.4747,8.5286,8.4786,8.4863,8.5747,8.5786,8.6209,8.7132,8.7632,8.7863,8.7902,8.7017,8.6286,8.5786,8.4901,8.4478]}]]